<?xml version="1.0" encoding="UTF-8" standalone="no" ?>
<gpx xmlns="http://www.topografix.com/GPX/1/1" xmlns:xsi="http://www.w3.org/2001/XMLSchema-instance" xsi:schemaLocation="http://www.topografix.com/GPX/1/1 http://www.topografix.com/GPX/1/1/gpx.xsd" version="1.1" creator="VisuGPX - https://www.visugpx.com">
  <metadata>
    <name>Cultu Bike : Les villas du cap d'Antibes</name>
    <desc><![CDATA[Une sortie originale sur les traces des villas mythiques du Cap. En prime, un jeu de piste à activer via l’application CultuBike pour enrichir votre balade.

Parce qu’on ne traverse pas le Cap d’Antibes comme un simple touriste ! Ce circuit unique vous plonge dans un monde de villas cachées, de légendes, de jardins botaniques et de vues spectaculaires sur la Méditerranée.
La balade débute à Juan-les-Pins, haut lieu du jazz et de la dolce vita, avant de longer le bord de mer vers le sud du Cap. Très vite, on quitte l’animation pour des chemins bordés de pins, de criques turquoise et de murs secrets.
En chemin, vous croiserez :
Des villas d’exception, souvent invisibles depuis la route, mais que vous apprendrez à repérer,
Des lieux emblématiques comme l’Hôtel du Cap-Eden-Roc, la villa Thuret ou le Port de l’Olivette,
Des questions, défis et jeux de piste si vous utilisez l’application gratuite CultuBike.
Ce n’est pas un simple itinéraire cyclable : c’est un voyage dans le temps et l’imaginaire, entre patrimoine, nature et petites énigmes culturelles.]]></desc>
  </metadata>
  <trk>
    <name><![CDATA[Mon activité du 2025-03-30]]></name>
    <trkseg>
      <trkpt lat="43.5663" lon="7.11574">
        <ele>11.700195</ele>
        <time>2025-03-30T11:59:41+00:00</time>
      </trkpt>
      <trkpt lat="43.56631" lon="7.11571">
        <ele>11.200195</ele>
        <time>2025-03-30T11:59:51+00:00</time>
      </trkpt>
      <trkpt lat="43.56631" lon="7.11574">
        <ele>11.700195</ele>
        <time>2025-03-30T12:00:00+00:00</time>
      </trkpt>
      <trkpt lat="43.56631" lon="7.11579">
        <ele>11.700195</ele>
        <time>2025-03-30T12:00:07+00:00</time>
      </trkpt>
      <trkpt lat="43.56628" lon="7.11581">
        <ele>12.100586</ele>
        <time>2025-03-30T12:00:10+00:00</time>
      </trkpt>
      <trkpt lat="43.56625" lon="7.1158">
        <ele>12.400391</ele>
        <time>2025-03-30T12:00:12+00:00</time>
      </trkpt>
      <trkpt lat="43.56622" lon="7.11579">
        <ele>11.900391</ele>
        <time>2025-03-30T12:00:14+00:00</time>
      </trkpt>
      <trkpt lat="43.56619" lon="7.11578">
        <ele>12.100586</ele>
        <time>2025-03-30T12:00:16+00:00</time>
      </trkpt>
      <trkpt lat="43.56616" lon="7.11577">
        <ele>12.100586</ele>
        <time>2025-03-30T12:00:17+00:00</time>
      </trkpt>
      <trkpt lat="43.56612" lon="7.11575">
        <ele>12.400391</ele>
        <time>2025-03-30T12:00:18+00:00</time>
      </trkpt>
      <trkpt lat="43.56609" lon="7.11574">
        <ele>12.600586</ele>
        <time>2025-03-30T12:00:19+00:00</time>
      </trkpt>
      <trkpt lat="43.56605" lon="7.11573">
        <ele>12.600586</ele>
        <time>2025-03-30T12:00:21+00:00</time>
      </trkpt>
      <trkpt lat="43.56602" lon="7.11573">
        <ele>12.799805</ele>
        <time>2025-03-30T12:00:22+00:00</time>
      </trkpt>
      <trkpt lat="43.56598" lon="7.11574">
        <ele>12.799805</ele>
        <time>2025-03-30T12:00:23+00:00</time>
      </trkpt>
      <trkpt lat="43.56595" lon="7.11575">
        <ele>12.900391</ele>
        <time>2025-03-30T12:00:25+00:00</time>
      </trkpt>
      <trkpt lat="43.5659" lon="7.11576">
        <ele>13.100586</ele>
        <time>2025-03-30T12:00:27+00:00</time>
      </trkpt>
      <trkpt lat="43.56587" lon="7.11578">
        <ele>13.100586</ele>
        <time>2025-03-30T12:00:28+00:00</time>
      </trkpt>
      <trkpt lat="43.56585" lon="7.11576">
        <ele>13.100586</ele>
        <time>2025-03-30T12:00:30+00:00</time>
      </trkpt>
      <trkpt lat="43.56582" lon="7.11578">
        <ele>13.299805</ele>
        <time>2025-03-30T12:00:31+00:00</time>
      </trkpt>
      <trkpt lat="43.56578" lon="7.11579">
        <ele>14</ele>
        <time>2025-03-30T12:00:33+00:00</time>
      </trkpt>
      <trkpt lat="43.56576" lon="7.11578">
        <ele>13.600586</ele>
        <time>2025-03-30T12:00:34+00:00</time>
      </trkpt>
      <trkpt lat="43.56573" lon="7.11575">
        <ele>13.600586</ele>
        <time>2025-03-30T12:00:35+00:00</time>
      </trkpt>
      <trkpt lat="43.56567" lon="7.11573">
        <ele>13.799805</ele>
        <time>2025-03-30T12:00:36+00:00</time>
      </trkpt>
      <trkpt lat="43.56562" lon="7.11571">
        <ele>14</ele>
        <time>2025-03-30T12:00:37+00:00</time>
      </trkpt>
      <trkpt lat="43.56557" lon="7.11571">
        <ele>13.400391</ele>
        <time>2025-03-30T12:00:38+00:00</time>
      </trkpt>
      <trkpt lat="43.56552" lon="7.1157">
        <ele>13.400391</ele>
        <time>2025-03-30T12:00:39+00:00</time>
      </trkpt>
      <trkpt lat="43.56546" lon="7.11569">
        <ele>13.299805</ele>
        <time>2025-03-30T12:00:40+00:00</time>
      </trkpt>
      <trkpt lat="43.56541" lon="7.11569">
        <ele>13.299805</ele>
        <time>2025-03-30T12:00:41+00:00</time>
      </trkpt>
      <trkpt lat="43.56537" lon="7.11568">
        <ele>13.100586</ele>
        <time>2025-03-30T12:00:42+00:00</time>
      </trkpt>
      <trkpt lat="43.56531" lon="7.11567">
        <ele>12.900391</ele>
        <time>2025-03-30T12:00:43+00:00</time>
      </trkpt>
      <trkpt lat="43.56526" lon="7.11566">
        <ele>12.600586</ele>
        <time>2025-03-30T12:00:44+00:00</time>
      </trkpt>
      <trkpt lat="43.5652" lon="7.11566">
        <ele>12.299805</ele>
        <time>2025-03-30T12:00:45+00:00</time>
      </trkpt>
      <trkpt lat="43.56515" lon="7.11567">
        <ele>12</ele>
        <time>2025-03-30T12:00:46+00:00</time>
      </trkpt>
      <trkpt lat="43.5651" lon="7.11568">
        <ele>12</ele>
        <time>2025-03-30T12:00:47+00:00</time>
      </trkpt>
      <trkpt lat="43.56505" lon="7.11568">
        <ele>11.700195</ele>
        <time>2025-03-30T12:00:48+00:00</time>
      </trkpt>
      <trkpt lat="43.565" lon="7.11568">
        <ele>11.400391</ele>
        <time>2025-03-30T12:00:49+00:00</time>
      </trkpt>
      <trkpt lat="43.56494" lon="7.11568">
        <ele>11.100586</ele>
        <time>2025-03-30T12:00:50+00:00</time>
      </trkpt>
      <trkpt lat="43.56489" lon="7.1157">
        <ele>10.799805</ele>
        <time>2025-03-30T12:00:51+00:00</time>
      </trkpt>
      <trkpt lat="43.56483" lon="7.11572">
        <ele>11</ele>
        <time>2025-03-30T12:00:52+00:00</time>
      </trkpt>
      <trkpt lat="43.56478" lon="7.11572">
        <ele>10.600586</ele>
        <time>2025-03-30T12:00:53+00:00</time>
      </trkpt>
      <trkpt lat="43.56474" lon="7.11573">
        <ele>10.600586</ele>
        <time>2025-03-30T12:00:54+00:00</time>
      </trkpt>
      <trkpt lat="43.56469" lon="7.11575">
        <ele>10.200195</ele>
        <time>2025-03-30T12:00:55+00:00</time>
      </trkpt>
      <trkpt lat="43.56465" lon="7.11576">
        <ele>9.700195</ele>
        <time>2025-03-30T12:00:56+00:00</time>
      </trkpt>
      <trkpt lat="43.56461" lon="7.11577">
        <ele>9.700195</ele>
        <time>2025-03-30T12:00:57+00:00</time>
      </trkpt>
      <trkpt lat="43.56456" lon="7.11579">
        <ele>9.200195</ele>
        <time>2025-03-30T12:00:58+00:00</time>
      </trkpt>
      <trkpt lat="43.56451" lon="7.11582">
        <ele>9.200195</ele>
        <time>2025-03-30T12:00:59+00:00</time>
      </trkpt>
      <trkpt lat="43.56445" lon="7.11584">
        <ele>8.799805</ele>
        <time>2025-03-30T12:01:00+00:00</time>
      </trkpt>
      <trkpt lat="43.56441" lon="7.11586">
        <ele>8.400391</ele>
        <time>2025-03-30T12:01:01+00:00</time>
      </trkpt>
      <trkpt lat="43.56436" lon="7.11588">
        <ele>9</ele>
        <time>2025-03-30T12:01:02+00:00</time>
      </trkpt>
      <trkpt lat="43.5643" lon="7.11591">
        <ele>8.700195</ele>
        <time>2025-03-30T12:01:03+00:00</time>
      </trkpt>
      <trkpt lat="43.56426" lon="7.11594">
        <ele>8.400391</ele>
        <time>2025-03-30T12:01:04+00:00</time>
      </trkpt>
      <trkpt lat="43.56421" lon="7.11597">
        <ele>8.700195</ele>
        <time>2025-03-30T12:01:05+00:00</time>
      </trkpt>
      <trkpt lat="43.56417" lon="7.11601">
        <ele>8.700195</ele>
        <time>2025-03-30T12:01:06+00:00</time>
      </trkpt>
      <trkpt lat="43.56413" lon="7.11603">
        <ele>8.5</ele>
        <time>2025-03-30T12:01:07+00:00</time>
      </trkpt>
      <trkpt lat="43.5641" lon="7.11607">
        <ele>9.100586</ele>
        <time>2025-03-30T12:01:08+00:00</time>
      </trkpt>
      <trkpt lat="43.56406" lon="7.1161">
        <ele>8.799805</ele>
        <time>2025-03-30T12:01:09+00:00</time>
      </trkpt>
      <trkpt lat="43.56403" lon="7.11613">
        <ele>8.600586</ele>
        <time>2025-03-30T12:01:10+00:00</time>
      </trkpt>
      <trkpt lat="43.56401" lon="7.11615">
        <ele>9.100586</ele>
        <time>2025-03-30T12:01:11+00:00</time>
      </trkpt>
      <trkpt lat="43.56396" lon="7.1162">
        <ele>8.900391</ele>
        <time>2025-03-30T12:01:12+00:00</time>
      </trkpt>
      <trkpt lat="43.56393" lon="7.11624">
        <ele>9.400391</ele>
        <time>2025-03-30T12:01:13+00:00</time>
      </trkpt>
      <trkpt lat="43.5639" lon="7.11628">
        <ele>9.200195</ele>
        <time>2025-03-30T12:01:14+00:00</time>
      </trkpt>
      <trkpt lat="43.56387" lon="7.11632">
        <ele>9.700195</ele>
        <time>2025-03-30T12:01:15+00:00</time>
      </trkpt>
      <trkpt lat="43.56384" lon="7.11637">
        <ele>9.299805</ele>
        <time>2025-03-30T12:01:16+00:00</time>
      </trkpt>
      <trkpt lat="43.56382" lon="7.11641">
        <ele>9.700195</ele>
        <time>2025-03-30T12:01:17+00:00</time>
      </trkpt>
      <trkpt lat="43.56379" lon="7.11647">
        <ele>9.700195</ele>
        <time>2025-03-30T12:01:18+00:00</time>
      </trkpt>
      <trkpt lat="43.56377" lon="7.11653">
        <ele>9.400391</ele>
        <time>2025-03-30T12:01:19+00:00</time>
      </trkpt>
      <trkpt lat="43.56373" lon="7.11657">
        <ele>9.400391</ele>
        <time>2025-03-30T12:01:20+00:00</time>
      </trkpt>
      <trkpt lat="43.5637" lon="7.11664">
        <ele>9</ele>
        <time>2025-03-30T12:01:21+00:00</time>
      </trkpt>
      <trkpt lat="43.56366" lon="7.1167">
        <ele>8.600586</ele>
        <time>2025-03-30T12:01:22+00:00</time>
      </trkpt>
      <trkpt lat="43.5636" lon="7.11677">
        <ele>8.700195</ele>
        <time>2025-03-30T12:01:23+00:00</time>
      </trkpt>
      <trkpt lat="43.56355" lon="7.11683">
        <ele>8.400391</ele>
        <time>2025-03-30T12:01:24+00:00</time>
      </trkpt>
      <trkpt lat="43.56351" lon="7.11691">
        <ele>8</ele>
        <time>2025-03-30T12:01:25+00:00</time>
      </trkpt>
      <trkpt lat="43.56347" lon="7.11697">
        <ele>7.7001953</ele>
        <time>2025-03-30T12:01:26+00:00</time>
      </trkpt>
      <trkpt lat="43.56343" lon="7.11704">
        <ele>7.9003906</ele>
        <time>2025-03-30T12:01:27+00:00</time>
      </trkpt>
      <trkpt lat="43.56339" lon="7.1171">
        <ele>7.7001953</ele>
        <time>2025-03-30T12:01:28+00:00</time>
      </trkpt>
      <trkpt lat="43.56333" lon="7.11717">
        <ele>7.2998047</ele>
        <time>2025-03-30T12:01:29+00:00</time>
      </trkpt>
      <trkpt lat="43.56329" lon="7.11721">
        <ele>7.5</ele>
        <time>2025-03-30T12:01:30+00:00</time>
      </trkpt>
      <trkpt lat="43.56325" lon="7.11726">
        <ele>7.4003906</ele>
        <time>2025-03-30T12:01:31+00:00</time>
      </trkpt>
      <trkpt lat="43.5632" lon="7.11731">
        <ele>7.100586</ele>
        <time>2025-03-30T12:01:32+00:00</time>
      </trkpt>
      <trkpt lat="43.56316" lon="7.11734">
        <ele>7.100586</ele>
        <time>2025-03-30T12:01:33+00:00</time>
      </trkpt>
      <trkpt lat="43.56312" lon="7.11739">
        <ele>7.100586</ele>
        <time>2025-03-30T12:01:34+00:00</time>
      </trkpt>
      <trkpt lat="43.56307" lon="7.11743">
        <ele>7.100586</ele>
        <time>2025-03-30T12:01:35+00:00</time>
      </trkpt>
      <trkpt lat="43.56302" lon="7.11745">
        <ele>6.7998047</ele>
        <time>2025-03-30T12:01:36+00:00</time>
      </trkpt>
      <trkpt lat="43.56296" lon="7.11746">
        <ele>6.5</ele>
        <time>2025-03-30T12:01:37+00:00</time>
      </trkpt>
      <trkpt lat="43.56291" lon="7.11746">
        <ele>6.4003906</ele>
        <time>2025-03-30T12:01:38+00:00</time>
      </trkpt>
      <trkpt lat="43.56285" lon="7.11746">
        <ele>6.2001953</ele>
        <time>2025-03-30T12:01:39+00:00</time>
      </trkpt>
      <trkpt lat="43.5628" lon="7.11746">
        <ele>6.2001953</ele>
        <time>2025-03-30T12:01:40+00:00</time>
      </trkpt>
      <trkpt lat="43.56275" lon="7.11745">
        <ele>6.100586</ele>
        <time>2025-03-30T12:01:41+00:00</time>
      </trkpt>
      <trkpt lat="43.56269" lon="7.11745">
        <ele>5.9003906</ele>
        <time>2025-03-30T12:01:42+00:00</time>
      </trkpt>
      <trkpt lat="43.56264" lon="7.11745">
        <ele>5.7001953</ele>
        <time>2025-03-30T12:01:43+00:00</time>
      </trkpt>
      <trkpt lat="43.56258" lon="7.11745">
        <ele>5.5</ele>
        <time>2025-03-30T12:01:44+00:00</time>
      </trkpt>
      <trkpt lat="43.56252" lon="7.11747">
        <ele>5.2998047</ele>
        <time>2025-03-30T12:01:45+00:00</time>
      </trkpt>
      <trkpt lat="43.56246" lon="7.11749">
        <ele>5.100586</ele>
        <time>2025-03-30T12:01:46+00:00</time>
      </trkpt>
      <trkpt lat="43.5624" lon="7.11751">
        <ele>5.2998047</ele>
        <time>2025-03-30T12:01:47+00:00</time>
      </trkpt>
      <trkpt lat="43.56234" lon="7.11755">
        <ele>5</ele>
        <time>2025-03-30T12:01:48+00:00</time>
      </trkpt>
      <trkpt lat="43.56228" lon="7.11759">
        <ele>4.7998047</ele>
        <time>2025-03-30T12:01:49+00:00</time>
      </trkpt>
      <trkpt lat="43.56223" lon="7.11764">
        <ele>5</ele>
        <time>2025-03-30T12:01:50+00:00</time>
      </trkpt>
      <trkpt lat="43.56217" lon="7.11768">
        <ele>4.7001953</ele>
        <time>2025-03-30T12:01:51+00:00</time>
      </trkpt>
      <trkpt lat="43.56211" lon="7.11773">
        <ele>4.7998047</ele>
        <time>2025-03-30T12:01:52+00:00</time>
      </trkpt>
      <trkpt lat="43.56205" lon="7.11778">
        <ele>5.100586</ele>
        <time>2025-03-30T12:01:53+00:00</time>
      </trkpt>
      <trkpt lat="43.562" lon="7.11782">
        <ele>4.7998047</ele>
        <time>2025-03-30T12:01:54+00:00</time>
      </trkpt>
      <trkpt lat="43.56195" lon="7.11788">
        <ele>4.7998047</ele>
        <time>2025-03-30T12:01:55+00:00</time>
      </trkpt>
      <trkpt lat="43.56191" lon="7.11792">
        <ele>4.4003906</ele>
        <time>2025-03-30T12:01:56+00:00</time>
      </trkpt>
      <trkpt lat="43.56186" lon="7.11795">
        <ele>4.7001953</ele>
        <time>2025-03-30T12:01:57+00:00</time>
      </trkpt>
      <trkpt lat="43.56182" lon="7.118">
        <ele>4.2998047</ele>
        <time>2025-03-30T12:01:58+00:00</time>
      </trkpt>
      <trkpt lat="43.56177" lon="7.11805">
        <ele>4.100586</ele>
        <time>2025-03-30T12:01:59+00:00</time>
      </trkpt>
      <trkpt lat="43.56173" lon="7.11809">
        <ele>3.600586</ele>
        <time>2025-03-30T12:02:00+00:00</time>
      </trkpt>
      <trkpt lat="43.56169" lon="7.11814">
        <ele>3.7998047</ele>
        <time>2025-03-30T12:02:01+00:00</time>
      </trkpt>
      <trkpt lat="43.56164" lon="7.11819">
        <ele>3.2998047</ele>
        <time>2025-03-30T12:02:02+00:00</time>
      </trkpt>
      <trkpt lat="43.56161" lon="7.11826">
        <ele>3.2998047</ele>
        <time>2025-03-30T12:02:03+00:00</time>
      </trkpt>
      <trkpt lat="43.56158" lon="7.11834">
        <ele>2.600586</ele>
        <time>2025-03-30T12:02:04+00:00</time>
      </trkpt>
      <trkpt lat="43.56157" lon="7.11842">
        <ele>2.2001953</ele>
        <time>2025-03-30T12:02:05+00:00</time>
      </trkpt>
      <trkpt lat="43.56155" lon="7.1185">
        <ele>1</ele>
        <time>2025-03-30T12:02:06+00:00</time>
      </trkpt>
      <trkpt lat="43.56153" lon="7.11858">
        <ele>-0.099609375</ele>
        <time>2025-03-30T12:02:07+00:00</time>
      </trkpt>
      <trkpt lat="43.56151" lon="7.11867">
        <ele>-0.2998047</ele>
        <time>2025-03-30T12:02:08+00:00</time>
      </trkpt>
      <trkpt lat="43.5615" lon="7.11876">
        <ele>3.4</ele>
        <time>2025-03-30T12:02:09+00:00</time>
      </trkpt>
      <trkpt lat="43.56148" lon="7.11884">
        <ele>0.10058594</ele>
        <time>2025-03-30T12:02:10+00:00</time>
      </trkpt>
      <trkpt lat="43.56145" lon="7.11891">
        <ele>0.20019531</ele>
        <time>2025-03-30T12:02:11+00:00</time>
      </trkpt>
      <trkpt lat="43.56142" lon="7.11899">
        <ele>3.5</ele>
        <time>2025-03-30T12:02:12+00:00</time>
      </trkpt>
      <trkpt lat="43.56138" lon="7.11906">
        <ele>1.1005859</ele>
        <time>2025-03-30T12:02:13+00:00</time>
      </trkpt>
      <trkpt lat="43.56133" lon="7.11914">
        <ele>0.40039062</ele>
        <time>2025-03-30T12:02:14+00:00</time>
      </trkpt>
      <trkpt lat="43.56128" lon="7.11922">
        <ele>0.40039062</ele>
        <time>2025-03-30T12:02:15+00:00</time>
      </trkpt>
      <trkpt lat="43.56124" lon="7.11929">
        <ele>0.7001953</ele>
        <time>2025-03-30T12:02:16+00:00</time>
      </trkpt>
      <trkpt lat="43.5612" lon="7.11937">
        <ele>0.5</ele>
        <time>2025-03-30T12:02:17+00:00</time>
      </trkpt>
      <trkpt lat="43.56116" lon="7.11944">
        <ele>1.1005859</ele>
        <time>2025-03-30T12:02:18+00:00</time>
      </trkpt>
      <trkpt lat="43.56111" lon="7.11953">
        <ele>1</ele>
        <time>2025-03-30T12:02:19+00:00</time>
      </trkpt>
      <trkpt lat="43.56107" lon="7.1196">
        <ele>1.5</ele>
        <time>2025-03-30T12:02:20+00:00</time>
      </trkpt>
      <trkpt lat="43.56102" lon="7.11968">
        <ele>1.2001953</ele>
        <time>2025-03-30T12:02:21+00:00</time>
      </trkpt>
      <trkpt lat="43.56097" lon="7.11975">
        <ele>1.9003906</ele>
        <time>2025-03-30T12:02:22+00:00</time>
      </trkpt>
      <trkpt lat="43.56093" lon="7.11982">
        <ele>1.9003906</ele>
        <time>2025-03-30T12:02:23+00:00</time>
      </trkpt>
      <trkpt lat="43.56088" lon="7.11989">
        <ele>1.9003906</ele>
        <time>2025-03-30T12:02:24+00:00</time>
      </trkpt>
      <trkpt lat="43.56083" lon="7.11997">
        <ele>0.7001953</ele>
        <time>2025-03-30T12:02:25+00:00</time>
      </trkpt>
      <trkpt lat="43.56078" lon="7.12003">
        <ele>2.3</ele>
        <time>2025-03-30T12:02:26+00:00</time>
      </trkpt>
      <trkpt lat="43.56074" lon="7.12011">
        <ele>-0.39941406</ele>
        <time>2025-03-30T12:02:27+00:00</time>
      </trkpt>
      <trkpt lat="43.5607" lon="7.12018">
        <ele>-0.39941406</ele>
        <time>2025-03-30T12:02:28+00:00</time>
      </trkpt>
      <trkpt lat="43.56065" lon="7.12025">
        <ele>-0.2998047</ele>
        <time>2025-03-30T12:02:29+00:00</time>
      </trkpt>
      <trkpt lat="43.56061" lon="7.12032">
        <ele>3.3</ele>
        <time>2025-03-30T12:02:30+00:00</time>
      </trkpt>
      <trkpt lat="43.56058" lon="7.12037">
        <ele>3.1</ele>
        <time>2025-03-30T12:02:31+00:00</time>
      </trkpt>
      <trkpt lat="43.56055" lon="7.12042">
        <ele>-0.099609375</ele>
        <time>2025-03-30T12:02:32+00:00</time>
      </trkpt>
      <trkpt lat="43.56052" lon="7.12046">
        <ele>-0.20019531</ele>
        <time>2025-03-30T12:02:33+00:00</time>
      </trkpt>
      <trkpt lat="43.56049" lon="7.12051">
        <ele>-0.20019531</ele>
        <time>2025-03-30T12:02:34+00:00</time>
      </trkpt>
      <trkpt lat="43.56046" lon="7.12055">
        <ele>-0.2998047</ele>
        <time>2025-03-30T12:02:35+00:00</time>
      </trkpt>
      <trkpt lat="43.56042" lon="7.12058">
        <ele>-0.099609375</ele>
        <time>2025-03-30T12:02:36+00:00</time>
      </trkpt>
      <trkpt lat="43.56038" lon="7.12065">
        <ele>3.9</ele>
        <time>2025-03-30T12:02:37+00:00</time>
      </trkpt>
      <trkpt lat="43.56034" lon="7.12074">
        <ele>3.5</ele>
        <time>2025-03-30T12:02:38+00:00</time>
      </trkpt>
      <trkpt lat="43.5603" lon="7.12081">
        <ele>-0.2998047</ele>
        <time>2025-03-30T12:02:39+00:00</time>
      </trkpt>
      <trkpt lat="43.56026" lon="7.12088">
        <ele>-0.39941406</ele>
        <time>2025-03-30T12:02:40+00:00</time>
      </trkpt>
      <trkpt lat="43.56022" lon="7.12094">
        <ele>-0.20019531</ele>
        <time>2025-03-30T12:02:41+00:00</time>
      </trkpt>
      <trkpt lat="43.56018" lon="7.12101">
        <ele>3.9</ele>
        <time>2025-03-30T12:02:42+00:00</time>
      </trkpt>
      <trkpt lat="43.56013" lon="7.12107">
        <ele>0.10058594</ele>
        <time>2025-03-30T12:02:43+00:00</time>
      </trkpt>
      <trkpt lat="43.56009" lon="7.12114">
        <ele>-0.2998047</ele>
        <time>2025-03-30T12:02:44+00:00</time>
      </trkpt>
      <trkpt lat="43.56005" lon="7.12122">
        <ele>-0.20019531</ele>
        <time>2025-03-30T12:02:45+00:00</time>
      </trkpt>
      <trkpt lat="43.56001" lon="7.12129">
        <ele>1.2998047</ele>
        <time>2025-03-30T12:02:46+00:00</time>
      </trkpt>
      <trkpt lat="43.55995" lon="7.12136">
        <ele>1.2998047</ele>
        <time>2025-03-30T12:02:47+00:00</time>
      </trkpt>
      <trkpt lat="43.55991" lon="7.12143">
        <ele>2.7998047</ele>
        <time>2025-03-30T12:02:48+00:00</time>
      </trkpt>
      <trkpt lat="43.55986" lon="7.12148">
        <ele>4</ele>
        <time>2025-03-30T12:02:49+00:00</time>
      </trkpt>
      <trkpt lat="43.5598" lon="7.12154">
        <ele>3.9003906</ele>
        <time>2025-03-30T12:02:50+00:00</time>
      </trkpt>
      <trkpt lat="43.55974" lon="7.1216">
        <ele>4.7998047</ele>
        <time>2025-03-30T12:02:51+00:00</time>
      </trkpt>
      <trkpt lat="43.55968" lon="7.12164">
        <ele>5.5</ele>
        <time>2025-03-30T12:02:52+00:00</time>
      </trkpt>
      <trkpt lat="43.55962" lon="7.12168">
        <ele>4.5</ele>
        <time>2025-03-30T12:02:53+00:00</time>
      </trkpt>
      <trkpt lat="43.55955" lon="7.12172">
        <ele>6</ele>
        <time>2025-03-30T12:02:54+00:00</time>
      </trkpt>
      <trkpt lat="43.55949" lon="7.12175">
        <ele>5.7998047</ele>
        <time>2025-03-30T12:02:55+00:00</time>
      </trkpt>
      <trkpt lat="43.55943" lon="7.12178">
        <ele>5.600586</ele>
        <time>2025-03-30T12:02:56+00:00</time>
      </trkpt>
      <trkpt lat="43.55936" lon="7.1218">
        <ele>7.7001953</ele>
        <time>2025-03-30T12:02:57+00:00</time>
      </trkpt>
      <trkpt lat="43.5593" lon="7.12182">
        <ele>7.7001953</ele>
        <time>2025-03-30T12:02:58+00:00</time>
      </trkpt>
      <trkpt lat="43.55924" lon="7.12182">
        <ele>7.7001953</ele>
        <time>2025-03-30T12:02:59+00:00</time>
      </trkpt>
      <trkpt lat="43.55917" lon="7.12183">
        <ele>7.7001953</ele>
        <time>2025-03-30T12:03:00+00:00</time>
      </trkpt>
      <trkpt lat="43.5591" lon="7.12183">
        <ele>7.600586</ele>
        <time>2025-03-30T12:03:01+00:00</time>
      </trkpt>
      <trkpt lat="43.55903" lon="7.12182">
        <ele>7.600586</ele>
        <time>2025-03-30T12:03:02+00:00</time>
      </trkpt>
      <trkpt lat="43.55897" lon="7.12182">
        <ele>7.600586</ele>
        <time>2025-03-30T12:03:03+00:00</time>
      </trkpt>
      <trkpt lat="43.5589" lon="7.12182">
        <ele>7.600586</ele>
        <time>2025-03-30T12:03:04+00:00</time>
      </trkpt>
      <trkpt lat="43.55884" lon="7.12182">
        <ele>7.600586</ele>
        <time>2025-03-30T12:03:05+00:00</time>
      </trkpt>
      <trkpt lat="43.55878" lon="7.12182">
        <ele>7.600586</ele>
        <time>2025-03-30T12:03:06+00:00</time>
      </trkpt>
      <trkpt lat="43.55872" lon="7.12181">
        <ele>7.600586</ele>
        <time>2025-03-30T12:03:07+00:00</time>
      </trkpt>
      <trkpt lat="43.55866" lon="7.12181">
        <ele>7.600586</ele>
        <time>2025-03-30T12:03:08+00:00</time>
      </trkpt>
      <trkpt lat="43.55861" lon="7.12182">
        <ele>7.600586</ele>
        <time>2025-03-30T12:03:09+00:00</time>
      </trkpt>
      <trkpt lat="43.55856" lon="7.12182">
        <ele>6.7001953</ele>
        <time>2025-03-30T12:03:10+00:00</time>
      </trkpt>
      <trkpt lat="43.55851" lon="7.1218">
        <ele>4.2001953</ele>
        <time>2025-03-30T12:03:11+00:00</time>
      </trkpt>
      <trkpt lat="43.55846" lon="7.1218">
        <ele>2.5</ele>
        <time>2025-03-30T12:03:12+00:00</time>
      </trkpt>
      <trkpt lat="43.5584" lon="7.1218">
        <ele>0.7998047</ele>
        <time>2025-03-30T12:03:13+00:00</time>
      </trkpt>
      <trkpt lat="43.55835" lon="7.12181">
        <ele>5.05</ele>
        <time>2025-03-30T12:03:14+00:00</time>
      </trkpt>
      <trkpt lat="43.55829" lon="7.12183">
        <ele>-0.5</ele>
        <time>2025-03-30T12:03:15+00:00</time>
      </trkpt>
      <trkpt lat="43.55824" lon="7.12183">
        <ele>-0.39941406</ele>
        <time>2025-03-30T12:03:16+00:00</time>
      </trkpt>
      <trkpt lat="43.55818" lon="7.12185">
        <ele>-0.099609375</ele>
        <time>2025-03-30T12:03:17+00:00</time>
      </trkpt>
      <trkpt lat="43.55813" lon="7.12188">
        <ele>2.77</ele>
        <time>2025-03-30T12:03:18+00:00</time>
      </trkpt>
      <trkpt lat="43.55808" lon="7.1219">
        <ele>2.25</ele>
        <time>2025-03-30T12:03:19+00:00</time>
      </trkpt>
      <trkpt lat="43.55803" lon="7.12193">
        <ele>2</ele>
        <time>2025-03-30T12:03:20+00:00</time>
      </trkpt>
      <trkpt lat="43.55798" lon="7.12195">
        <ele>2.1</ele>
        <time>2025-03-30T12:03:21+00:00</time>
      </trkpt>
      <trkpt lat="43.55794" lon="7.12197">
        <ele>2.3</ele>
        <time>2025-03-30T12:03:22+00:00</time>
      </trkpt>
      <trkpt lat="43.55791" lon="7.122">
        <ele>1.7998047</ele>
        <time>2025-03-30T12:03:23+00:00</time>
      </trkpt>
      <trkpt lat="43.55786" lon="7.12203">
        <ele>2.2998047</ele>
        <time>2025-03-30T12:03:24+00:00</time>
      </trkpt>
      <trkpt lat="43.55781" lon="7.12205">
        <ele>3.600586</ele>
        <time>2025-03-30T12:03:25+00:00</time>
      </trkpt>
      <trkpt lat="43.55777" lon="7.12207">
        <ele>5.9003906</ele>
        <time>2025-03-30T12:03:26+00:00</time>
      </trkpt>
      <trkpt lat="43.55771" lon="7.12208">
        <ele>6.5</ele>
        <time>2025-03-30T12:03:27+00:00</time>
      </trkpt>
      <trkpt lat="43.55767" lon="7.12209">
        <ele>6.7998047</ele>
        <time>2025-03-30T12:03:28+00:00</time>
      </trkpt>
      <trkpt lat="43.55763" lon="7.12211">
        <ele>6.7998047</ele>
        <time>2025-03-30T12:03:29+00:00</time>
      </trkpt>
      <trkpt lat="43.55758" lon="7.12212">
        <ele>6.7998047</ele>
        <time>2025-03-30T12:03:30+00:00</time>
      </trkpt>
      <trkpt lat="43.55752" lon="7.12213">
        <ele>6.600586</ele>
        <time>2025-03-30T12:03:31+00:00</time>
      </trkpt>
      <trkpt lat="43.55747" lon="7.12213">
        <ele>6.2998047</ele>
        <time>2025-03-30T12:03:32+00:00</time>
      </trkpt>
      <trkpt lat="43.55742" lon="7.12213">
        <ele>6.2001953</ele>
        <time>2025-03-30T12:03:33+00:00</time>
      </trkpt>
      <trkpt lat="43.55736" lon="7.12212">
        <ele>6.100586</ele>
        <time>2025-03-30T12:03:34+00:00</time>
      </trkpt>
      <trkpt lat="43.55731" lon="7.12212">
        <ele>6</ele>
        <time>2025-03-30T12:03:35+00:00</time>
      </trkpt>
      <trkpt lat="43.55725" lon="7.12211">
        <ele>6</ele>
        <time>2025-03-30T12:03:36+00:00</time>
      </trkpt>
      <trkpt lat="43.55719" lon="7.12209">
        <ele>5.9003906</ele>
        <time>2025-03-30T12:03:37+00:00</time>
      </trkpt>
      <trkpt lat="43.55713" lon="7.12208">
        <ele>5.9003906</ele>
        <time>2025-03-30T12:03:38+00:00</time>
      </trkpt>
      <trkpt lat="43.55708" lon="7.12204">
        <ele>4.7998047</ele>
        <time>2025-03-30T12:03:39+00:00</time>
      </trkpt>
      <trkpt lat="43.55702" lon="7.12202">
        <ele>4.9003906</ele>
        <time>2025-03-30T12:03:40+00:00</time>
      </trkpt>
      <trkpt lat="43.55697" lon="7.12199">
        <ele>5.100586</ele>
        <time>2025-03-30T12:03:41+00:00</time>
      </trkpt>
      <trkpt lat="43.55692" lon="7.12196">
        <ele>4.7998047</ele>
        <time>2025-03-30T12:03:42+00:00</time>
      </trkpt>
      <trkpt lat="43.55687" lon="7.12193">
        <ele>5.2998047</ele>
        <time>2025-03-30T12:03:43+00:00</time>
      </trkpt>
      <trkpt lat="43.55681" lon="7.12189">
        <ele>5.7001953</ele>
        <time>2025-03-30T12:03:44+00:00</time>
      </trkpt>
      <trkpt lat="43.55676" lon="7.12185">
        <ele>5</ele>
        <time>2025-03-30T12:03:45+00:00</time>
      </trkpt>
      <trkpt lat="43.55671" lon="7.12182">
        <ele>5</ele>
        <time>2025-03-30T12:03:46+00:00</time>
      </trkpt>
      <trkpt lat="43.55665" lon="7.12179">
        <ele>4.2998047</ele>
        <time>2025-03-30T12:03:47+00:00</time>
      </trkpt>
      <trkpt lat="43.5566" lon="7.12174">
        <ele>4.5</ele>
        <time>2025-03-30T12:03:48+00:00</time>
      </trkpt>
      <trkpt lat="43.55654" lon="7.12169">
        <ele>3.9003906</ele>
        <time>2025-03-30T12:03:49+00:00</time>
      </trkpt>
      <trkpt lat="43.55649" lon="7.12165">
        <ele>4.2998047</ele>
        <time>2025-03-30T12:03:50+00:00</time>
      </trkpt>
      <trkpt lat="43.55643" lon="7.12162">
        <ele>3.7998047</ele>
        <time>2025-03-30T12:03:51+00:00</time>
      </trkpt>
      <trkpt lat="43.55638" lon="7.12156">
        <ele>4.4003906</ele>
        <time>2025-03-30T12:03:52+00:00</time>
      </trkpt>
      <trkpt lat="43.55632" lon="7.12153">
        <ele>3.600586</ele>
        <time>2025-03-30T12:03:53+00:00</time>
      </trkpt>
      <trkpt lat="43.55627" lon="7.12149">
        <ele>4.100586</ele>
        <time>2025-03-30T12:03:54+00:00</time>
      </trkpt>
      <trkpt lat="43.55622" lon="7.12145">
        <ele>3.600586</ele>
        <time>2025-03-30T12:03:55+00:00</time>
      </trkpt>
      <trkpt lat="43.55617" lon="7.12141">
        <ele>3.7001953</ele>
        <time>2025-03-30T12:03:56+00:00</time>
      </trkpt>
      <trkpt lat="43.55611" lon="7.12137">
        <ele>2.7998047</ele>
        <time>2025-03-30T12:03:57+00:00</time>
      </trkpt>
      <trkpt lat="43.55605" lon="7.12134">
        <ele>2.9003906</ele>
        <time>2025-03-30T12:03:58+00:00</time>
      </trkpt>
      <trkpt lat="43.556" lon="7.12131">
        <ele>2.9003906</ele>
        <time>2025-03-30T12:03:59+00:00</time>
      </trkpt>
      <trkpt lat="43.55595" lon="7.12129">
        <ele>2.9003906</ele>
        <time>2025-03-30T12:04:00+00:00</time>
      </trkpt>
      <trkpt lat="43.55589" lon="7.12128">
        <ele>1.5</ele>
        <time>2025-03-30T12:04:01+00:00</time>
      </trkpt>
      <trkpt lat="43.55583" lon="7.12126">
        <ele>1.5</ele>
        <time>2025-03-30T12:04:02+00:00</time>
      </trkpt>
      <trkpt lat="43.55577" lon="7.12125">
        <ele>1.7998047</ele>
        <time>2025-03-30T12:04:03+00:00</time>
      </trkpt>
      <trkpt lat="43.55571" lon="7.12125">
        <ele>2.4003906</ele>
        <time>2025-03-30T12:04:04+00:00</time>
      </trkpt>
      <trkpt lat="43.55566" lon="7.12125">
        <ele>3</ele>
        <time>2025-03-30T12:04:05+00:00</time>
      </trkpt>
      <trkpt lat="43.5556" lon="7.12125">
        <ele>3.100586</ele>
        <time>2025-03-30T12:04:06+00:00</time>
      </trkpt>
      <trkpt lat="43.55554" lon="7.12124">
        <ele>2.7001953</ele>
        <time>2025-03-30T12:04:07+00:00</time>
      </trkpt>
      <trkpt lat="43.55548" lon="7.12123">
        <ele>2</ele>
        <time>2025-03-30T12:04:08+00:00</time>
      </trkpt>
      <trkpt lat="43.55543" lon="7.12123">
        <ele>1.2998047</ele>
        <time>2025-03-30T12:04:09+00:00</time>
      </trkpt>
      <trkpt lat="43.55537" lon="7.12124">
        <ele>0.7998047</ele>
        <time>2025-03-30T12:04:10+00:00</time>
      </trkpt>
      <trkpt lat="43.55531" lon="7.12127">
        <ele>0.40039062</ele>
        <time>2025-03-30T12:04:11+00:00</time>
      </trkpt>
      <trkpt lat="43.55527" lon="7.12132">
        <ele>0.40039062</ele>
        <time>2025-03-30T12:04:12+00:00</time>
      </trkpt>
      <trkpt lat="43.55522" lon="7.12137">
        <ele>0.40039062</ele>
        <time>2025-03-30T12:04:13+00:00</time>
      </trkpt>
      <trkpt lat="43.55518" lon="7.12144">
        <ele>3.4</ele>
        <time>2025-03-30T12:04:14+00:00</time>
      </trkpt>
      <trkpt lat="43.55516" lon="7.12153">
        <ele>0.2998047</ele>
        <time>2025-03-30T12:04:15+00:00</time>
      </trkpt>
      <trkpt lat="43.55512" lon="7.12159">
        <ele>0.9003906</ele>
        <time>2025-03-30T12:04:16+00:00</time>
      </trkpt>
      <trkpt lat="43.55509" lon="7.12167">
        <ele>2</ele>
        <time>2025-03-30T12:04:17+00:00</time>
      </trkpt>
      <trkpt lat="43.55506" lon="7.12174">
        <ele>1.2998047</ele>
        <time>2025-03-30T12:04:18+00:00</time>
      </trkpt>
      <trkpt lat="43.55502" lon="7.12182">
        <ele>2.100586</ele>
        <time>2025-03-30T12:04:19+00:00</time>
      </trkpt>
      <trkpt lat="43.55499" lon="7.1219">
        <ele>2.4003906</ele>
        <time>2025-03-30T12:04:20+00:00</time>
      </trkpt>
      <trkpt lat="43.55496" lon="7.12197">
        <ele>2.4003906</ele>
        <time>2025-03-30T12:04:21+00:00</time>
      </trkpt>
      <trkpt lat="43.55492" lon="7.12203">
        <ele>2.7998047</ele>
        <time>2025-03-30T12:04:22+00:00</time>
      </trkpt>
      <trkpt lat="43.55488" lon="7.12209">
        <ele>2</ele>
        <time>2025-03-30T12:04:23+00:00</time>
      </trkpt>
      <trkpt lat="43.55485" lon="7.12215">
        <ele>2.9003906</ele>
        <time>2025-03-30T12:04:24+00:00</time>
      </trkpt>
      <trkpt lat="43.55481" lon="7.1222">
        <ele>1.7001953</ele>
        <time>2025-03-30T12:04:25+00:00</time>
      </trkpt>
      <trkpt lat="43.55476" lon="7.12225">
        <ele>2.5</ele>
        <time>2025-03-30T12:04:26+00:00</time>
      </trkpt>
      <trkpt lat="43.55471" lon="7.12229">
        <ele>2.5</ele>
        <time>2025-03-30T12:04:27+00:00</time>
      </trkpt>
      <trkpt lat="43.55466" lon="7.12233">
        <ele>3.5</ele>
        <time>2025-03-30T12:04:28+00:00</time>
      </trkpt>
      <trkpt lat="43.55461" lon="7.12236">
        <ele>3.2998047</ele>
        <time>2025-03-30T12:04:29+00:00</time>
      </trkpt>
      <trkpt lat="43.55455" lon="7.1224">
        <ele>3.100586</ele>
        <time>2025-03-30T12:04:30+00:00</time>
      </trkpt>
      <trkpt lat="43.5545" lon="7.12242">
        <ele>3.7001953</ele>
        <time>2025-03-30T12:04:31+00:00</time>
      </trkpt>
      <trkpt lat="43.55444" lon="7.12244">
        <ele>3.600586</ele>
        <time>2025-03-30T12:04:32+00:00</time>
      </trkpt>
      <trkpt lat="43.55438" lon="7.12247">
        <ele>3.5</ele>
        <time>2025-03-30T12:04:33+00:00</time>
      </trkpt>
      <trkpt lat="43.55432" lon="7.12249">
        <ele>3.5</ele>
        <time>2025-03-30T12:04:34+00:00</time>
      </trkpt>
      <trkpt lat="43.55426" lon="7.1225">
        <ele>4.100586</ele>
        <time>2025-03-30T12:04:35+00:00</time>
      </trkpt>
      <trkpt lat="43.55419" lon="7.12252">
        <ele>4.100586</ele>
        <time>2025-03-30T12:04:36+00:00</time>
      </trkpt>
      <trkpt lat="43.55413" lon="7.12252">
        <ele>4.100586</ele>
        <time>2025-03-30T12:04:37+00:00</time>
      </trkpt>
      <trkpt lat="43.55406" lon="7.12252">
        <ele>4.2001953</ele>
        <time>2025-03-30T12:04:38+00:00</time>
      </trkpt>
      <trkpt lat="43.55401" lon="7.1225">
        <ele>4.2998047</ele>
        <time>2025-03-30T12:04:39+00:00</time>
      </trkpt>
      <trkpt lat="43.55395" lon="7.12248">
        <ele>4</ele>
        <time>2025-03-30T12:04:40+00:00</time>
      </trkpt>
      <trkpt lat="43.5539" lon="7.12244">
        <ele>4</ele>
        <time>2025-03-30T12:04:41+00:00</time>
      </trkpt>
      <trkpt lat="43.55386" lon="7.1224">
        <ele>4.2001953</ele>
        <time>2025-03-30T12:04:42+00:00</time>
      </trkpt>
      <trkpt lat="43.55381" lon="7.12236">
        <ele>4.100586</ele>
        <time>2025-03-30T12:04:43+00:00</time>
      </trkpt>
      <trkpt lat="43.55377" lon="7.12232">
        <ele>4.4003906</ele>
        <time>2025-03-30T12:04:44+00:00</time>
      </trkpt>
      <trkpt lat="43.55374" lon="7.12228">
        <ele>3.9003906</ele>
        <time>2025-03-30T12:04:45+00:00</time>
      </trkpt>
      <trkpt lat="43.55369" lon="7.12225">
        <ele>4.100586</ele>
        <time>2025-03-30T12:04:46+00:00</time>
      </trkpt>
      <trkpt lat="43.55366" lon="7.12222">
        <ele>3.5</ele>
        <time>2025-03-30T12:04:47+00:00</time>
      </trkpt>
      <trkpt lat="43.55361" lon="7.12219">
        <ele>3.7001953</ele>
        <time>2025-03-30T12:04:48+00:00</time>
      </trkpt>
      <trkpt lat="43.55356" lon="7.12216">
        <ele>3.7998047</ele>
        <time>2025-03-30T12:04:49+00:00</time>
      </trkpt>
      <trkpt lat="43.5535" lon="7.12215">
        <ele>3.9003906</ele>
        <time>2025-03-30T12:04:50+00:00</time>
      </trkpt>
      <trkpt lat="43.55345" lon="7.12213">
        <ele>3.2001953</ele>
        <time>2025-03-30T12:04:51+00:00</time>
      </trkpt>
      <trkpt lat="43.5534" lon="7.12213">
        <ele>3.2001953</ele>
        <time>2025-03-30T12:04:52+00:00</time>
      </trkpt>
      <trkpt lat="43.55334" lon="7.12213">
        <ele>3.2001953</ele>
        <time>2025-03-30T12:04:53+00:00</time>
      </trkpt>
      <trkpt lat="43.55329" lon="7.12215">
        <ele>4.100586</ele>
        <time>2025-03-30T12:04:54+00:00</time>
      </trkpt>
      <trkpt lat="43.55323" lon="7.12215">
        <ele>4.100586</ele>
        <time>2025-03-30T12:04:55+00:00</time>
      </trkpt>
      <trkpt lat="43.55318" lon="7.12217">
        <ele>4</ele>
        <time>2025-03-30T12:04:56+00:00</time>
      </trkpt>
      <trkpt lat="43.55313" lon="7.1222">
        <ele>4</ele>
        <time>2025-03-30T12:04:57+00:00</time>
      </trkpt>
      <trkpt lat="43.55307" lon="7.12222">
        <ele>4</ele>
        <time>2025-03-30T12:04:58+00:00</time>
      </trkpt>
      <trkpt lat="43.55301" lon="7.12224">
        <ele>4.7001953</ele>
        <time>2025-03-30T12:04:59+00:00</time>
      </trkpt>
      <trkpt lat="43.55297" lon="7.12226">
        <ele>4.7001953</ele>
        <time>2025-03-30T12:05:00+00:00</time>
      </trkpt>
      <trkpt lat="43.55292" lon="7.12227">
        <ele>4.7001953</ele>
        <time>2025-03-30T12:05:01+00:00</time>
      </trkpt>
      <trkpt lat="43.55286" lon="7.12228">
        <ele>4.7001953</ele>
        <time>2025-03-30T12:05:02+00:00</time>
      </trkpt>
      <trkpt lat="43.55281" lon="7.12229">
        <ele>4.7001953</ele>
        <time>2025-03-30T12:05:03+00:00</time>
      </trkpt>
      <trkpt lat="43.55275" lon="7.12229">
        <ele>4.7001953</ele>
        <time>2025-03-30T12:05:04+00:00</time>
      </trkpt>
      <trkpt lat="43.5527" lon="7.12229">
        <ele>4.7001953</ele>
        <time>2025-03-30T12:05:05+00:00</time>
      </trkpt>
      <trkpt lat="43.55264" lon="7.12228">
        <ele>4.7998047</ele>
        <time>2025-03-30T12:05:06+00:00</time>
      </trkpt>
      <trkpt lat="43.55259" lon="7.12227">
        <ele>4.9003906</ele>
        <time>2025-03-30T12:05:07+00:00</time>
      </trkpt>
      <trkpt lat="43.55253" lon="7.12224">
        <ele>4.9003906</ele>
        <time>2025-03-30T12:05:08+00:00</time>
      </trkpt>
      <trkpt lat="43.55249" lon="7.12221">
        <ele>4.100586</ele>
        <time>2025-03-30T12:05:09+00:00</time>
      </trkpt>
      <trkpt lat="43.55244" lon="7.12217">
        <ele>4.2998047</ele>
        <time>2025-03-30T12:05:10+00:00</time>
      </trkpt>
      <trkpt lat="43.5524" lon="7.12214">
        <ele>3</ele>
        <time>2025-03-30T12:05:11+00:00</time>
      </trkpt>
      <trkpt lat="43.55236" lon="7.1221">
        <ele>3</ele>
        <time>2025-03-30T12:05:12+00:00</time>
      </trkpt>
      <trkpt lat="43.55231" lon="7.12206">
        <ele>3.100586</ele>
        <time>2025-03-30T12:05:13+00:00</time>
      </trkpt>
      <trkpt lat="43.55227" lon="7.12202">
        <ele>1.5</ele>
        <time>2025-03-30T12:05:14+00:00</time>
      </trkpt>
      <trkpt lat="43.55223" lon="7.12197">
        <ele>0.10058594</ele>
        <time>2025-03-30T12:05:15+00:00</time>
      </trkpt>
      <trkpt lat="43.55219" lon="7.12191">
        <ele>1</ele>
        <time>2025-03-30T12:05:16+00:00</time>
      </trkpt>
      <trkpt lat="43.55216" lon="7.12184">
        <ele>1.5</ele>
        <time>2025-03-30T12:05:17+00:00</time>
      </trkpt>
      <trkpt lat="43.55212" lon="7.12177">
        <ele>0.7001953</ele>
        <time>2025-03-30T12:05:18+00:00</time>
      </trkpt>
      <trkpt lat="43.55209" lon="7.12169">
        <ele>0.2998047</ele>
        <time>2025-03-30T12:05:19+00:00</time>
      </trkpt>
      <trkpt lat="43.55207" lon="7.12162">
        <ele>2.9</ele>
        <time>2025-03-30T12:05:20+00:00</time>
      </trkpt>
      <trkpt lat="43.55205" lon="7.12154">
        <ele>3.4</ele>
        <time>2025-03-30T12:05:21+00:00</time>
      </trkpt>
      <trkpt lat="43.55203" lon="7.12148">
        <ele>3.7</ele>
        <time>2025-03-30T12:05:22+00:00</time>
      </trkpt>
      <trkpt lat="43.55202" lon="7.12141">
        <ele>3.9</ele>
        <time>2025-03-30T12:05:23+00:00</time>
      </trkpt>
      <trkpt lat="43.55198" lon="7.12137">
        <ele>3.8</ele>
        <time>2025-03-30T12:05:24+00:00</time>
      </trkpt>
      <trkpt lat="43.55192" lon="7.12135">
        <ele>3.6</ele>
        <time>2025-03-30T12:05:25+00:00</time>
      </trkpt>
      <trkpt lat="43.55187" lon="7.12131">
        <ele>3.4</ele>
        <time>2025-03-30T12:05:26+00:00</time>
      </trkpt>
      <trkpt lat="43.55182" lon="7.12132">
        <ele>3.6</ele>
        <time>2025-03-30T12:05:27+00:00</time>
      </trkpt>
      <trkpt lat="43.55177" lon="7.12131">
        <ele>0.20019531</ele>
        <time>2025-03-30T12:05:28+00:00</time>
      </trkpt>
      <trkpt lat="43.55171" lon="7.12128">
        <ele>0.7001953</ele>
        <time>2025-03-30T12:05:29+00:00</time>
      </trkpt>
      <trkpt lat="43.55166" lon="7.12125">
        <ele>1.2998047</ele>
        <time>2025-03-30T12:05:30+00:00</time>
      </trkpt>
      <trkpt lat="43.5516" lon="7.12123">
        <ele>1.2998047</ele>
        <time>2025-03-30T12:05:31+00:00</time>
      </trkpt>
      <trkpt lat="43.55155" lon="7.12122">
        <ele>1.9003906</ele>
        <time>2025-03-30T12:05:32+00:00</time>
      </trkpt>
      <trkpt lat="43.55149" lon="7.12121">
        <ele>2.4003906</ele>
        <time>2025-03-30T12:05:33+00:00</time>
      </trkpt>
      <trkpt lat="43.55143" lon="7.1212">
        <ele>1.4003906</ele>
        <time>2025-03-30T12:05:34+00:00</time>
      </trkpt>
      <trkpt lat="43.55137" lon="7.12118">
        <ele>1.6005859</ele>
        <time>2025-03-30T12:05:35+00:00</time>
      </trkpt>
      <trkpt lat="43.55133" lon="7.12115">
        <ele>1.7998047</ele>
        <time>2025-03-30T12:05:36+00:00</time>
      </trkpt>
      <trkpt lat="43.55131" lon="7.12109">
        <ele>0.40039062</ele>
        <time>2025-03-30T12:05:37+00:00</time>
      </trkpt>
      <trkpt lat="43.55128" lon="7.12104">
        <ele>1.4003906</ele>
        <time>2025-03-30T12:05:38+00:00</time>
      </trkpt>
      <trkpt lat="43.55125" lon="7.12098">
        <ele>1</ele>
        <time>2025-03-30T12:05:39+00:00</time>
      </trkpt>
      <trkpt lat="43.55122" lon="7.12092">
        <ele>2.2001953</ele>
        <time>2025-03-30T12:05:40+00:00</time>
      </trkpt>
      <trkpt lat="43.55119" lon="7.12085">
        <ele>2</ele>
        <time>2025-03-30T12:05:41+00:00</time>
      </trkpt>
      <trkpt lat="43.55114" lon="7.12077">
        <ele>2.7001953</ele>
        <time>2025-03-30T12:05:42+00:00</time>
      </trkpt>
      <trkpt lat="43.55111" lon="7.12069">
        <ele>2.7001953</ele>
        <time>2025-03-30T12:05:43+00:00</time>
      </trkpt>
      <trkpt lat="43.55108" lon="7.12062">
        <ele>2.600586</ele>
        <time>2025-03-30T12:05:44+00:00</time>
      </trkpt>
      <trkpt lat="43.55106" lon="7.12054">
        <ele>1.5</ele>
        <time>2025-03-30T12:05:45+00:00</time>
      </trkpt>
      <trkpt lat="43.55104" lon="7.12046">
        <ele>0.40039062</ele>
        <time>2025-03-30T12:05:46+00:00</time>
      </trkpt>
      <trkpt lat="43.55103" lon="7.12037">
        <ele>1.2998047</ele>
        <time>2025-03-30T12:05:47+00:00</time>
      </trkpt>
      <trkpt lat="43.55103" lon="7.1203">
        <ele>1.1005859</ele>
        <time>2025-03-30T12:05:48+00:00</time>
      </trkpt>
      <trkpt lat="43.55104" lon="7.12022">
        <ele>-0.2998047</ele>
        <time>2025-03-30T12:05:49+00:00</time>
      </trkpt>
      <trkpt lat="43.55104" lon="7.12016">
        <ele>1.4003906</ele>
        <time>2025-03-30T12:05:50+00:00</time>
      </trkpt>
      <trkpt lat="43.55105" lon="7.1201">
        <ele>2.3</ele>
        <time>2025-03-30T12:05:51+00:00</time>
      </trkpt>
      <trkpt lat="43.55106" lon="7.12002">
        <ele>0.7001953</ele>
        <time>2025-03-30T12:05:52+00:00</time>
      </trkpt>
      <trkpt lat="43.55106" lon="7.11995">
        <ele>1.9003906</ele>
        <time>2025-03-30T12:05:53+00:00</time>
      </trkpt>
      <trkpt lat="43.55107" lon="7.11988">
        <ele>3.100586</ele>
        <time>2025-03-30T12:05:54+00:00</time>
      </trkpt>
      <trkpt lat="43.55108" lon="7.11982">
        <ele>3.600586</ele>
        <time>2025-03-30T12:05:55+00:00</time>
      </trkpt>
      <trkpt lat="43.55109" lon="7.11975">
        <ele>3.600586</ele>
        <time>2025-03-30T12:05:56+00:00</time>
      </trkpt>
      <trkpt lat="43.5511" lon="7.1197">
        <ele>3.7001953</ele>
        <time>2025-03-30T12:05:57+00:00</time>
      </trkpt>
      <trkpt lat="43.55112" lon="7.11966">
        <ele>2.7001953</ele>
        <time>2025-03-30T12:05:58+00:00</time>
      </trkpt>
      <trkpt lat="43.55114" lon="7.11958">
        <ele>2.7998047</ele>
        <time>2025-03-30T12:05:59+00:00</time>
      </trkpt>
      <trkpt lat="43.55114" lon="7.11951">
        <ele>2.9003906</ele>
        <time>2025-03-30T12:06:00+00:00</time>
      </trkpt>
      <trkpt lat="43.55114" lon="7.11945">
        <ele>2.9003906</ele>
        <time>2025-03-30T12:06:01+00:00</time>
      </trkpt>
      <trkpt lat="43.55112" lon="7.11938">
        <ele>2.7998047</ele>
        <time>2025-03-30T12:06:02+00:00</time>
      </trkpt>
      <trkpt lat="43.55108" lon="7.11931">
        <ele>3.2001953</ele>
        <time>2025-03-30T12:06:03+00:00</time>
      </trkpt>
      <trkpt lat="43.55104" lon="7.11922">
        <ele>2.7001953</ele>
        <time>2025-03-30T12:06:04+00:00</time>
      </trkpt>
      <trkpt lat="43.551" lon="7.11915">
        <ele>3.5</ele>
        <time>2025-03-30T12:06:05+00:00</time>
      </trkpt>
      <trkpt lat="43.55096" lon="7.1191">
        <ele>3.7001953</ele>
        <time>2025-03-30T12:06:06+00:00</time>
      </trkpt>
      <trkpt lat="43.55091" lon="7.11905">
        <ele>3.7998047</ele>
        <time>2025-03-30T12:06:07+00:00</time>
      </trkpt>
      <trkpt lat="43.55086" lon="7.11901">
        <ele>3.7998047</ele>
        <time>2025-03-30T12:06:08+00:00</time>
      </trkpt>
      <trkpt lat="43.55081" lon="7.11896">
        <ele>4</ele>
        <time>2025-03-30T12:06:09+00:00</time>
      </trkpt>
      <trkpt lat="43.55076" lon="7.11894">
        <ele>5</ele>
        <time>2025-03-30T12:06:10+00:00</time>
      </trkpt>
      <trkpt lat="43.55071" lon="7.1189">
        <ele>6.100586</ele>
        <time>2025-03-30T12:06:11+00:00</time>
      </trkpt>
      <trkpt lat="43.55065" lon="7.11888">
        <ele>5.7001953</ele>
        <time>2025-03-30T12:06:12+00:00</time>
      </trkpt>
      <trkpt lat="43.55059" lon="7.11886">
        <ele>6.2998047</ele>
        <time>2025-03-30T12:06:13+00:00</time>
      </trkpt>
      <trkpt lat="43.55055" lon="7.11884">
        <ele>6.2998047</ele>
        <time>2025-03-30T12:06:14+00:00</time>
      </trkpt>
      <trkpt lat="43.55048" lon="7.11882">
        <ele>6.7998047</ele>
        <time>2025-03-30T12:06:15+00:00</time>
      </trkpt>
      <trkpt lat="43.55042" lon="7.1188">
        <ele>7.100586</ele>
        <time>2025-03-30T12:06:16+00:00</time>
      </trkpt>
      <trkpt lat="43.55036" lon="7.11877">
        <ele>6.2998047</ele>
        <time>2025-03-30T12:06:17+00:00</time>
      </trkpt>
      <trkpt lat="43.5503" lon="7.11875">
        <ele>7</ele>
        <time>2025-03-30T12:06:18+00:00</time>
      </trkpt>
      <trkpt lat="43.55025" lon="7.11872">
        <ele>7.7001953</ele>
        <time>2025-03-30T12:06:19+00:00</time>
      </trkpt>
      <trkpt lat="43.5502" lon="7.1187">
        <ele>7.9003906</ele>
        <time>2025-03-30T12:06:20+00:00</time>
      </trkpt>
      <trkpt lat="43.55013" lon="7.11866">
        <ele>8.5</ele>
        <time>2025-03-30T12:06:21+00:00</time>
      </trkpt>
      <trkpt lat="43.55008" lon="7.11864">
        <ele>8.799805</ele>
        <time>2025-03-30T12:06:22+00:00</time>
      </trkpt>
      <trkpt lat="43.55003" lon="7.11862">
        <ele>8</ele>
        <time>2025-03-30T12:06:23+00:00</time>
      </trkpt>
      <trkpt lat="43.54997" lon="7.11859">
        <ele>8.100586</ele>
        <time>2025-03-30T12:06:24+00:00</time>
      </trkpt>
      <trkpt lat="43.54992" lon="7.11854">
        <ele>8.299805</ele>
        <time>2025-03-30T12:06:25+00:00</time>
      </trkpt>
      <trkpt lat="43.54986" lon="7.1185">
        <ele>7.2998047</ele>
        <time>2025-03-30T12:06:26+00:00</time>
      </trkpt>
      <trkpt lat="43.54981" lon="7.11846">
        <ele>7.7998047</ele>
        <time>2025-03-30T12:06:27+00:00</time>
      </trkpt>
      <trkpt lat="43.54977" lon="7.11842">
        <ele>7.600586</ele>
        <time>2025-03-30T12:06:28+00:00</time>
      </trkpt>
      <trkpt lat="43.54975" lon="7.11837">
        <ele>7.600586</ele>
        <time>2025-03-30T12:06:29+00:00</time>
      </trkpt>
      <trkpt lat="43.54971" lon="7.11832">
        <ele>7</ele>
        <time>2025-03-30T12:06:30+00:00</time>
      </trkpt>
      <trkpt lat="43.54967" lon="7.11827">
        <ele>5.2001953</ele>
        <time>2025-03-30T12:06:31+00:00</time>
      </trkpt>
      <trkpt lat="43.54964" lon="7.11823">
        <ele>5.600586</ele>
        <time>2025-03-30T12:06:32+00:00</time>
      </trkpt>
      <trkpt lat="43.5496" lon="7.11819">
        <ele>3.9003906</ele>
        <time>2025-03-30T12:06:33+00:00</time>
      </trkpt>
      <trkpt lat="43.54955" lon="7.11818">
        <ele>3.9003906</ele>
        <time>2025-03-30T12:06:34+00:00</time>
      </trkpt>
      <trkpt lat="43.54951" lon="7.11817">
        <ele>4.7998047</ele>
        <time>2025-03-30T12:06:35+00:00</time>
      </trkpt>
      <trkpt lat="43.54946" lon="7.11818">
        <ele>5.600586</ele>
        <time>2025-03-30T12:06:36+00:00</time>
      </trkpt>
      <trkpt lat="43.54941" lon="7.11821">
        <ele>6.7998047</ele>
        <time>2025-03-30T12:06:37+00:00</time>
      </trkpt>
      <trkpt lat="43.54937" lon="7.11825">
        <ele>6.7998047</ele>
        <time>2025-03-30T12:06:38+00:00</time>
      </trkpt>
      <trkpt lat="43.54934" lon="7.11829">
        <ele>7.7001953</ele>
        <time>2025-03-30T12:06:39+00:00</time>
      </trkpt>
      <trkpt lat="43.54932" lon="7.11835">
        <ele>7.7001953</ele>
        <time>2025-03-30T12:06:40+00:00</time>
      </trkpt>
      <trkpt lat="43.54931" lon="7.1184">
        <ele>8.5</ele>
        <time>2025-03-30T12:06:41+00:00</time>
      </trkpt>
      <trkpt lat="43.5493" lon="7.11845">
        <ele>8.5</ele>
        <time>2025-03-30T12:06:42+00:00</time>
      </trkpt>
      <trkpt lat="43.54931" lon="7.1185">
        <ele>9.299805</ele>
        <time>2025-03-30T12:06:43+00:00</time>
      </trkpt>
      <trkpt lat="43.54934" lon="7.11855">
        <ele>10.100586</ele>
        <time>2025-03-30T12:06:44+00:00</time>
      </trkpt>
      <trkpt lat="43.54936" lon="7.1186">
        <ele>9.900391</ele>
        <time>2025-03-30T12:06:45+00:00</time>
      </trkpt>
      <trkpt lat="43.54939" lon="7.11864">
        <ele>10.700195</ele>
        <time>2025-03-30T12:06:46+00:00</time>
      </trkpt>
      <trkpt lat="43.54942" lon="7.11868">
        <ele>10.400391</ele>
        <time>2025-03-30T12:06:47+00:00</time>
      </trkpt>
      <trkpt lat="43.54946" lon="7.11872">
        <ele>11.200195</ele>
        <time>2025-03-30T12:06:48+00:00</time>
      </trkpt>
      <trkpt lat="43.54949" lon="7.11876">
        <ele>11</ele>
        <time>2025-03-30T12:06:49+00:00</time>
      </trkpt>
      <trkpt lat="43.54951" lon="7.1188">
        <ele>11</ele>
        <time>2025-03-30T12:06:50+00:00</time>
      </trkpt>
      <trkpt lat="43.54954" lon="7.11886">
        <ele>11.799805</ele>
        <time>2025-03-30T12:06:52+00:00</time>
      </trkpt>
      <trkpt lat="43.54956" lon="7.1189">
        <ele>12.299805</ele>
        <time>2025-03-30T12:06:53+00:00</time>
      </trkpt>
      <trkpt lat="43.5496" lon="7.11894">
        <ele>12.299805</ele>
        <time>2025-03-30T12:06:54+00:00</time>
      </trkpt>
      <trkpt lat="43.54961" lon="7.11898">
        <ele>13</ele>
        <time>2025-03-30T12:06:55+00:00</time>
      </trkpt>
      <trkpt lat="43.54962" lon="7.11903">
        <ele>12.799805</ele>
        <time>2025-03-30T12:06:56+00:00</time>
      </trkpt>
      <trkpt lat="43.54963" lon="7.11907">
        <ele>13.5</ele>
        <time>2025-03-30T12:06:57+00:00</time>
      </trkpt>
      <trkpt lat="43.54963" lon="7.11915">
        <ele>14.100586</ele>
        <time>2025-03-30T12:06:59+00:00</time>
      </trkpt>
      <trkpt lat="43.54963" lon="7.11919">
        <ele>14.100586</ele>
        <time>2025-03-30T12:07:00+00:00</time>
      </trkpt>
      <trkpt lat="43.54963" lon="7.11924">
        <ele>14.700195</ele>
        <time>2025-03-30T12:07:01+00:00</time>
      </trkpt>
      <trkpt lat="43.54962" lon="7.11929">
        <ele>14.700195</ele>
        <time>2025-03-30T12:07:02+00:00</time>
      </trkpt>
      <trkpt lat="43.54962" lon="7.11933">
        <ele>15.200195</ele>
        <time>2025-03-30T12:07:03+00:00</time>
      </trkpt>
      <trkpt lat="43.5496" lon="7.11938">
        <ele>15.5</ele>
        <time>2025-03-30T12:07:04+00:00</time>
      </trkpt>
      <trkpt lat="43.54959" lon="7.11942">
        <ele>16</ele>
        <time>2025-03-30T12:07:06+00:00</time>
      </trkpt>
      <trkpt lat="43.54957" lon="7.11946">
        <ele>16</ele>
        <time>2025-03-30T12:07:07+00:00</time>
      </trkpt>
      <trkpt lat="43.54955" lon="7.1195">
        <ele>16.40039</ele>
        <time>2025-03-30T12:07:08+00:00</time>
      </trkpt>
      <trkpt lat="43.54953" lon="7.11952">
        <ele>16.799805</ele>
        <time>2025-03-30T12:07:09+00:00</time>
      </trkpt>
      <trkpt lat="43.54951" lon="7.11955">
        <ele>16.799805</ele>
        <time>2025-03-30T12:07:10+00:00</time>
      </trkpt>
      <trkpt lat="43.5495" lon="7.1196">
        <ele>17.100586</ele>
        <time>2025-03-30T12:07:11+00:00</time>
      </trkpt>
      <trkpt lat="43.54948" lon="7.11964">
        <ele>17.100586</ele>
        <time>2025-03-30T12:07:12+00:00</time>
      </trkpt>
      <trkpt lat="43.54945" lon="7.1197">
        <ele>17.90039</ele>
        <time>2025-03-30T12:07:14+00:00</time>
      </trkpt>
      <trkpt lat="43.54943" lon="7.11973">
        <ele>17.90039</ele>
        <time>2025-03-30T12:07:15+00:00</time>
      </trkpt>
      <trkpt lat="43.54941" lon="7.11976">
        <ele>18.700195</ele>
        <time>2025-03-30T12:07:16+00:00</time>
      </trkpt>
      <trkpt lat="43.54938" lon="7.1198">
        <ele>18.700195</ele>
        <time>2025-03-30T12:07:17+00:00</time>
      </trkpt>
      <trkpt lat="43.54937" lon="7.11985">
        <ele>18.90039</ele>
        <time>2025-03-30T12:07:18+00:00</time>
      </trkpt>
      <trkpt lat="43.54935" lon="7.1199">
        <ele>19.40039</ele>
        <time>2025-03-30T12:07:19+00:00</time>
      </trkpt>
      <trkpt lat="43.54933" lon="7.11994">
        <ele>19.600586</ele>
        <time>2025-03-30T12:07:20+00:00</time>
      </trkpt>
      <trkpt lat="43.54931" lon="7.11998">
        <ele>19.600586</ele>
        <time>2025-03-30T12:07:21+00:00</time>
      </trkpt>
      <trkpt lat="43.54929" lon="7.12002">
        <ele>20.100586</ele>
        <time>2025-03-30T12:07:22+00:00</time>
      </trkpt>
      <trkpt lat="43.54927" lon="7.12007">
        <ele>20.100586</ele>
        <time>2025-03-30T12:07:23+00:00</time>
      </trkpt>
      <trkpt lat="43.54926" lon="7.12011">
        <ele>20.100586</ele>
        <time>2025-03-30T12:07:24+00:00</time>
      </trkpt>
      <trkpt lat="43.54923" lon="7.12016">
        <ele>20.600586</ele>
        <time>2025-03-30T12:07:25+00:00</time>
      </trkpt>
      <trkpt lat="43.54921" lon="7.12019">
        <ele>20.600586</ele>
        <time>2025-03-30T12:07:26+00:00</time>
      </trkpt>
      <trkpt lat="43.5492" lon="7.12024">
        <ele>20.600586</ele>
        <time>2025-03-30T12:07:27+00:00</time>
      </trkpt>
      <trkpt lat="43.54918" lon="7.12029">
        <ele>20.600586</ele>
        <time>2025-03-30T12:07:28+00:00</time>
      </trkpt>
      <trkpt lat="43.54916" lon="7.12034">
        <ele>21.100586</ele>
        <time>2025-03-30T12:07:29+00:00</time>
      </trkpt>
      <trkpt lat="43.54914" lon="7.12039">
        <ele>21.100586</ele>
        <time>2025-03-30T12:07:30+00:00</time>
      </trkpt>
      <trkpt lat="43.54913" lon="7.12044">
        <ele>21.100586</ele>
        <time>2025-03-30T12:07:31+00:00</time>
      </trkpt>
      <trkpt lat="43.54911" lon="7.12049">
        <ele>21.100586</ele>
        <time>2025-03-30T12:07:32+00:00</time>
      </trkpt>
      <trkpt lat="43.54909" lon="7.12055">
        <ele>21.299805</ele>
        <time>2025-03-30T12:07:33+00:00</time>
      </trkpt>
      <trkpt lat="43.54907" lon="7.12061">
        <ele>21.200195</ele>
        <time>2025-03-30T12:07:34+00:00</time>
      </trkpt>
      <trkpt lat="43.54905" lon="7.12068">
        <ele>21.200195</ele>
        <time>2025-03-30T12:07:35+00:00</time>
      </trkpt>
      <trkpt lat="43.54903" lon="7.12073">
        <ele>21.40039</ele>
        <time>2025-03-30T12:07:36+00:00</time>
      </trkpt>
      <trkpt lat="43.54902" lon="7.12078">
        <ele>21.299805</ele>
        <time>2025-03-30T12:07:37+00:00</time>
      </trkpt>
      <trkpt lat="43.549" lon="7.12084">
        <ele>21.299805</ele>
        <time>2025-03-30T12:07:38+00:00</time>
      </trkpt>
      <trkpt lat="43.54899" lon="7.12091">
        <ele>21.100586</ele>
        <time>2025-03-30T12:07:39+00:00</time>
      </trkpt>
      <trkpt lat="43.54898" lon="7.12097">
        <ele>21.40039</ele>
        <time>2025-03-30T12:07:40+00:00</time>
      </trkpt>
      <trkpt lat="43.54896" lon="7.12104">
        <ele>21.299805</ele>
        <time>2025-03-30T12:07:41+00:00</time>
      </trkpt>
      <trkpt lat="43.54894" lon="7.12111">
        <ele>21.299805</ele>
        <time>2025-03-30T12:07:42+00:00</time>
      </trkpt>
      <trkpt lat="43.54892" lon="7.12119">
        <ele>21.700195</ele>
        <time>2025-03-30T12:07:43+00:00</time>
      </trkpt>
      <trkpt lat="43.54889" lon="7.12125">
        <ele>21.600586</ele>
        <time>2025-03-30T12:07:44+00:00</time>
      </trkpt>
      <trkpt lat="43.54887" lon="7.12134">
        <ele>21.600586</ele>
        <time>2025-03-30T12:07:45+00:00</time>
      </trkpt>
      <trkpt lat="43.54885" lon="7.12142">
        <ele>22</ele>
        <time>2025-03-30T12:07:46+00:00</time>
      </trkpt>
      <trkpt lat="43.54884" lon="7.1215">
        <ele>22</ele>
        <time>2025-03-30T12:07:47+00:00</time>
      </trkpt>
      <trkpt lat="43.54883" lon="7.12157">
        <ele>22</ele>
        <time>2025-03-30T12:07:48+00:00</time>
      </trkpt>
      <trkpt lat="43.54881" lon="7.12164">
        <ele>22.100586</ele>
        <time>2025-03-30T12:07:49+00:00</time>
      </trkpt>
      <trkpt lat="43.54881" lon="7.12172">
        <ele>22.200195</ele>
        <time>2025-03-30T12:07:50+00:00</time>
      </trkpt>
      <trkpt lat="43.54879" lon="7.12179">
        <ele>22.90039</ele>
        <time>2025-03-30T12:07:51+00:00</time>
      </trkpt>
      <trkpt lat="43.54878" lon="7.12184">
        <ele>23.100586</ele>
        <time>2025-03-30T12:07:52+00:00</time>
      </trkpt>
      <trkpt lat="43.54878" lon="7.12193">
        <ele>23.299805</ele>
        <time>2025-03-30T12:07:53+00:00</time>
      </trkpt>
      <trkpt lat="43.54878" lon="7.12203">
        <ele>23.600586</ele>
        <time>2025-03-30T12:07:54+00:00</time>
      </trkpt>
      <trkpt lat="43.54879" lon="7.12209">
        <ele>23.799805</ele>
        <time>2025-03-30T12:07:55+00:00</time>
      </trkpt>
      <trkpt lat="43.5488" lon="7.12217">
        <ele>24</ele>
        <time>2025-03-30T12:07:56+00:00</time>
      </trkpt>
      <trkpt lat="43.5488" lon="7.12223">
        <ele>23.40039</ele>
        <time>2025-03-30T12:07:57+00:00</time>
      </trkpt>
      <trkpt lat="43.5488" lon="7.1223">
        <ele>23.600586</ele>
        <time>2025-03-30T12:07:58+00:00</time>
      </trkpt>
      <trkpt lat="43.54881" lon="7.12237">
        <ele>23.799805</ele>
        <time>2025-03-30T12:07:59+00:00</time>
      </trkpt>
      <trkpt lat="43.54882" lon="7.12242">
        <ele>24.100586</ele>
        <time>2025-03-30T12:08:00+00:00</time>
      </trkpt>
      <trkpt lat="43.54883" lon="7.12247">
        <ele>24.100586</ele>
        <time>2025-03-30T12:08:01+00:00</time>
      </trkpt>
      <trkpt lat="43.54885" lon="7.12252">
        <ele>24.5</ele>
        <time>2025-03-30T12:08:02+00:00</time>
      </trkpt>
      <trkpt lat="43.54886" lon="7.12257">
        <ele>25</ele>
        <time>2025-03-30T12:08:03+00:00</time>
      </trkpt>
      <trkpt lat="43.54889" lon="7.12263">
        <ele>24.5</ele>
        <time>2025-03-30T12:08:04+00:00</time>
      </trkpt>
      <trkpt lat="43.54892" lon="7.12267">
        <ele>25.100586</ele>
        <time>2025-03-30T12:08:05+00:00</time>
      </trkpt>
      <trkpt lat="43.54894" lon="7.12271">
        <ele>24.700195</ele>
        <time>2025-03-30T12:08:06+00:00</time>
      </trkpt>
      <trkpt lat="43.549" lon="7.12278">
        <ele>25</ele>
        <time>2025-03-30T12:08:07+00:00</time>
      </trkpt>
      <trkpt lat="43.54904" lon="7.12284">
        <ele>25.700195</ele>
        <time>2025-03-30T12:08:08+00:00</time>
      </trkpt>
      <trkpt lat="43.54908" lon="7.12289">
        <ele>25.40039</ele>
        <time>2025-03-30T12:08:09+00:00</time>
      </trkpt>
      <trkpt lat="43.54912" lon="7.12295">
        <ele>25.700195</ele>
        <time>2025-03-30T12:08:10+00:00</time>
      </trkpt>
      <trkpt lat="43.54916" lon="7.12298">
        <ele>25.700195</ele>
        <time>2025-03-30T12:08:11+00:00</time>
      </trkpt>
      <trkpt lat="43.54919" lon="7.12302">
        <ele>26</ele>
        <time>2025-03-30T12:08:12+00:00</time>
      </trkpt>
      <trkpt lat="43.54923" lon="7.12306">
        <ele>26</ele>
        <time>2025-03-30T12:08:13+00:00</time>
      </trkpt>
      <trkpt lat="43.54927" lon="7.12312">
        <ele>26.299805</ele>
        <time>2025-03-30T12:08:14+00:00</time>
      </trkpt>
      <trkpt lat="43.54929" lon="7.12317">
        <ele>26.299805</ele>
        <time>2025-03-30T12:08:15+00:00</time>
      </trkpt>
      <trkpt lat="43.54933" lon="7.12322">
        <ele>26.5</ele>
        <time>2025-03-30T12:08:16+00:00</time>
      </trkpt>
      <trkpt lat="43.54938" lon="7.12327">
        <ele>26.40039</ele>
        <time>2025-03-30T12:08:17+00:00</time>
      </trkpt>
      <trkpt lat="43.54941" lon="7.12331">
        <ele>26.40039</ele>
        <time>2025-03-30T12:08:18+00:00</time>
      </trkpt>
      <trkpt lat="43.54944" lon="7.12334">
        <ele>25.700195</ele>
        <time>2025-03-30T12:08:19+00:00</time>
      </trkpt>
      <trkpt lat="43.54947" lon="7.12339">
        <ele>26.100586</ele>
        <time>2025-03-30T12:08:21+00:00</time>
      </trkpt>
      <trkpt lat="43.54948" lon="7.12344">
        <ele>25.799805</ele>
        <time>2025-03-30T12:08:22+00:00</time>
      </trkpt>
      <trkpt lat="43.54951" lon="7.12347">
        <ele>25.799805</ele>
        <time>2025-03-30T12:08:23+00:00</time>
      </trkpt>
      <trkpt lat="43.54952" lon="7.12353">
        <ele>26.299805</ele>
        <time>2025-03-30T12:08:24+00:00</time>
      </trkpt>
      <trkpt lat="43.54954" lon="7.12358">
        <ele>26.299805</ele>
        <time>2025-03-30T12:08:25+00:00</time>
      </trkpt>
      <trkpt lat="43.54956" lon="7.12363">
        <ele>26.200195</ele>
        <time>2025-03-30T12:08:26+00:00</time>
      </trkpt>
      <trkpt lat="43.54958" lon="7.12368">
        <ele>26.200195</ele>
        <time>2025-03-30T12:08:27+00:00</time>
      </trkpt>
      <trkpt lat="43.5496" lon="7.12374">
        <ele>26.799805</ele>
        <time>2025-03-30T12:08:28+00:00</time>
      </trkpt>
      <trkpt lat="43.54961" lon="7.12381">
        <ele>26.799805</ele>
        <time>2025-03-30T12:08:29+00:00</time>
      </trkpt>
      <trkpt lat="43.54962" lon="7.12387">
        <ele>27.5</ele>
        <time>2025-03-30T12:08:30+00:00</time>
      </trkpt>
      <trkpt lat="43.54963" lon="7.12391">
        <ele>27.5</ele>
        <time>2025-03-30T12:08:31+00:00</time>
      </trkpt>
      <trkpt lat="43.54965" lon="7.12399">
        <ele>28.200195</ele>
        <time>2025-03-30T12:08:32+00:00</time>
      </trkpt>
      <trkpt lat="43.54967" lon="7.12405">
        <ele>28.40039</ele>
        <time>2025-03-30T12:08:33+00:00</time>
      </trkpt>
      <trkpt lat="43.54971" lon="7.1241">
        <ele>28.40039</ele>
        <time>2025-03-30T12:08:34+00:00</time>
      </trkpt>
      <trkpt lat="43.54974" lon="7.12417">
        <ele>28.5</ele>
        <time>2025-03-30T12:08:35+00:00</time>
      </trkpt>
      <trkpt lat="43.54978" lon="7.12423">
        <ele>29.200195</ele>
        <time>2025-03-30T12:08:36+00:00</time>
      </trkpt>
      <trkpt lat="43.5498" lon="7.12427">
        <ele>28.600586</ele>
        <time>2025-03-30T12:08:37+00:00</time>
      </trkpt>
      <trkpt lat="43.54984" lon="7.12434">
        <ele>29.299805</ele>
        <time>2025-03-30T12:08:38+00:00</time>
      </trkpt>
      <trkpt lat="43.54987" lon="7.12441">
        <ele>29.40039</ele>
        <time>2025-03-30T12:08:39+00:00</time>
      </trkpt>
      <trkpt lat="43.5499" lon="7.12445">
        <ele>29.40039</ele>
        <time>2025-03-30T12:08:40+00:00</time>
      </trkpt>
      <trkpt lat="43.54993" lon="7.12449">
        <ele>29.5</ele>
        <time>2025-03-30T12:08:41+00:00</time>
      </trkpt>
      <trkpt lat="43.54994" lon="7.12456">
        <ele>30.200195</ele>
        <time>2025-03-30T12:08:42+00:00</time>
      </trkpt>
      <trkpt lat="43.54996" lon="7.12461">
        <ele>30.200195</ele>
        <time>2025-03-30T12:08:43+00:00</time>
      </trkpt>
      <trkpt lat="43.54998" lon="7.12465">
        <ele>30.299805</ele>
        <time>2025-03-30T12:08:44+00:00</time>
      </trkpt>
      <trkpt lat="43.55" lon="7.12472">
        <ele>31.100586</ele>
        <time>2025-03-30T12:08:45+00:00</time>
      </trkpt>
      <trkpt lat="43.55003" lon="7.12481">
        <ele>31.700195</ele>
        <time>2025-03-30T12:08:46+00:00</time>
      </trkpt>
      <trkpt lat="43.55007" lon="7.1249">
        <ele>31.799805</ele>
        <time>2025-03-30T12:08:47+00:00</time>
      </trkpt>
      <trkpt lat="43.55012" lon="7.12499">
        <ele>31.700195</ele>
        <time>2025-03-30T12:08:48+00:00</time>
      </trkpt>
      <trkpt lat="43.55014" lon="7.12508">
        <ele>32.200195</ele>
        <time>2025-03-30T12:08:49+00:00</time>
      </trkpt>
      <trkpt lat="43.55017" lon="7.12516">
        <ele>31.90039</ele>
        <time>2025-03-30T12:08:50+00:00</time>
      </trkpt>
      <trkpt lat="43.55021" lon="7.12522">
        <ele>31.90039</ele>
        <time>2025-03-30T12:08:51+00:00</time>
      </trkpt>
      <trkpt lat="43.55023" lon="7.12529">
        <ele>31.700195</ele>
        <time>2025-03-30T12:08:52+00:00</time>
      </trkpt>
      <trkpt lat="43.55026" lon="7.12537">
        <ele>32.200195</ele>
        <time>2025-03-30T12:08:53+00:00</time>
      </trkpt>
      <trkpt lat="43.55029" lon="7.12543">
        <ele>32.5</ele>
        <time>2025-03-30T12:08:54+00:00</time>
      </trkpt>
      <trkpt lat="43.55033" lon="7.1255">
        <ele>32.100586</ele>
        <time>2025-03-30T12:08:55+00:00</time>
      </trkpt>
      <trkpt lat="43.55037" lon="7.12557">
        <ele>31.5</ele>
        <time>2025-03-30T12:08:56+00:00</time>
      </trkpt>
      <trkpt lat="43.55042" lon="7.12563">
        <ele>31.100586</ele>
        <time>2025-03-30T12:08:57+00:00</time>
      </trkpt>
      <trkpt lat="43.55044" lon="7.12572">
        <ele>31.299805</ele>
        <time>2025-03-30T12:08:58+00:00</time>
      </trkpt>
      <trkpt lat="43.55046" lon="7.1258">
        <ele>31.40039</ele>
        <time>2025-03-30T12:08:59+00:00</time>
      </trkpt>
      <trkpt lat="43.55048" lon="7.12589">
        <ele>31</ele>
        <time>2025-03-30T12:09:00+00:00</time>
      </trkpt>
      <trkpt lat="43.55051" lon="7.12594">
        <ele>31</ele>
        <time>2025-03-30T12:09:01+00:00</time>
      </trkpt>
      <trkpt lat="43.55054" lon="7.126">
        <ele>30.600586</ele>
        <time>2025-03-30T12:09:02+00:00</time>
      </trkpt>
      <trkpt lat="43.55057" lon="7.12607">
        <ele>30.700195</ele>
        <time>2025-03-30T12:09:03+00:00</time>
      </trkpt>
      <trkpt lat="43.5506" lon="7.12616">
        <ele>30.700195</ele>
        <time>2025-03-30T12:09:04+00:00</time>
      </trkpt>
      <trkpt lat="43.55062" lon="7.12625">
        <ele>30.200195</ele>
        <time>2025-03-30T12:09:05+00:00</time>
      </trkpt>
      <trkpt lat="43.55065" lon="7.12633">
        <ele>30.299805</ele>
        <time>2025-03-30T12:09:06+00:00</time>
      </trkpt>
      <trkpt lat="43.55067" lon="7.1264">
        <ele>29.700195</ele>
        <time>2025-03-30T12:09:07+00:00</time>
      </trkpt>
      <trkpt lat="43.5507" lon="7.12648">
        <ele>29.700195</ele>
        <time>2025-03-30T12:09:08+00:00</time>
      </trkpt>
      <trkpt lat="43.55073" lon="7.12656">
        <ele>29.200195</ele>
        <time>2025-03-30T12:09:09+00:00</time>
      </trkpt>
      <trkpt lat="43.55075" lon="7.12663">
        <ele>29.200195</ele>
        <time>2025-03-30T12:09:10+00:00</time>
      </trkpt>
      <trkpt lat="43.55079" lon="7.12671">
        <ele>28.700195</ele>
        <time>2025-03-30T12:09:11+00:00</time>
      </trkpt>
      <trkpt lat="43.55083" lon="7.12679">
        <ele>28.700195</ele>
        <time>2025-03-30T12:09:12+00:00</time>
      </trkpt>
      <trkpt lat="43.55086" lon="7.12687">
        <ele>28</ele>
        <time>2025-03-30T12:09:13+00:00</time>
      </trkpt>
      <trkpt lat="43.55089" lon="7.12693">
        <ele>28.200195</ele>
        <time>2025-03-30T12:09:14+00:00</time>
      </trkpt>
      <trkpt lat="43.55093" lon="7.127">
        <ele>27.799805</ele>
        <time>2025-03-30T12:09:15+00:00</time>
      </trkpt>
      <trkpt lat="43.55096" lon="7.12708">
        <ele>28.200195</ele>
        <time>2025-03-30T12:09:16+00:00</time>
      </trkpt>
      <trkpt lat="43.55099" lon="7.12716">
        <ele>28.200195</ele>
        <time>2025-03-30T12:09:17+00:00</time>
      </trkpt>
      <trkpt lat="43.55103" lon="7.12723">
        <ele>28.799805</ele>
        <time>2025-03-30T12:09:18+00:00</time>
      </trkpt>
      <trkpt lat="43.55106" lon="7.1273">
        <ele>29</ele>
        <time>2025-03-30T12:09:19+00:00</time>
      </trkpt>
      <trkpt lat="43.55109" lon="7.12737">
        <ele>29</ele>
        <time>2025-03-30T12:09:20+00:00</time>
      </trkpt>
      <trkpt lat="43.55112" lon="7.12745">
        <ele>29.200195</ele>
        <time>2025-03-30T12:09:21+00:00</time>
      </trkpt>
      <trkpt lat="43.55115" lon="7.12752">
        <ele>30</ele>
        <time>2025-03-30T12:09:22+00:00</time>
      </trkpt>
      <trkpt lat="43.55119" lon="7.1276">
        <ele>30.40039</ele>
        <time>2025-03-30T12:09:23+00:00</time>
      </trkpt>
      <trkpt lat="43.55121" lon="7.12766">
        <ele>31.200195</ele>
        <time>2025-03-30T12:09:24+00:00</time>
      </trkpt>
      <trkpt lat="43.55123" lon="7.12772">
        <ele>31</ele>
        <time>2025-03-30T12:09:25+00:00</time>
      </trkpt>
      <trkpt lat="43.55126" lon="7.12778">
        <ele>31.799805</ele>
        <time>2025-03-30T12:09:26+00:00</time>
      </trkpt>
      <trkpt lat="43.55129" lon="7.12784">
        <ele>32.40039</ele>
        <time>2025-03-30T12:09:27+00:00</time>
      </trkpt>
      <trkpt lat="43.55132" lon="7.12792">
        <ele>33.100586</ele>
        <time>2025-03-30T12:09:28+00:00</time>
      </trkpt>
      <trkpt lat="43.55135" lon="7.12799">
        <ele>33.5</ele>
        <time>2025-03-30T12:09:29+00:00</time>
      </trkpt>
      <trkpt lat="43.55137" lon="7.12804">
        <ele>33.5</ele>
        <time>2025-03-30T12:09:30+00:00</time>
      </trkpt>
      <trkpt lat="43.5514" lon="7.1281">
        <ele>34</ele>
        <time>2025-03-30T12:09:31+00:00</time>
      </trkpt>
      <trkpt lat="43.55143" lon="7.12815">
        <ele>33.799805</ele>
        <time>2025-03-30T12:09:32+00:00</time>
      </trkpt>
      <trkpt lat="43.55147" lon="7.12822">
        <ele>34.100586</ele>
        <time>2025-03-30T12:09:33+00:00</time>
      </trkpt>
      <trkpt lat="43.55151" lon="7.12829">
        <ele>34.5</ele>
        <time>2025-03-30T12:09:34+00:00</time>
      </trkpt>
      <trkpt lat="43.55155" lon="7.12836">
        <ele>34.600586</ele>
        <time>2025-03-30T12:09:35+00:00</time>
      </trkpt>
      <trkpt lat="43.55159" lon="7.12842">
        <ele>34.799805</ele>
        <time>2025-03-30T12:09:36+00:00</time>
      </trkpt>
      <trkpt lat="43.55162" lon="7.12848">
        <ele>34.700195</ele>
        <time>2025-03-30T12:09:37+00:00</time>
      </trkpt>
      <trkpt lat="43.55166" lon="7.12852">
        <ele>34.799805</ele>
        <time>2025-03-30T12:09:38+00:00</time>
      </trkpt>
      <trkpt lat="43.55169" lon="7.12857">
        <ele>34.799805</ele>
        <time>2025-03-30T12:09:39+00:00</time>
      </trkpt>
      <trkpt lat="43.55171" lon="7.12863">
        <ele>35</ele>
        <time>2025-03-30T12:09:41+00:00</time>
      </trkpt>
      <trkpt lat="43.55169" lon="7.1287">
        <ele>35.200195</ele>
        <time>2025-03-30T12:09:43+00:00</time>
      </trkpt>
      <trkpt lat="43.55167" lon="7.12873">
        <ele>35.200195</ele>
        <time>2025-03-30T12:09:44+00:00</time>
      </trkpt>
      <trkpt lat="43.55165" lon="7.12876">
        <ele>35.40039</ele>
        <time>2025-03-30T12:09:45+00:00</time>
      </trkpt>
      <trkpt lat="43.55162" lon="7.12877">
        <ele>35.40039</ele>
        <time>2025-03-30T12:09:46+00:00</time>
      </trkpt>
      <trkpt lat="43.55157" lon="7.12878">
        <ele>35.5</ele>
        <time>2025-03-30T12:09:48+00:00</time>
      </trkpt>
      <trkpt lat="43.55153" lon="7.1288">
        <ele>35.600586</ele>
        <time>2025-03-30T12:09:50+00:00</time>
      </trkpt>
      <trkpt lat="43.55147" lon="7.1288">
        <ele>35.600586</ele>
        <time>2025-03-30T12:09:52+00:00</time>
      </trkpt>
      <trkpt lat="43.55144" lon="7.1288">
        <ele>35.700195</ele>
        <time>2025-03-30T12:09:53+00:00</time>
      </trkpt>
      <trkpt lat="43.55141" lon="7.12881">
        <ele>35.700195</ele>
        <time>2025-03-30T12:09:54+00:00</time>
      </trkpt>
      <trkpt lat="43.55137" lon="7.12882">
        <ele>35.700195</ele>
        <time>2025-03-30T12:09:55+00:00</time>
      </trkpt>
      <trkpt lat="43.55132" lon="7.12883">
        <ele>35.799805</ele>
        <time>2025-03-30T12:09:56+00:00</time>
      </trkpt>
      <trkpt lat="43.55127" lon="7.12884">
        <ele>35.90039</ele>
        <time>2025-03-30T12:09:57+00:00</time>
      </trkpt>
      <trkpt lat="43.55122" lon="7.12885">
        <ele>36.100586</ele>
        <time>2025-03-30T12:09:58+00:00</time>
      </trkpt>
      <trkpt lat="43.55117" lon="7.12886">
        <ele>36.100586</ele>
        <time>2025-03-30T12:09:59+00:00</time>
      </trkpt>
      <trkpt lat="43.55112" lon="7.12888">
        <ele>36.100586</ele>
        <time>2025-03-30T12:10:00+00:00</time>
      </trkpt>
      <trkpt lat="43.55106" lon="7.12889">
        <ele>36.200195</ele>
        <time>2025-03-30T12:10:01+00:00</time>
      </trkpt>
      <trkpt lat="43.55101" lon="7.1289">
        <ele>36.299805</ele>
        <time>2025-03-30T12:10:02+00:00</time>
      </trkpt>
      <trkpt lat="43.55096" lon="7.12891">
        <ele>36.40039</ele>
        <time>2025-03-30T12:10:03+00:00</time>
      </trkpt>
      <trkpt lat="43.55092" lon="7.12892">
        <ele>36.40039</ele>
        <time>2025-03-30T12:10:04+00:00</time>
      </trkpt>
      <trkpt lat="43.55089" lon="7.12893">
        <ele>36.40039</ele>
        <time>2025-03-30T12:10:05+00:00</time>
      </trkpt>
      <trkpt lat="43.55084" lon="7.12894">
        <ele>36.5</ele>
        <time>2025-03-30T12:10:07+00:00</time>
      </trkpt>
      <trkpt lat="43.55076" lon="7.12896">
        <ele>36.600586</ele>
        <time>2025-03-30T12:10:08+00:00</time>
      </trkpt>
      <trkpt lat="43.55072" lon="7.12899">
        <ele>36.600586</ele>
        <time>2025-03-30T12:10:09+00:00</time>
      </trkpt>
      <trkpt lat="43.55069" lon="7.12898">
        <ele>36.600586</ele>
        <time>2025-03-30T12:10:10+00:00</time>
      </trkpt>
      <trkpt lat="43.55066" lon="7.129">
        <ele>36.700195</ele>
        <time>2025-03-30T12:10:12+00:00</time>
      </trkpt>
      <trkpt lat="43.55063" lon="7.12902">
        <ele>36.700195</ele>
        <time>2025-03-30T12:10:13+00:00</time>
      </trkpt>
      <trkpt lat="43.55059" lon="7.12904">
        <ele>36.700195</ele>
        <time>2025-03-30T12:10:15+00:00</time>
      </trkpt>
      <trkpt lat="43.55056" lon="7.12907">
        <ele>36.700195</ele>
        <time>2025-03-30T12:10:17+00:00</time>
      </trkpt>
      <trkpt lat="43.55053" lon="7.1291">
        <ele>36.799805</ele>
        <time>2025-03-30T12:10:19+00:00</time>
      </trkpt>
      <trkpt lat="43.5505" lon="7.12914">
        <ele>36.799805</ele>
        <time>2025-03-30T12:10:21+00:00</time>
      </trkpt>
      <trkpt lat="43.55046" lon="7.12917">
        <ele>36.799805</ele>
        <time>2025-03-30T12:10:23+00:00</time>
      </trkpt>
      <trkpt lat="43.55043" lon="7.12919">
        <ele>36.799805</ele>
        <time>2025-03-30T12:10:25+00:00</time>
      </trkpt>
      <trkpt lat="43.5504" lon="7.12922">
        <ele>36.90039</ele>
        <time>2025-03-30T12:10:27+00:00</time>
      </trkpt>
      <trkpt lat="43.55037" lon="7.12924">
        <ele>36.90039</ele>
        <time>2025-03-30T12:10:29+00:00</time>
      </trkpt>
      <trkpt lat="43.55033" lon="7.12928">
        <ele>37</ele>
        <time>2025-03-30T12:10:32+00:00</time>
      </trkpt>
      <trkpt lat="43.5503" lon="7.12931">
        <ele>37</ele>
        <time>2025-03-30T12:10:33+00:00</time>
      </trkpt>
      <trkpt lat="43.55026" lon="7.12933">
        <ele>37.100586</ele>
        <time>2025-03-30T12:10:34+00:00</time>
      </trkpt>
      <trkpt lat="43.55021" lon="7.12935">
        <ele>37.200195</ele>
        <time>2025-03-30T12:10:35+00:00</time>
      </trkpt>
      <trkpt lat="43.55017" lon="7.12937">
        <ele>37.299805</ele>
        <time>2025-03-30T12:10:36+00:00</time>
      </trkpt>
      <trkpt lat="43.55012" lon="7.12939">
        <ele>37.299805</ele>
        <time>2025-03-30T12:10:37+00:00</time>
      </trkpt>
      <trkpt lat="43.55009" lon="7.1294">
        <ele>37.299805</ele>
        <time>2025-03-30T12:10:38+00:00</time>
      </trkpt>
      <trkpt lat="43.55004" lon="7.12943">
        <ele>37.40039</ele>
        <time>2025-03-30T12:10:39+00:00</time>
      </trkpt>
      <trkpt lat="43.55" lon="7.12945">
        <ele>37.40039</ele>
        <time>2025-03-30T12:10:40+00:00</time>
      </trkpt>
      <trkpt lat="43.54996" lon="7.12948">
        <ele>37.40039</ele>
        <time>2025-03-30T12:10:41+00:00</time>
      </trkpt>
      <trkpt lat="43.54992" lon="7.12952">
        <ele>37.40039</ele>
        <time>2025-03-30T12:10:42+00:00</time>
      </trkpt>
      <trkpt lat="43.54988" lon="7.12956">
        <ele>37.5</ele>
        <time>2025-03-30T12:10:43+00:00</time>
      </trkpt>
      <trkpt lat="43.54984" lon="7.1296">
        <ele>37.40039</ele>
        <time>2025-03-30T12:10:44+00:00</time>
      </trkpt>
      <trkpt lat="43.54979" lon="7.12962">
        <ele>37.299805</ele>
        <time>2025-03-30T12:10:45+00:00</time>
      </trkpt>
      <trkpt lat="43.54974" lon="7.12966">
        <ele>37.299805</ele>
        <time>2025-03-30T12:10:46+00:00</time>
      </trkpt>
      <trkpt lat="43.54969" lon="7.1297">
        <ele>37.100586</ele>
        <time>2025-03-30T12:10:47+00:00</time>
      </trkpt>
      <trkpt lat="43.54964" lon="7.12973">
        <ele>36.799805</ele>
        <time>2025-03-30T12:10:48+00:00</time>
      </trkpt>
      <trkpt lat="43.5496" lon="7.12976">
        <ele>36.600586</ele>
        <time>2025-03-30T12:10:49+00:00</time>
      </trkpt>
      <trkpt lat="43.54958" lon="7.12978">
        <ele>36.5</ele>
        <time>2025-03-30T12:10:50+00:00</time>
      </trkpt>
      <trkpt lat="43.54954" lon="7.12982">
        <ele>36.5</ele>
        <time>2025-03-30T12:10:53+00:00</time>
      </trkpt>
      <trkpt lat="43.5495" lon="7.12983">
        <ele>36.299805</ele>
        <time>2025-03-30T12:10:56+00:00</time>
      </trkpt>
      <trkpt lat="43.54947" lon="7.12984">
        <ele>36.100586</ele>
        <time>2025-03-30T12:10:57+00:00</time>
      </trkpt>
      <trkpt lat="43.54942" lon="7.12982">
        <ele>36.100586</ele>
        <time>2025-03-30T12:10:59+00:00</time>
      </trkpt>
      <trkpt lat="43.54935" lon="7.12983">
        <ele>35.700195</ele>
        <time>2025-03-30T12:11:01+00:00</time>
      </trkpt>
      <trkpt lat="43.54932" lon="7.12983">
        <ele>35.700195</ele>
        <time>2025-03-30T12:11:02+00:00</time>
      </trkpt>
      <trkpt lat="43.54928" lon="7.12983">
        <ele>35.5</ele>
        <time>2025-03-30T12:11:03+00:00</time>
      </trkpt>
      <trkpt lat="43.54924" lon="7.12983">
        <ele>35.5</ele>
        <time>2025-03-30T12:11:04+00:00</time>
      </trkpt>
      <trkpt lat="43.54921" lon="7.12983">
        <ele>35.40039</ele>
        <time>2025-03-30T12:11:05+00:00</time>
      </trkpt>
      <trkpt lat="43.54916" lon="7.12983">
        <ele>35.200195</ele>
        <time>2025-03-30T12:11:06+00:00</time>
      </trkpt>
      <trkpt lat="43.54911" lon="7.12984">
        <ele>35.200195</ele>
        <time>2025-03-30T12:11:07+00:00</time>
      </trkpt>
      <trkpt lat="43.54908" lon="7.12984">
        <ele>35.100586</ele>
        <time>2025-03-30T12:11:08+00:00</time>
      </trkpt>
      <trkpt lat="43.54905" lon="7.12985">
        <ele>35.100586</ele>
        <time>2025-03-30T12:11:09+00:00</time>
      </trkpt>
      <trkpt lat="43.54901" lon="7.12985">
        <ele>35</ele>
        <time>2025-03-30T12:11:10+00:00</time>
      </trkpt>
      <trkpt lat="43.54896" lon="7.12985">
        <ele>34.90039</ele>
        <time>2025-03-30T12:11:11+00:00</time>
      </trkpt>
      <trkpt lat="43.54891" lon="7.12985">
        <ele>34.799805</ele>
        <time>2025-03-30T12:11:12+00:00</time>
      </trkpt>
      <trkpt lat="43.54888" lon="7.12986">
        <ele>34.799805</ele>
        <time>2025-03-30T12:11:13+00:00</time>
      </trkpt>
      <trkpt lat="43.54884" lon="7.12984">
        <ele>34.700195</ele>
        <time>2025-03-30T12:11:14+00:00</time>
      </trkpt>
      <trkpt lat="43.5488" lon="7.12984">
        <ele>34.700195</ele>
        <time>2025-03-30T12:11:15+00:00</time>
      </trkpt>
      <trkpt lat="43.54876" lon="7.12984">
        <ele>34.700195</ele>
        <time>2025-03-30T12:11:16+00:00</time>
      </trkpt>
      <trkpt lat="43.54871" lon="7.12984">
        <ele>34.600586</ele>
        <time>2025-03-30T12:11:18+00:00</time>
      </trkpt>
      <trkpt lat="43.54868" lon="7.12984">
        <ele>34.600586</ele>
        <time>2025-03-30T12:11:19+00:00</time>
      </trkpt>
      <trkpt lat="43.54864" lon="7.12984">
        <ele>34.5</ele>
        <time>2025-03-30T12:11:21+00:00</time>
      </trkpt>
      <trkpt lat="43.5486" lon="7.12985">
        <ele>34.5</ele>
        <time>2025-03-30T12:11:23+00:00</time>
      </trkpt>
      <trkpt lat="43.54856" lon="7.12986">
        <ele>34.5</ele>
        <time>2025-03-30T12:11:24+00:00</time>
      </trkpt>
      <trkpt lat="43.54853" lon="7.12986">
        <ele>34.40039</ele>
        <time>2025-03-30T12:11:25+00:00</time>
      </trkpt>
      <trkpt lat="43.54849" lon="7.12988">
        <ele>34.299805</ele>
        <time>2025-03-30T12:11:26+00:00</time>
      </trkpt>
      <trkpt lat="43.54844" lon="7.12988">
        <ele>34.200195</ele>
        <time>2025-03-30T12:11:28+00:00</time>
      </trkpt>
      <trkpt lat="43.5484" lon="7.12989">
        <ele>34.100586</ele>
        <time>2025-03-30T12:11:29+00:00</time>
      </trkpt>
      <trkpt lat="43.54837" lon="7.12991">
        <ele>34.100586</ele>
        <time>2025-03-30T12:11:30+00:00</time>
      </trkpt>
      <trkpt lat="43.54832" lon="7.12992">
        <ele>34</ele>
        <time>2025-03-30T12:11:31+00:00</time>
      </trkpt>
      <trkpt lat="43.54828" lon="7.12993">
        <ele>33.799805</ele>
        <time>2025-03-30T12:11:32+00:00</time>
      </trkpt>
      <trkpt lat="43.54825" lon="7.12995">
        <ele>33.799805</ele>
        <time>2025-03-30T12:11:33+00:00</time>
      </trkpt>
      <trkpt lat="43.5482" lon="7.12996">
        <ele>33.40039</ele>
        <time>2025-03-30T12:11:35+00:00</time>
      </trkpt>
      <trkpt lat="43.54817" lon="7.12997">
        <ele>33.100586</ele>
        <time>2025-03-30T12:11:36+00:00</time>
      </trkpt>
      <trkpt lat="43.54814" lon="7.12997">
        <ele>33.100586</ele>
        <time>2025-03-30T12:11:37+00:00</time>
      </trkpt>
      <trkpt lat="43.54811" lon="7.12996">
        <ele>33.100586</ele>
        <time>2025-03-30T12:11:38+00:00</time>
      </trkpt>
      <trkpt lat="43.54808" lon="7.12995">
        <ele>33</ele>
        <time>2025-03-30T12:11:39+00:00</time>
      </trkpt>
      <trkpt lat="43.54804" lon="7.12996">
        <ele>32.5</ele>
        <time>2025-03-30T12:11:41+00:00</time>
      </trkpt>
      <trkpt lat="43.54801" lon="7.12997">
        <ele>32.5</ele>
        <time>2025-03-30T12:11:42+00:00</time>
      </trkpt>
      <trkpt lat="43.54799" lon="7.13">
        <ele>32.100586</ele>
        <time>2025-03-30T12:11:45+00:00</time>
      </trkpt>
      <trkpt lat="43.54801" lon="7.12997">
        <ele>32.5</ele>
        <time>2025-03-30T12:11:48+00:00</time>
      </trkpt>
      <trkpt lat="43.54805" lon="7.12998">
        <ele>32.5</ele>
        <time>2025-03-30T12:11:50+00:00</time>
      </trkpt>
      <trkpt lat="43.54808" lon="7.12999">
        <ele>32.799805</ele>
        <time>2025-03-30T12:11:52+00:00</time>
      </trkpt>
      <trkpt lat="43.54811" lon="7.12999">
        <ele>32.799805</ele>
        <time>2025-03-30T12:11:54+00:00</time>
      </trkpt>
      <trkpt lat="43.54815" lon="7.13">
        <ele>33.100586</ele>
        <time>2025-03-30T12:11:56+00:00</time>
      </trkpt>
      <trkpt lat="43.54819" lon="7.12999">
        <ele>33.40039</ele>
        <time>2025-03-30T12:11:57+00:00</time>
      </trkpt>
      <trkpt lat="43.54824" lon="7.13002">
        <ele>33.600586</ele>
        <time>2025-03-30T12:11:59+00:00</time>
      </trkpt>
      <trkpt lat="43.54828" lon="7.13001">
        <ele>33.600586</ele>
        <time>2025-03-30T12:12:00+00:00</time>
      </trkpt>
      <trkpt lat="43.54832" lon="7.13002">
        <ele>33.799805</ele>
        <time>2025-03-30T12:12:01+00:00</time>
      </trkpt>
      <trkpt lat="43.54836" lon="7.13002">
        <ele>33.90039</ele>
        <time>2025-03-30T12:12:02+00:00</time>
      </trkpt>
      <trkpt lat="43.54841" lon="7.13003">
        <ele>33.90039</ele>
        <time>2025-03-30T12:12:03+00:00</time>
      </trkpt>
      <trkpt lat="43.54845" lon="7.13003">
        <ele>34</ele>
        <time>2025-03-30T12:12:04+00:00</time>
      </trkpt>
      <trkpt lat="43.54849" lon="7.13001">
        <ele>34.100586</ele>
        <time>2025-03-30T12:12:05+00:00</time>
      </trkpt>
      <trkpt lat="43.54852" lon="7.12998">
        <ele>34.100586</ele>
        <time>2025-03-30T12:12:06+00:00</time>
      </trkpt>
      <trkpt lat="43.54856" lon="7.12998">
        <ele>34.200195</ele>
        <time>2025-03-30T12:12:07+00:00</time>
      </trkpt>
      <trkpt lat="43.54862" lon="7.12997">
        <ele>34.200195</ele>
        <time>2025-03-30T12:12:08+00:00</time>
      </trkpt>
      <trkpt lat="43.54868" lon="7.12998">
        <ele>34.299805</ele>
        <time>2025-03-30T12:12:09+00:00</time>
      </trkpt>
      <trkpt lat="43.54873" lon="7.12998">
        <ele>34.299805</ele>
        <time>2025-03-30T12:12:10+00:00</time>
      </trkpt>
      <trkpt lat="43.54877" lon="7.13">
        <ele>34.40039</ele>
        <time>2025-03-30T12:12:11+00:00</time>
      </trkpt>
      <trkpt lat="43.54881" lon="7.13">
        <ele>34.40039</ele>
        <time>2025-03-30T12:12:12+00:00</time>
      </trkpt>
      <trkpt lat="43.54885" lon="7.12998">
        <ele>34.40039</ele>
        <time>2025-03-30T12:12:13+00:00</time>
      </trkpt>
      <trkpt lat="43.54889" lon="7.12995">
        <ele>34.600586</ele>
        <time>2025-03-30T12:12:14+00:00</time>
      </trkpt>
      <trkpt lat="43.54893" lon="7.12991">
        <ele>34.700195</ele>
        <time>2025-03-30T12:12:15+00:00</time>
      </trkpt>
      <trkpt lat="43.54897" lon="7.12989">
        <ele>34.700195</ele>
        <time>2025-03-30T12:12:16+00:00</time>
      </trkpt>
      <trkpt lat="43.549" lon="7.12989">
        <ele>34.799805</ele>
        <time>2025-03-30T12:12:17+00:00</time>
      </trkpt>
      <trkpt lat="43.54903" lon="7.1299">
        <ele>34.799805</ele>
        <time>2025-03-30T12:12:18+00:00</time>
      </trkpt>
      <trkpt lat="43.54907" lon="7.12992">
        <ele>35</ele>
        <time>2025-03-30T12:12:19+00:00</time>
      </trkpt>
      <trkpt lat="43.54912" lon="7.12993">
        <ele>35.100586</ele>
        <time>2025-03-30T12:12:20+00:00</time>
      </trkpt>
      <trkpt lat="43.54916" lon="7.12994">
        <ele>35.100586</ele>
        <time>2025-03-30T12:12:21+00:00</time>
      </trkpt>
      <trkpt lat="43.54921" lon="7.12993">
        <ele>35.299805</ele>
        <time>2025-03-30T12:12:22+00:00</time>
      </trkpt>
      <trkpt lat="43.54925" lon="7.12993">
        <ele>35.40039</ele>
        <time>2025-03-30T12:12:23+00:00</time>
      </trkpt>
      <trkpt lat="43.5493" lon="7.12993">
        <ele>35.600586</ele>
        <time>2025-03-30T12:12:24+00:00</time>
      </trkpt>
      <trkpt lat="43.54934" lon="7.12993">
        <ele>35.600586</ele>
        <time>2025-03-30T12:12:25+00:00</time>
      </trkpt>
      <trkpt lat="43.54937" lon="7.12992">
        <ele>35.799805</ele>
        <time>2025-03-30T12:12:26+00:00</time>
      </trkpt>
      <trkpt lat="43.54944" lon="7.1299">
        <ele>36</ele>
        <time>2025-03-30T12:12:28+00:00</time>
      </trkpt>
      <trkpt lat="43.54948" lon="7.12991">
        <ele>36.299805</ele>
        <time>2025-03-30T12:12:29+00:00</time>
      </trkpt>
      <trkpt lat="43.54953" lon="7.12989">
        <ele>36.299805</ele>
        <time>2025-03-30T12:12:30+00:00</time>
      </trkpt>
      <trkpt lat="43.54956" lon="7.12986">
        <ele>36.5</ele>
        <time>2025-03-30T12:12:31+00:00</time>
      </trkpt>
      <trkpt lat="43.54959" lon="7.12983">
        <ele>36.5</ele>
        <time>2025-03-30T12:12:32+00:00</time>
      </trkpt>
      <trkpt lat="43.54963" lon="7.1298">
        <ele>36.799805</ele>
        <time>2025-03-30T12:12:33+00:00</time>
      </trkpt>
      <trkpt lat="43.54967" lon="7.12979">
        <ele>36.799805</ele>
        <time>2025-03-30T12:12:34+00:00</time>
      </trkpt>
      <trkpt lat="43.5497" lon="7.12975">
        <ele>37.100586</ele>
        <time>2025-03-30T12:12:35+00:00</time>
      </trkpt>
      <trkpt lat="43.54975" lon="7.12971">
        <ele>37.200195</ele>
        <time>2025-03-30T12:12:36+00:00</time>
      </trkpt>
      <trkpt lat="43.54978" lon="7.12968">
        <ele>37.299805</ele>
        <time>2025-03-30T12:12:37+00:00</time>
      </trkpt>
      <trkpt lat="43.54982" lon="7.12965">
        <ele>37.40039</ele>
        <time>2025-03-30T12:12:38+00:00</time>
      </trkpt>
      <trkpt lat="43.54986" lon="7.12962">
        <ele>37.5</ele>
        <time>2025-03-30T12:12:39+00:00</time>
      </trkpt>
      <trkpt lat="43.54989" lon="7.12959">
        <ele>37.5</ele>
        <time>2025-03-30T12:12:40+00:00</time>
      </trkpt>
      <trkpt lat="43.54993" lon="7.12956">
        <ele>37.5</ele>
        <time>2025-03-30T12:12:41+00:00</time>
      </trkpt>
      <trkpt lat="43.54996" lon="7.12953">
        <ele>37.5</ele>
        <time>2025-03-30T12:12:42+00:00</time>
      </trkpt>
      <trkpt lat="43.55" lon="7.1295">
        <ele>37.40039</ele>
        <time>2025-03-30T12:12:43+00:00</time>
      </trkpt>
      <trkpt lat="43.55003" lon="7.12949">
        <ele>37.40039</ele>
        <time>2025-03-30T12:12:44+00:00</time>
      </trkpt>
      <trkpt lat="43.55006" lon="7.12946">
        <ele>37.40039</ele>
        <time>2025-03-30T12:12:45+00:00</time>
      </trkpt>
      <trkpt lat="43.55009" lon="7.12943">
        <ele>37.299805</ele>
        <time>2025-03-30T12:12:46+00:00</time>
      </trkpt>
      <trkpt lat="43.55011" lon="7.12942">
        <ele>37.299805</ele>
        <time>2025-03-30T12:12:47+00:00</time>
      </trkpt>
      <trkpt lat="43.55016" lon="7.12941">
        <ele>37.299805</ele>
        <time>2025-03-30T12:12:49+00:00</time>
      </trkpt>
      <trkpt lat="43.55018" lon="7.12939">
        <ele>37.200195</ele>
        <time>2025-03-30T12:12:50+00:00</time>
      </trkpt>
      <trkpt lat="43.55021" lon="7.12936">
        <ele>37.200195</ele>
        <time>2025-03-30T12:12:51+00:00</time>
      </trkpt>
      <trkpt lat="43.55026" lon="7.12932">
        <ele>37.100586</ele>
        <time>2025-03-30T12:12:53+00:00</time>
      </trkpt>
      <trkpt lat="43.55028" lon="7.12929">
        <ele>37.100586</ele>
        <time>2025-03-30T12:12:54+00:00</time>
      </trkpt>
      <trkpt lat="43.55031" lon="7.12927">
        <ele>37</ele>
        <time>2025-03-30T12:12:55+00:00</time>
      </trkpt>
      <trkpt lat="43.55035" lon="7.12924">
        <ele>36.90039</ele>
        <time>2025-03-30T12:12:57+00:00</time>
      </trkpt>
      <trkpt lat="43.5504" lon="7.12923">
        <ele>36.90039</ele>
        <time>2025-03-30T12:12:59+00:00</time>
      </trkpt>
      <trkpt lat="43.55044" lon="7.12921">
        <ele>36.799805</ele>
        <time>2025-03-30T12:13:00+00:00</time>
      </trkpt>
      <trkpt lat="43.55048" lon="7.12921">
        <ele>36.799805</ele>
        <time>2025-03-30T12:13:01+00:00</time>
      </trkpt>
      <trkpt lat="43.55052" lon="7.1292">
        <ele>36.700195</ele>
        <time>2025-03-30T12:13:02+00:00</time>
      </trkpt>
      <trkpt lat="43.55056" lon="7.12918">
        <ele>36.700195</ele>
        <time>2025-03-30T12:13:03+00:00</time>
      </trkpt>
      <trkpt lat="43.5506" lon="7.12915">
        <ele>36.600586</ele>
        <time>2025-03-30T12:13:04+00:00</time>
      </trkpt>
      <trkpt lat="43.55065" lon="7.12913">
        <ele>36.600586</ele>
        <time>2025-03-30T12:13:05+00:00</time>
      </trkpt>
      <trkpt lat="43.5507" lon="7.12911">
        <ele>36.600586</ele>
        <time>2025-03-30T12:13:06+00:00</time>
      </trkpt>
      <trkpt lat="43.55073" lon="7.12909">
        <ele>36.5</ele>
        <time>2025-03-30T12:13:07+00:00</time>
      </trkpt>
      <trkpt lat="43.55076" lon="7.1291">
        <ele>36.5</ele>
        <time>2025-03-30T12:13:09+00:00</time>
      </trkpt>
      <trkpt lat="43.5508" lon="7.12909">
        <ele>36.5</ele>
        <time>2025-03-30T12:13:10+00:00</time>
      </trkpt>
      <trkpt lat="43.55085" lon="7.12906">
        <ele>36.40039</ele>
        <time>2025-03-30T12:13:11+00:00</time>
      </trkpt>
      <trkpt lat="43.55088" lon="7.12903">
        <ele>36.40039</ele>
        <time>2025-03-30T12:13:12+00:00</time>
      </trkpt>
      <trkpt lat="43.55092" lon="7.12901">
        <ele>36.40039</ele>
        <time>2025-03-30T12:13:13+00:00</time>
      </trkpt>
      <trkpt lat="43.55095" lon="7.12899">
        <ele>36.40039</ele>
        <time>2025-03-30T12:13:14+00:00</time>
      </trkpt>
      <trkpt lat="43.551" lon="7.12899">
        <ele>36.299805</ele>
        <time>2025-03-30T12:13:15+00:00</time>
      </trkpt>
      <trkpt lat="43.55104" lon="7.12899">
        <ele>36.200195</ele>
        <time>2025-03-30T12:13:16+00:00</time>
      </trkpt>
      <trkpt lat="43.55108" lon="7.12897">
        <ele>36.200195</ele>
        <time>2025-03-30T12:13:17+00:00</time>
      </trkpt>
      <trkpt lat="43.55113" lon="7.12897">
        <ele>36.200195</ele>
        <time>2025-03-30T12:13:18+00:00</time>
      </trkpt>
      <trkpt lat="43.55117" lon="7.12895">
        <ele>36.100586</ele>
        <time>2025-03-30T12:13:19+00:00</time>
      </trkpt>
      <trkpt lat="43.55121" lon="7.12893">
        <ele>36.100586</ele>
        <time>2025-03-30T12:13:20+00:00</time>
      </trkpt>
      <trkpt lat="43.55125" lon="7.12891">
        <ele>36</ele>
        <time>2025-03-30T12:13:21+00:00</time>
      </trkpt>
      <trkpt lat="43.5513" lon="7.12889">
        <ele>35.90039</ele>
        <time>2025-03-30T12:13:22+00:00</time>
      </trkpt>
      <trkpt lat="43.55137" lon="7.1289">
        <ele>35.799805</ele>
        <time>2025-03-30T12:13:24+00:00</time>
      </trkpt>
      <trkpt lat="43.55141" lon="7.12889">
        <ele>35.799805</ele>
        <time>2025-03-30T12:13:25+00:00</time>
      </trkpt>
      <trkpt lat="43.55147" lon="7.12888">
        <ele>35.700195</ele>
        <time>2025-03-30T12:13:26+00:00</time>
      </trkpt>
      <trkpt lat="43.55153" lon="7.12886">
        <ele>35.700195</ele>
        <time>2025-03-30T12:13:27+00:00</time>
      </trkpt>
      <trkpt lat="43.55159" lon="7.12884">
        <ele>35.600586</ele>
        <time>2025-03-30T12:13:28+00:00</time>
      </trkpt>
      <trkpt lat="43.55163" lon="7.12882">
        <ele>35.40039</ele>
        <time>2025-03-30T12:13:29+00:00</time>
      </trkpt>
      <trkpt lat="43.55169" lon="7.12884">
        <ele>35.299805</ele>
        <time>2025-03-30T12:13:30+00:00</time>
      </trkpt>
      <trkpt lat="43.55175" lon="7.12885">
        <ele>35.40039</ele>
        <time>2025-03-30T12:13:31+00:00</time>
      </trkpt>
      <trkpt lat="43.55181" lon="7.12887">
        <ele>35.299805</ele>
        <time>2025-03-30T12:13:32+00:00</time>
      </trkpt>
      <trkpt lat="43.55186" lon="7.12888">
        <ele>35.200195</ele>
        <time>2025-03-30T12:13:33+00:00</time>
      </trkpt>
      <trkpt lat="43.55191" lon="7.12891">
        <ele>35</ele>
        <time>2025-03-30T12:13:34+00:00</time>
      </trkpt>
      <trkpt lat="43.55197" lon="7.12892">
        <ele>34.90039</ele>
        <time>2025-03-30T12:13:35+00:00</time>
      </trkpt>
      <trkpt lat="43.55204" lon="7.12891">
        <ele>34.700195</ele>
        <time>2025-03-30T12:13:36+00:00</time>
      </trkpt>
      <trkpt lat="43.5521" lon="7.12891">
        <ele>34.5</ele>
        <time>2025-03-30T12:13:37+00:00</time>
      </trkpt>
      <trkpt lat="43.55215" lon="7.1289">
        <ele>34.5</ele>
        <time>2025-03-30T12:13:38+00:00</time>
      </trkpt>
      <trkpt lat="43.5522" lon="7.12889">
        <ele>34.299805</ele>
        <time>2025-03-30T12:13:39+00:00</time>
      </trkpt>
      <trkpt lat="43.55225" lon="7.12889">
        <ele>34.100586</ele>
        <time>2025-03-30T12:13:40+00:00</time>
      </trkpt>
      <trkpt lat="43.55229" lon="7.12889">
        <ele>34</ele>
        <time>2025-03-30T12:13:41+00:00</time>
      </trkpt>
      <trkpt lat="43.55235" lon="7.12889">
        <ele>33.799805</ele>
        <time>2025-03-30T12:13:42+00:00</time>
      </trkpt>
      <trkpt lat="43.5524" lon="7.12889">
        <ele>33.799805</ele>
        <time>2025-03-30T12:13:43+00:00</time>
      </trkpt>
      <trkpt lat="43.55244" lon="7.12889">
        <ele>33.600586</ele>
        <time>2025-03-30T12:13:44+00:00</time>
      </trkpt>
      <trkpt lat="43.55248" lon="7.12888">
        <ele>33.5</ele>
        <time>2025-03-30T12:13:45+00:00</time>
      </trkpt>
      <trkpt lat="43.55252" lon="7.12888">
        <ele>33.5</ele>
        <time>2025-03-30T12:13:46+00:00</time>
      </trkpt>
      <trkpt lat="43.55256" lon="7.12889">
        <ele>33.40039</ele>
        <time>2025-03-30T12:13:47+00:00</time>
      </trkpt>
      <trkpt lat="43.55259" lon="7.12891">
        <ele>33.40039</ele>
        <time>2025-03-30T12:13:48+00:00</time>
      </trkpt>
      <trkpt lat="43.55265" lon="7.12896">
        <ele>33.299805</ele>
        <time>2025-03-30T12:13:49+00:00</time>
      </trkpt>
      <trkpt lat="43.5527" lon="7.12901">
        <ele>33.299805</ele>
        <time>2025-03-30T12:13:50+00:00</time>
      </trkpt>
      <trkpt lat="43.55275" lon="7.12906">
        <ele>33.299805</ele>
        <time>2025-03-30T12:13:51+00:00</time>
      </trkpt>
      <trkpt lat="43.5528" lon="7.12912">
        <ele>33.100586</ele>
        <time>2025-03-30T12:13:52+00:00</time>
      </trkpt>
      <trkpt lat="43.55285" lon="7.12917">
        <ele>33</ele>
        <time>2025-03-30T12:13:53+00:00</time>
      </trkpt>
      <trkpt lat="43.55289" lon="7.12917">
        <ele>33</ele>
        <time>2025-03-30T12:13:54+00:00</time>
      </trkpt>
      <trkpt lat="43.5529" lon="7.12922">
        <ele>32.799805</ele>
        <time>2025-03-30T12:13:56+00:00</time>
      </trkpt>
      <trkpt lat="43.55291" lon="7.12926">
        <ele>32.799805</ele>
        <time>2025-03-30T12:13:57+00:00</time>
      </trkpt>
      <trkpt lat="43.55291" lon="7.12939">
        <ele>32.200195</ele>
        <time>2025-03-30T12:13:58+00:00</time>
      </trkpt>
      <trkpt lat="43.55294" lon="7.12951">
        <ele>31.799805</ele>
        <time>2025-03-30T12:13:59+00:00</time>
      </trkpt>
      <trkpt lat="43.55296" lon="7.12959">
        <ele>31.299805</ele>
        <time>2025-03-30T12:14:00+00:00</time>
      </trkpt>
      <trkpt lat="43.55299" lon="7.1297">
        <ele>30.40039</ele>
        <time>2025-03-30T12:14:01+00:00</time>
      </trkpt>
      <trkpt lat="43.55302" lon="7.12982">
        <ele>29.90039</ele>
        <time>2025-03-30T12:14:02+00:00</time>
      </trkpt>
      <trkpt lat="43.55305" lon="7.12995">
        <ele>29.299805</ele>
        <time>2025-03-30T12:14:03+00:00</time>
      </trkpt>
      <trkpt lat="43.55307" lon="7.13004">
        <ele>28.799805</ele>
        <time>2025-03-30T12:14:04+00:00</time>
      </trkpt>
      <trkpt lat="43.55311" lon="7.13015">
        <ele>27.5</ele>
        <time>2025-03-30T12:14:05+00:00</time>
      </trkpt>
      <trkpt lat="43.55316" lon="7.1303">
        <ele>26.799805</ele>
        <time>2025-03-30T12:14:06+00:00</time>
      </trkpt>
      <trkpt lat="43.55321" lon="7.13042">
        <ele>25.700195</ele>
        <time>2025-03-30T12:14:07+00:00</time>
      </trkpt>
      <trkpt lat="43.55326" lon="7.13055">
        <ele>25.100586</ele>
        <time>2025-03-30T12:14:08+00:00</time>
      </trkpt>
      <trkpt lat="43.5533" lon="7.13065">
        <ele>24</ele>
        <time>2025-03-30T12:14:09+00:00</time>
      </trkpt>
      <trkpt lat="43.55333" lon="7.13076">
        <ele>23.600586</ele>
        <time>2025-03-30T12:14:10+00:00</time>
      </trkpt>
      <trkpt lat="43.55336" lon="7.13085">
        <ele>22.90039</ele>
        <time>2025-03-30T12:14:11+00:00</time>
      </trkpt>
      <trkpt lat="43.55341" lon="7.13095">
        <ele>22.299805</ele>
        <time>2025-03-30T12:14:12+00:00</time>
      </trkpt>
      <trkpt lat="43.55345" lon="7.13105">
        <ele>21.90039</ele>
        <time>2025-03-30T12:14:13+00:00</time>
      </trkpt>
      <trkpt lat="43.55349" lon="7.13114">
        <ele>21.40039</ele>
        <time>2025-03-30T12:14:14+00:00</time>
      </trkpt>
      <trkpt lat="43.55353" lon="7.13126">
        <ele>20.5</ele>
        <time>2025-03-30T12:14:15+00:00</time>
      </trkpt>
      <trkpt lat="43.55359" lon="7.13139">
        <ele>20.100586</ele>
        <time>2025-03-30T12:14:16+00:00</time>
      </trkpt>
      <trkpt lat="43.55365" lon="7.1315">
        <ele>19.40039</ele>
        <time>2025-03-30T12:14:17+00:00</time>
      </trkpt>
      <trkpt lat="43.55369" lon="7.13163">
        <ele>19</ele>
        <time>2025-03-30T12:14:18+00:00</time>
      </trkpt>
      <trkpt lat="43.55374" lon="7.13174">
        <ele>18.600586</ele>
        <time>2025-03-30T12:14:19+00:00</time>
      </trkpt>
      <trkpt lat="43.55379" lon="7.13184">
        <ele>18.200195</ele>
        <time>2025-03-30T12:14:20+00:00</time>
      </trkpt>
      <trkpt lat="43.55383" lon="7.13194">
        <ele>17.5</ele>
        <time>2025-03-30T12:14:21+00:00</time>
      </trkpt>
      <trkpt lat="43.55388" lon="7.13204">
        <ele>17.100586</ele>
        <time>2025-03-30T12:14:22+00:00</time>
      </trkpt>
      <trkpt lat="43.55393" lon="7.13213">
        <ele>16.700195</ele>
        <time>2025-03-30T12:14:23+00:00</time>
      </trkpt>
      <trkpt lat="43.55396" lon="7.13223">
        <ele>16.40039</ele>
        <time>2025-03-30T12:14:24+00:00</time>
      </trkpt>
      <trkpt lat="43.55401" lon="7.13233">
        <ele>16</ele>
        <time>2025-03-30T12:14:25+00:00</time>
      </trkpt>
      <trkpt lat="43.55407" lon="7.1324">
        <ele>15.700195</ele>
        <time>2025-03-30T12:14:26+00:00</time>
      </trkpt>
      <trkpt lat="43.55413" lon="7.13248">
        <ele>15.299805</ele>
        <time>2025-03-30T12:14:27+00:00</time>
      </trkpt>
      <trkpt lat="43.55419" lon="7.13253">
        <ele>15</ele>
        <time>2025-03-30T12:14:28+00:00</time>
      </trkpt>
      <trkpt lat="43.55423" lon="7.13258">
        <ele>14.900391</ele>
        <time>2025-03-30T12:14:29+00:00</time>
      </trkpt>
      <trkpt lat="43.55427" lon="7.13261">
        <ele>14.900391</ele>
        <time>2025-03-30T12:14:31+00:00</time>
      </trkpt>
      <trkpt lat="43.55433" lon="7.13266">
        <ele>14.600586</ele>
        <time>2025-03-30T12:14:33+00:00</time>
      </trkpt>
      <trkpt lat="43.55438" lon="7.13271">
        <ele>14.200195</ele>
        <time>2025-03-30T12:14:34+00:00</time>
      </trkpt>
      <trkpt lat="43.55442" lon="7.13276">
        <ele>14.200195</ele>
        <time>2025-03-30T12:14:35+00:00</time>
      </trkpt>
      <trkpt lat="43.55447" lon="7.1328">
        <ele>13.900391</ele>
        <time>2025-03-30T12:14:36+00:00</time>
      </trkpt>
      <trkpt lat="43.55454" lon="7.13287">
        <ele>13.900391</ele>
        <time>2025-03-30T12:14:37+00:00</time>
      </trkpt>
      <trkpt lat="43.55462" lon="7.13296">
        <ele>13.5</ele>
        <time>2025-03-30T12:14:38+00:00</time>
      </trkpt>
      <trkpt lat="43.55468" lon="7.13302">
        <ele>13.100586</ele>
        <time>2025-03-30T12:14:39+00:00</time>
      </trkpt>
      <trkpt lat="43.55476" lon="7.13309">
        <ele>12.799805</ele>
        <time>2025-03-30T12:14:40+00:00</time>
      </trkpt>
      <trkpt lat="43.55483" lon="7.13316">
        <ele>12.400391</ele>
        <time>2025-03-30T12:14:41+00:00</time>
      </trkpt>
      <trkpt lat="43.5549" lon="7.13322">
        <ele>11.900391</ele>
        <time>2025-03-30T12:14:42+00:00</time>
      </trkpt>
      <trkpt lat="43.55497" lon="7.13328">
        <ele>11.900391</ele>
        <time>2025-03-30T12:14:43+00:00</time>
      </trkpt>
      <trkpt lat="43.55503" lon="7.13335">
        <ele>11.400391</ele>
        <time>2025-03-30T12:14:44+00:00</time>
      </trkpt>
      <trkpt lat="43.55511" lon="7.13342">
        <ele>10.900391</ele>
        <time>2025-03-30T12:14:45+00:00</time>
      </trkpt>
      <trkpt lat="43.55519" lon="7.13348">
        <ele>10.5</ele>
        <time>2025-03-30T12:14:46+00:00</time>
      </trkpt>
      <trkpt lat="43.55525" lon="7.13355">
        <ele>10.5</ele>
        <time>2025-03-30T12:14:47+00:00</time>
      </trkpt>
      <trkpt lat="43.55533" lon="7.13362">
        <ele>10.100586</ele>
        <time>2025-03-30T12:14:48+00:00</time>
      </trkpt>
      <trkpt lat="43.5554" lon="7.13369">
        <ele>9.799805</ele>
        <time>2025-03-30T12:14:49+00:00</time>
      </trkpt>
      <trkpt lat="43.55547" lon="7.13376">
        <ele>9.400391</ele>
        <time>2025-03-30T12:14:50+00:00</time>
      </trkpt>
      <trkpt lat="43.55554" lon="7.13383">
        <ele>9.100586</ele>
        <time>2025-03-30T12:14:51+00:00</time>
      </trkpt>
      <trkpt lat="43.5556" lon="7.13391">
        <ele>8.799805</ele>
        <time>2025-03-30T12:14:52+00:00</time>
      </trkpt>
      <trkpt lat="43.55567" lon="7.13397">
        <ele>8.799805</ele>
        <time>2025-03-30T12:14:53+00:00</time>
      </trkpt>
      <trkpt lat="43.55574" lon="7.13404">
        <ele>8.400391</ele>
        <time>2025-03-30T12:14:54+00:00</time>
      </trkpt>
      <trkpt lat="43.55579" lon="7.13409">
        <ele>7.7998047</ele>
        <time>2025-03-30T12:14:55+00:00</time>
      </trkpt>
      <trkpt lat="43.55586" lon="7.13416">
        <ele>7.7001953</ele>
        <time>2025-03-30T12:14:56+00:00</time>
      </trkpt>
      <trkpt lat="43.55593" lon="7.13422">
        <ele>5.2001953</ele>
        <time>2025-03-30T12:14:57+00:00</time>
      </trkpt>
      <trkpt lat="43.55599" lon="7.13428">
        <ele>1.7998047</ele>
        <time>2025-03-30T12:14:58+00:00</time>
      </trkpt>
      <trkpt lat="43.55605" lon="7.13433">
        <ele>2.7998047</ele>
        <time>2025-03-30T12:14:59+00:00</time>
      </trkpt>
      <trkpt lat="43.55611" lon="7.1344">
        <ele>3.9003906</ele>
        <time>2025-03-30T12:15:00+00:00</time>
      </trkpt>
      <trkpt lat="43.55618" lon="7.13445">
        <ele>5.5</ele>
        <time>2025-03-30T12:15:01+00:00</time>
      </trkpt>
      <trkpt lat="43.55624" lon="7.13452">
        <ele>5.2001953</ele>
        <time>2025-03-30T12:15:02+00:00</time>
      </trkpt>
      <trkpt lat="43.55629" lon="7.13458">
        <ele>5.5</ele>
        <time>2025-03-30T12:15:03+00:00</time>
      </trkpt>
      <trkpt lat="43.55635" lon="7.13465">
        <ele>4.5</ele>
        <time>2025-03-30T12:15:04+00:00</time>
      </trkpt>
      <trkpt lat="43.55641" lon="7.13471">
        <ele>3.600586</ele>
        <time>2025-03-30T12:15:05+00:00</time>
      </trkpt>
      <trkpt lat="43.55647" lon="7.13475">
        <ele>4.2001953</ele>
        <time>2025-03-30T12:15:06+00:00</time>
      </trkpt>
      <trkpt lat="43.55653" lon="7.1348">
        <ele>2.7998047</ele>
        <time>2025-03-30T12:15:07+00:00</time>
      </trkpt>
      <trkpt lat="43.55659" lon="7.13483">
        <ele>3.2998047</ele>
        <time>2025-03-30T12:15:08+00:00</time>
      </trkpt>
      <trkpt lat="43.55667" lon="7.13483">
        <ele>3.600586</ele>
        <time>2025-03-30T12:15:09+00:00</time>
      </trkpt>
      <trkpt lat="43.55674" lon="7.13484">
        <ele>3.600586</ele>
        <time>2025-03-30T12:15:10+00:00</time>
      </trkpt>
      <trkpt lat="43.55681" lon="7.13484">
        <ele>3.600586</ele>
        <time>2025-03-30T12:15:11+00:00</time>
      </trkpt>
      <trkpt lat="43.55688" lon="7.13485">
        <ele>1</ele>
        <time>2025-03-30T12:15:12+00:00</time>
      </trkpt>
      <trkpt lat="43.55695" lon="7.13484">
        <ele>3.600586</ele>
        <time>2025-03-30T12:15:13+00:00</time>
      </trkpt>
      <trkpt lat="43.55703" lon="7.13483">
        <ele>3.5</ele>
        <time>2025-03-30T12:15:14+00:00</time>
      </trkpt>
      <trkpt lat="43.5571" lon="7.13484">
        <ele>3.5</ele>
        <time>2025-03-30T12:15:15+00:00</time>
      </trkpt>
      <trkpt lat="43.55717" lon="7.13484">
        <ele>3.5</ele>
        <time>2025-03-30T12:15:16+00:00</time>
      </trkpt>
      <trkpt lat="43.55724" lon="7.13482">
        <ele>3.5</ele>
        <time>2025-03-30T12:15:17+00:00</time>
      </trkpt>
      <trkpt lat="43.55731" lon="7.13482">
        <ele>3.5</ele>
        <time>2025-03-30T12:15:18+00:00</time>
      </trkpt>
      <trkpt lat="43.55738" lon="7.13482">
        <ele>3.5</ele>
        <time>2025-03-30T12:15:19+00:00</time>
      </trkpt>
      <trkpt lat="43.55745" lon="7.13482">
        <ele>3.4003906</ele>
        <time>2025-03-30T12:15:20+00:00</time>
      </trkpt>
      <trkpt lat="43.55751" lon="7.13481">
        <ele>3.4003906</ele>
        <time>2025-03-30T12:15:21+00:00</time>
      </trkpt>
      <trkpt lat="43.55758" lon="7.13481">
        <ele>3.2998047</ele>
        <time>2025-03-30T12:15:22+00:00</time>
      </trkpt>
      <trkpt lat="43.55765" lon="7.13481">
        <ele>3.2001953</ele>
        <time>2025-03-30T12:15:23+00:00</time>
      </trkpt>
      <trkpt lat="43.55772" lon="7.13481">
        <ele>3.100586</ele>
        <time>2025-03-30T12:15:24+00:00</time>
      </trkpt>
      <trkpt lat="43.55778" lon="7.1348">
        <ele>3</ele>
        <time>2025-03-30T12:15:25+00:00</time>
      </trkpt>
      <trkpt lat="43.55785" lon="7.13479">
        <ele>2.9003906</ele>
        <time>2025-03-30T12:15:26+00:00</time>
      </trkpt>
      <trkpt lat="43.55791" lon="7.13479">
        <ele>2.7998047</ele>
        <time>2025-03-30T12:15:27+00:00</time>
      </trkpt>
      <trkpt lat="43.55797" lon="7.13479">
        <ele>2.7001953</ele>
        <time>2025-03-30T12:15:28+00:00</time>
      </trkpt>
      <trkpt lat="43.55804" lon="7.13482">
        <ele>2.600586</ele>
        <time>2025-03-30T12:15:29+00:00</time>
      </trkpt>
      <trkpt lat="43.5581" lon="7.13486">
        <ele>-0.20019531</ele>
        <time>2025-03-30T12:15:30+00:00</time>
      </trkpt>
      <trkpt lat="43.55815" lon="7.1349">
        <ele>-0.5996094</ele>
        <time>2025-03-30T12:15:31+00:00</time>
      </trkpt>
      <trkpt lat="43.5582" lon="7.13494">
        <ele>-1.2001953</ele>
        <time>2025-03-30T12:15:32+00:00</time>
      </trkpt>
      <trkpt lat="43.55826" lon="7.13497">
        <ele>-0.5</ele>
        <time>2025-03-30T12:15:33+00:00</time>
      </trkpt>
      <trkpt lat="43.55831" lon="7.135">
        <ele>-0.5</ele>
        <time>2025-03-30T12:15:34+00:00</time>
      </trkpt>
      <trkpt lat="43.55837" lon="7.13505">
        <ele>0.2998047</ele>
        <time>2025-03-30T12:15:35+00:00</time>
      </trkpt>
      <trkpt lat="43.55842" lon="7.1351">
        <ele>1.6005859</ele>
        <time>2025-03-30T12:15:36+00:00</time>
      </trkpt>
      <trkpt lat="43.55847" lon="7.13515">
        <ele>0.20019531</ele>
        <time>2025-03-30T12:15:37+00:00</time>
      </trkpt>
      <trkpt lat="43.55852" lon="7.13518">
        <ele>1.4003906</ele>
        <time>2025-03-30T12:15:38+00:00</time>
      </trkpt>
      <trkpt lat="43.55857" lon="7.13522">
        <ele>2.9003906</ele>
        <time>2025-03-30T12:15:39+00:00</time>
      </trkpt>
      <trkpt lat="43.55863" lon="7.13526">
        <ele>6.100586</ele>
        <time>2025-03-30T12:15:40+00:00</time>
      </trkpt>
      <trkpt lat="43.55869" lon="7.1353">
        <ele>4.7998047</ele>
        <time>2025-03-30T12:15:41+00:00</time>
      </trkpt>
      <trkpt lat="43.55875" lon="7.13534">
        <ele>4.7998047</ele>
        <time>2025-03-30T12:15:42+00:00</time>
      </trkpt>
      <trkpt lat="43.55881" lon="7.13538">
        <ele>1.4003906</ele>
        <time>2025-03-30T12:15:43+00:00</time>
      </trkpt>
      <trkpt lat="43.55886" lon="7.13541">
        <ele>0.9003906</ele>
        <time>2025-03-30T12:15:44+00:00</time>
      </trkpt>
      <trkpt lat="43.5589" lon="7.13543">
        <ele>0.7998047</ele>
        <time>2025-03-30T12:15:45+00:00</time>
      </trkpt>
      <trkpt lat="43.55896" lon="7.13548">
        <ele>5</ele>
        <time>2025-03-30T12:15:46+00:00</time>
      </trkpt>
      <trkpt lat="43.55901" lon="7.13553">
        <ele>2.2998047</ele>
        <time>2025-03-30T12:15:47+00:00</time>
      </trkpt>
      <trkpt lat="43.55906" lon="7.13557">
        <ele>3.7998047</ele>
        <time>2025-03-30T12:15:48+00:00</time>
      </trkpt>
      <trkpt lat="43.55912" lon="7.13561">
        <ele>3.7998047</ele>
        <time>2025-03-30T12:15:49+00:00</time>
      </trkpt>
      <trkpt lat="43.55918" lon="7.13566">
        <ele>2.5</ele>
        <time>2025-03-30T12:15:50+00:00</time>
      </trkpt>
      <trkpt lat="43.55923" lon="7.1357">
        <ele>2.7998047</ele>
        <time>2025-03-30T12:15:51+00:00</time>
      </trkpt>
      <trkpt lat="43.55929" lon="7.13573">
        <ele>-0.20019531</ele>
        <time>2025-03-30T12:15:52+00:00</time>
      </trkpt>
      <trkpt lat="43.55935" lon="7.13577">
        <ele>-0.5</ele>
        <time>2025-03-30T12:15:53+00:00</time>
      </trkpt>
      <trkpt lat="43.5594" lon="7.13581">
        <ele>-0.7998047</ele>
        <time>2025-03-30T12:15:54+00:00</time>
      </trkpt>
      <trkpt lat="43.55946" lon="7.13586">
        <ele>0.40039062</ele>
        <time>2025-03-30T12:15:55+00:00</time>
      </trkpt>
      <trkpt lat="43.55952" lon="7.1359">
        <ele>1.2998047</ele>
        <time>2025-03-30T12:15:56+00:00</time>
      </trkpt>
      <trkpt lat="43.55958" lon="7.13594">
        <ele>2.7998047</ele>
        <time>2025-03-30T12:15:57+00:00</time>
      </trkpt>
      <trkpt lat="43.55964" lon="7.13598">
        <ele>0.7001953</ele>
        <time>2025-03-30T12:15:58+00:00</time>
      </trkpt>
      <trkpt lat="43.55969" lon="7.13602">
        <ele>0.40039062</ele>
        <time>2025-03-30T12:15:59+00:00</time>
      </trkpt>
      <trkpt lat="43.55975" lon="7.13605">
        <ele>-1.2998047</ele>
        <time>2025-03-30T12:16:00+00:00</time>
      </trkpt>
      <trkpt lat="43.55979" lon="7.13609">
        <ele>-1.2998047</ele>
        <time>2025-03-30T12:16:01+00:00</time>
      </trkpt>
      <trkpt lat="43.55985" lon="7.13613">
        <ele>-1.0996094</ele>
        <time>2025-03-30T12:16:02+00:00</time>
      </trkpt>
      <trkpt lat="43.5599" lon="7.13617">
        <ele>-0.39941406</ele>
        <time>2025-03-30T12:16:03+00:00</time>
      </trkpt>
      <trkpt lat="43.55995" lon="7.13621">
        <ele>1.6005859</ele>
        <time>2025-03-30T12:16:04+00:00</time>
      </trkpt>
      <trkpt lat="43.56001" lon="7.13625">
        <ele>1.4003906</ele>
        <time>2025-03-30T12:16:05+00:00</time>
      </trkpt>
      <trkpt lat="43.56007" lon="7.13629">
        <ele>2.100586</ele>
        <time>2025-03-30T12:16:06+00:00</time>
      </trkpt>
      <trkpt lat="43.56012" lon="7.13634">
        <ele>6.1</ele>
        <time>2025-03-30T12:16:07+00:00</time>
      </trkpt>
      <trkpt lat="43.56018" lon="7.13638">
        <ele>-0.20019531</ele>
        <time>2025-03-30T12:16:08+00:00</time>
      </trkpt>
      <trkpt lat="43.56023" lon="7.13642">
        <ele>-1.7001953</ele>
        <time>2025-03-30T12:16:09+00:00</time>
      </trkpt>
      <trkpt lat="43.56029" lon="7.13646">
        <ele>-1.7001953</ele>
        <time>2025-03-30T12:16:10+00:00</time>
      </trkpt>
      <trkpt lat="43.56034" lon="7.1365">
        <ele>-0.7001953</ele>
        <time>2025-03-30T12:16:11+00:00</time>
      </trkpt>
      <trkpt lat="43.56039" lon="7.13654">
        <ele>6.3</ele>
        <time>2025-03-30T12:16:12+00:00</time>
      </trkpt>
      <trkpt lat="43.56045" lon="7.13657">
        <ele>-0.5996094</ele>
        <time>2025-03-30T12:16:13+00:00</time>
      </trkpt>
      <trkpt lat="43.56049" lon="7.13661">
        <ele>-0.5996094</ele>
        <time>2025-03-30T12:16:14+00:00</time>
      </trkpt>
      <trkpt lat="43.56053" lon="7.13665">
        <ele>-1.2001953</ele>
        <time>2025-03-30T12:16:15+00:00</time>
      </trkpt>
      <trkpt lat="43.56058" lon="7.13669">
        <ele>-0.5</ele>
        <time>2025-03-30T12:16:16+00:00</time>
      </trkpt>
      <trkpt lat="43.56063" lon="7.13674">
        <ele>1.1005859</ele>
        <time>2025-03-30T12:16:17+00:00</time>
      </trkpt>
      <trkpt lat="43.56068" lon="7.13678">
        <ele>2.7998047</ele>
        <time>2025-03-30T12:16:18+00:00</time>
      </trkpt>
      <trkpt lat="43.56074" lon="7.13682">
        <ele>6.4</ele>
        <time>2025-03-30T12:16:19+00:00</time>
      </trkpt>
      <trkpt lat="43.56078" lon="7.13686">
        <ele>0.7998047</ele>
        <time>2025-03-30T12:16:20+00:00</time>
      </trkpt>
      <trkpt lat="43.56082" lon="7.1369">
        <ele>2.2998047</ele>
        <time>2025-03-30T12:16:21+00:00</time>
      </trkpt>
      <trkpt lat="43.56086" lon="7.13695">
        <ele>0.40039062</ele>
        <time>2025-03-30T12:16:22+00:00</time>
      </trkpt>
      <trkpt lat="43.5609" lon="7.13699">
        <ele>3.2998047</ele>
        <time>2025-03-30T12:16:23+00:00</time>
      </trkpt>
      <trkpt lat="43.56095" lon="7.13704">
        <ele>4.2001953</ele>
        <time>2025-03-30T12:16:24+00:00</time>
      </trkpt>
      <trkpt lat="43.56099" lon="7.13709">
        <ele>2.4003906</ele>
        <time>2025-03-30T12:16:25+00:00</time>
      </trkpt>
      <trkpt lat="43.56104" lon="7.13713">
        <ele>2.4003906</ele>
        <time>2025-03-30T12:16:26+00:00</time>
      </trkpt>
      <trkpt lat="43.5611" lon="7.13715">
        <ele>4.4003906</ele>
        <time>2025-03-30T12:16:27+00:00</time>
      </trkpt>
      <trkpt lat="43.56114" lon="7.13718">
        <ele>5.100586</ele>
        <time>2025-03-30T12:16:28+00:00</time>
      </trkpt>
      <trkpt lat="43.56119" lon="7.13719">
        <ele>9.100586</ele>
        <time>2025-03-30T12:16:29+00:00</time>
      </trkpt>
      <trkpt lat="43.56124" lon="7.1372">
        <ele>11.299805</ele>
        <time>2025-03-30T12:16:30+00:00</time>
      </trkpt>
      <trkpt lat="43.56127" lon="7.1372">
        <ele>11.299805</ele>
        <time>2025-03-30T12:16:31+00:00</time>
      </trkpt>
      <trkpt lat="43.56129" lon="7.13721">
        <ele>11.299805</ele>
        <time>2025-03-30T12:16:32+00:00</time>
      </trkpt>
      <trkpt lat="43.56133" lon="7.13722">
        <ele>12.100586</ele>
        <time>2025-03-30T12:16:33+00:00</time>
      </trkpt>
      <trkpt lat="43.56136" lon="7.13724">
        <ele>12.100586</ele>
        <time>2025-03-30T12:16:34+00:00</time>
      </trkpt>
      <trkpt lat="43.56139" lon="7.13725">
        <ele>12.799805</ele>
        <time>2025-03-30T12:16:35+00:00</time>
      </trkpt>
      <trkpt lat="43.56141" lon="7.13726">
        <ele>11.600586</ele>
        <time>2025-03-30T12:16:36+00:00</time>
      </trkpt>
      <trkpt lat="43.56147" lon="7.13726">
        <ele>12.700195</ele>
        <time>2025-03-30T12:16:38+00:00</time>
      </trkpt>
      <trkpt lat="43.5615" lon="7.13726">
        <ele>13.600586</ele>
        <time>2025-03-30T12:16:39+00:00</time>
      </trkpt>
      <trkpt lat="43.56153" lon="7.13727">
        <ele>13.600586</ele>
        <time>2025-03-30T12:16:40+00:00</time>
      </trkpt>
      <trkpt lat="43.56157" lon="7.13728">
        <ele>14.400391</ele>
        <time>2025-03-30T12:16:42+00:00</time>
      </trkpt>
      <trkpt lat="43.56162" lon="7.13729">
        <ele>15.100586</ele>
        <time>2025-03-30T12:16:44+00:00</time>
      </trkpt>
      <trkpt lat="43.56165" lon="7.13728">
        <ele>15.100586</ele>
        <time>2025-03-30T12:16:45+00:00</time>
      </trkpt>
      <trkpt lat="43.5617" lon="7.13728">
        <ele>15.700195</ele>
        <time>2025-03-30T12:16:47+00:00</time>
      </trkpt>
      <trkpt lat="43.56173" lon="7.13729">
        <ele>15.700195</ele>
        <time>2025-03-30T12:16:48+00:00</time>
      </trkpt>
      <trkpt lat="43.56176" lon="7.13728">
        <ele>16.299805</ele>
        <time>2025-03-30T12:16:49+00:00</time>
      </trkpt>
      <trkpt lat="43.56179" lon="7.13728">
        <ele>16.299805</ele>
        <time>2025-03-30T12:16:50+00:00</time>
      </trkpt>
      <trkpt lat="43.56182" lon="7.13728">
        <ele>16.799805</ele>
        <time>2025-03-30T12:16:51+00:00</time>
      </trkpt>
      <trkpt lat="43.56187" lon="7.13727">
        <ele>17.299805</ele>
        <time>2025-03-30T12:16:53+00:00</time>
      </trkpt>
      <trkpt lat="43.56191" lon="7.13727">
        <ele>17.299805</ele>
        <time>2025-03-30T12:16:54+00:00</time>
      </trkpt>
      <trkpt lat="43.56193" lon="7.13727">
        <ele>17.799805</ele>
        <time>2025-03-30T12:16:55+00:00</time>
      </trkpt>
      <trkpt lat="43.56199" lon="7.13727">
        <ele>18.299805</ele>
        <time>2025-03-30T12:16:57+00:00</time>
      </trkpt>
      <trkpt lat="43.56202" lon="7.13725">
        <ele>18.299805</ele>
        <time>2025-03-30T12:16:58+00:00</time>
      </trkpt>
      <trkpt lat="43.56207" lon="7.13723">
        <ele>19.799805</ele>
        <time>2025-03-30T12:17:00+00:00</time>
      </trkpt>
      <trkpt lat="43.5621" lon="7.13724">
        <ele>19.799805</ele>
        <time>2025-03-30T12:17:01+00:00</time>
      </trkpt>
      <trkpt lat="43.56213" lon="7.13724">
        <ele>20.200195</ele>
        <time>2025-03-30T12:17:02+00:00</time>
      </trkpt>
      <trkpt lat="43.56218" lon="7.13724">
        <ele>20.700195</ele>
        <time>2025-03-30T12:17:04+00:00</time>
      </trkpt>
      <trkpt lat="43.56223" lon="7.13724">
        <ele>20.700195</ele>
        <time>2025-03-30T12:17:06+00:00</time>
      </trkpt>
      <trkpt lat="43.56226" lon="7.13723">
        <ele>21.200195</ele>
        <time>2025-03-30T12:17:07+00:00</time>
      </trkpt>
      <trkpt lat="43.56229" lon="7.13723">
        <ele>21.200195</ele>
        <time>2025-03-30T12:17:08+00:00</time>
      </trkpt>
      <trkpt lat="43.56232" lon="7.13719">
        <ele>21.600586</ele>
        <time>2025-03-30T12:17:09+00:00</time>
      </trkpt>
      <trkpt lat="43.56235" lon="7.13714">
        <ele>22.700195</ele>
        <time>2025-03-30T12:17:10+00:00</time>
      </trkpt>
      <trkpt lat="43.56236" lon="7.13711">
        <ele>22.700195</ele>
        <time>2025-03-30T12:17:11+00:00</time>
      </trkpt>
      <trkpt lat="43.56237" lon="7.13707">
        <ele>24.40039</ele>
        <time>2025-03-30T12:17:12+00:00</time>
      </trkpt>
      <trkpt lat="43.56238" lon="7.13703">
        <ele>24.40039</ele>
        <time>2025-03-30T12:17:13+00:00</time>
      </trkpt>
      <trkpt lat="43.56241" lon="7.13698">
        <ele>25.600586</ele>
        <time>2025-03-30T12:17:15+00:00</time>
      </trkpt>
      <trkpt lat="43.56243" lon="7.13691">
        <ele>26.100586</ele>
        <time>2025-03-30T12:17:17+00:00</time>
      </trkpt>
      <trkpt lat="43.56246" lon="7.13686">
        <ele>27.200195</ele>
        <time>2025-03-30T12:17:19+00:00</time>
      </trkpt>
      <trkpt lat="43.56248" lon="7.13682">
        <ele>28.700195</ele>
        <time>2025-03-30T12:17:21+00:00</time>
      </trkpt>
      <trkpt lat="43.56249" lon="7.13678">
        <ele>28.700195</ele>
        <time>2025-03-30T12:17:22+00:00</time>
      </trkpt>
      <trkpt lat="43.56251" lon="7.13671">
        <ele>29.799805</ele>
        <time>2025-03-30T12:17:24+00:00</time>
      </trkpt>
      <trkpt lat="43.56253" lon="7.13665">
        <ele>30.700195</ele>
        <time>2025-03-30T12:17:26+00:00</time>
      </trkpt>
      <trkpt lat="43.56256" lon="7.1366">
        <ele>31.100586</ele>
        <time>2025-03-30T12:17:28+00:00</time>
      </trkpt>
      <trkpt lat="43.56258" lon="7.13654">
        <ele>32</ele>
        <time>2025-03-30T12:17:30+00:00</time>
      </trkpt>
      <trkpt lat="43.56259" lon="7.13647">
        <ele>32.799805</ele>
        <time>2025-03-30T12:17:32+00:00</time>
      </trkpt>
      <trkpt lat="43.5626" lon="7.13643">
        <ele>32.799805</ele>
        <time>2025-03-30T12:17:33+00:00</time>
      </trkpt>
      <trkpt lat="43.56261" lon="7.13639">
        <ele>33.90039</ele>
        <time>2025-03-30T12:17:34+00:00</time>
      </trkpt>
      <trkpt lat="43.56262" lon="7.13634">
        <ele>33.90039</ele>
        <time>2025-03-30T12:17:35+00:00</time>
      </trkpt>
      <trkpt lat="43.56263" lon="7.1363">
        <ele>34.5</ele>
        <time>2025-03-30T12:17:36+00:00</time>
      </trkpt>
      <trkpt lat="43.56265" lon="7.13626">
        <ele>34.5</ele>
        <time>2025-03-30T12:17:37+00:00</time>
      </trkpt>
      <trkpt lat="43.56266" lon="7.13622">
        <ele>35</ele>
        <time>2025-03-30T12:17:38+00:00</time>
      </trkpt>
      <trkpt lat="43.56268" lon="7.13616">
        <ele>35.40039</ele>
        <time>2025-03-30T12:17:40+00:00</time>
      </trkpt>
      <trkpt lat="43.56269" lon="7.13612">
        <ele>35.799805</ele>
        <time>2025-03-30T12:17:41+00:00</time>
      </trkpt>
      <trkpt lat="43.56271" lon="7.13606">
        <ele>35.799805</ele>
        <time>2025-03-30T12:17:43+00:00</time>
      </trkpt>
      <trkpt lat="43.56272" lon="7.13601">
        <ele>36.299805</ele>
        <time>2025-03-30T12:17:44+00:00</time>
      </trkpt>
      <trkpt lat="43.56273" lon="7.13597">
        <ele>36.299805</ele>
        <time>2025-03-30T12:17:45+00:00</time>
      </trkpt>
      <trkpt lat="43.56274" lon="7.13593">
        <ele>37</ele>
        <time>2025-03-30T12:17:46+00:00</time>
      </trkpt>
      <trkpt lat="43.56275" lon="7.13586">
        <ele>37.40039</ele>
        <time>2025-03-30T12:17:48+00:00</time>
      </trkpt>
      <trkpt lat="43.56277" lon="7.13579">
        <ele>37.799805</ele>
        <time>2025-03-30T12:17:50+00:00</time>
      </trkpt>
      <trkpt lat="43.56279" lon="7.13575">
        <ele>37.799805</ele>
        <time>2025-03-30T12:17:51+00:00</time>
      </trkpt>
      <trkpt lat="43.5628" lon="7.13571">
        <ele>38</ele>
        <time>2025-03-30T12:17:52+00:00</time>
      </trkpt>
      <trkpt lat="43.56282" lon="7.13564">
        <ele>38.40039</ele>
        <time>2025-03-30T12:17:54+00:00</time>
      </trkpt>
      <trkpt lat="43.56283" lon="7.1356">
        <ele>38.799805</ele>
        <time>2025-03-30T12:17:55+00:00</time>
      </trkpt>
      <trkpt lat="43.56284" lon="7.13554">
        <ele>38.799805</ele>
        <time>2025-03-30T12:17:57+00:00</time>
      </trkpt>
      <trkpt lat="43.56286" lon="7.13548">
        <ele>39.200195</ele>
        <time>2025-03-30T12:17:59+00:00</time>
      </trkpt>
      <trkpt lat="43.56288" lon="7.13542">
        <ele>39.600586</ele>
        <time>2025-03-30T12:18:01+00:00</time>
      </trkpt>
      <trkpt lat="43.56289" lon="7.13537">
        <ele>39.600586</ele>
        <time>2025-03-30T12:18:03+00:00</time>
      </trkpt>
      <trkpt lat="43.56291" lon="7.13532">
        <ele>40.100586</ele>
        <time>2025-03-30T12:18:05+00:00</time>
      </trkpt>
      <trkpt lat="43.56293" lon="7.13528">
        <ele>40.200195</ele>
        <time>2025-03-30T12:18:08+00:00</time>
      </trkpt>
      <trkpt lat="43.56294" lon="7.13524">
        <ele>40.700195</ele>
        <time>2025-03-30T12:18:20+00:00</time>
      </trkpt>
      <trkpt lat="43.56296" lon="7.13519">
        <ele>40.700195</ele>
        <time>2025-03-30T12:18:22+00:00</time>
      </trkpt>
      <trkpt lat="43.56296" lon="7.13515">
        <ele>41.299805</ele>
        <time>2025-03-30T12:18:23+00:00</time>
      </trkpt>
      <trkpt lat="43.56296" lon="7.13511">
        <ele>41.299805</ele>
        <time>2025-03-30T12:18:24+00:00</time>
      </trkpt>
      <trkpt lat="43.56297" lon="7.13506">
        <ele>41.90039</ele>
        <time>2025-03-30T12:18:25+00:00</time>
      </trkpt>
      <trkpt lat="43.56298" lon="7.13503">
        <ele>42</ele>
        <time>2025-03-30T12:18:26+00:00</time>
      </trkpt>
      <trkpt lat="43.56299" lon="7.13498">
        <ele>42.600586</ele>
        <time>2025-03-30T12:18:27+00:00</time>
      </trkpt>
      <trkpt lat="43.56302" lon="7.13493">
        <ele>43.299805</ele>
        <time>2025-03-30T12:18:28+00:00</time>
      </trkpt>
      <trkpt lat="43.56303" lon="7.13488">
        <ele>43.299805</ele>
        <time>2025-03-30T12:18:29+00:00</time>
      </trkpt>
      <trkpt lat="43.56304" lon="7.13484">
        <ele>43.90039</ele>
        <time>2025-03-30T12:18:30+00:00</time>
      </trkpt>
      <trkpt lat="43.56305" lon="7.13478">
        <ele>44</ele>
        <time>2025-03-30T12:18:31+00:00</time>
      </trkpt>
      <trkpt lat="43.56307" lon="7.13473">
        <ele>44.700195</ele>
        <time>2025-03-30T12:18:32+00:00</time>
      </trkpt>
      <trkpt lat="43.5631" lon="7.13466">
        <ele>45.40039</ele>
        <time>2025-03-30T12:18:34+00:00</time>
      </trkpt>
      <trkpt lat="43.56311" lon="7.13462">
        <ele>45.600586</ele>
        <time>2025-03-30T12:18:35+00:00</time>
      </trkpt>
      <trkpt lat="43.56312" lon="7.13458">
        <ele>46.299805</ele>
        <time>2025-03-30T12:18:36+00:00</time>
      </trkpt>
      <trkpt lat="43.56314" lon="7.13455">
        <ele>46.299805</ele>
        <time>2025-03-30T12:18:37+00:00</time>
      </trkpt>
      <trkpt lat="43.56315" lon="7.13451">
        <ele>46.299805</ele>
        <time>2025-03-30T12:18:38+00:00</time>
      </trkpt>
      <trkpt lat="43.56316" lon="7.13446">
        <ele>47.100586</ele>
        <time>2025-03-30T12:18:39+00:00</time>
      </trkpt>
      <trkpt lat="43.56316" lon="7.13442">
        <ele>47.799805</ele>
        <time>2025-03-30T12:18:40+00:00</time>
      </trkpt>
      <trkpt lat="43.56318" lon="7.13436">
        <ele>48</ele>
        <time>2025-03-30T12:18:41+00:00</time>
      </trkpt>
      <trkpt lat="43.5632" lon="7.13432">
        <ele>48.799805</ele>
        <time>2025-03-30T12:18:42+00:00</time>
      </trkpt>
      <trkpt lat="43.56322" lon="7.13427">
        <ele>48.799805</ele>
        <time>2025-03-30T12:18:43+00:00</time>
      </trkpt>
      <trkpt lat="43.56323" lon="7.13423">
        <ele>49.799805</ele>
        <time>2025-03-30T12:18:44+00:00</time>
      </trkpt>
      <trkpt lat="43.56324" lon="7.13417">
        <ele>49.799805</ele>
        <time>2025-03-30T12:18:45+00:00</time>
      </trkpt>
      <trkpt lat="43.56325" lon="7.13412">
        <ele>50.600586</ele>
        <time>2025-03-30T12:18:46+00:00</time>
      </trkpt>
      <trkpt lat="43.56326" lon="7.13408">
        <ele>50.600586</ele>
        <time>2025-03-30T12:18:47+00:00</time>
      </trkpt>
      <trkpt lat="43.56327" lon="7.13403">
        <ele>51.40039</ele>
        <time>2025-03-30T12:18:48+00:00</time>
      </trkpt>
      <trkpt lat="43.56328" lon="7.13399">
        <ele>52.200195</ele>
        <time>2025-03-30T12:18:49+00:00</time>
      </trkpt>
      <trkpt lat="43.5633" lon="7.13395">
        <ele>52.5</ele>
        <time>2025-03-30T12:18:50+00:00</time>
      </trkpt>
      <trkpt lat="43.56331" lon="7.13391">
        <ele>52.5</ele>
        <time>2025-03-30T12:18:51+00:00</time>
      </trkpt>
      <trkpt lat="43.56332" lon="7.13387">
        <ele>53.40039</ele>
        <time>2025-03-30T12:18:52+00:00</time>
      </trkpt>
      <trkpt lat="43.56333" lon="7.13384">
        <ele>53.40039</ele>
        <time>2025-03-30T12:18:53+00:00</time>
      </trkpt>
      <trkpt lat="43.56335" lon="7.13377">
        <ele>54.200195</ele>
        <time>2025-03-30T12:18:55+00:00</time>
      </trkpt>
      <trkpt lat="43.56337" lon="7.13371">
        <ele>55.600586</ele>
        <time>2025-03-30T12:18:57+00:00</time>
      </trkpt>
      <trkpt lat="43.56339" lon="7.13366">
        <ele>55.600586</ele>
        <time>2025-03-30T12:18:59+00:00</time>
      </trkpt>
      <trkpt lat="43.56342" lon="7.13367">
        <ele>56.100586</ele>
        <time>2025-03-30T12:19:02+00:00</time>
      </trkpt>
      <trkpt lat="43.56347" lon="7.13368">
        <ele>56.100586</ele>
        <time>2025-03-30T12:19:04+00:00</time>
      </trkpt>
      <trkpt lat="43.5635" lon="7.13371">
        <ele>56.700195</ele>
        <time>2025-03-30T12:19:05+00:00</time>
      </trkpt>
      <trkpt lat="43.56353" lon="7.13374">
        <ele>55.700195</ele>
        <time>2025-03-30T12:19:06+00:00</time>
      </trkpt>
      <trkpt lat="43.56358" lon="7.13378">
        <ele>56.299805</ele>
        <time>2025-03-30T12:19:07+00:00</time>
      </trkpt>
      <trkpt lat="43.56362" lon="7.13381">
        <ele>56.799805</ele>
        <time>2025-03-30T12:19:08+00:00</time>
      </trkpt>
      <trkpt lat="43.56366" lon="7.13386">
        <ele>55.600586</ele>
        <time>2025-03-30T12:19:09+00:00</time>
      </trkpt>
      <trkpt lat="43.56371" lon="7.13391">
        <ele>54.799805</ele>
        <time>2025-03-30T12:19:10+00:00</time>
      </trkpt>
      <trkpt lat="43.56377" lon="7.13396">
        <ele>55.299805</ele>
        <time>2025-03-30T12:19:11+00:00</time>
      </trkpt>
      <trkpt lat="43.56383" lon="7.134">
        <ele>54.299805</ele>
        <time>2025-03-30T12:19:12+00:00</time>
      </trkpt>
      <trkpt lat="43.56389" lon="7.13405">
        <ele>54.700195</ele>
        <time>2025-03-30T12:19:13+00:00</time>
      </trkpt>
      <trkpt lat="43.56395" lon="7.1341">
        <ele>53.700195</ele>
        <time>2025-03-30T12:19:14+00:00</time>
      </trkpt>
      <trkpt lat="43.56401" lon="7.13414">
        <ele>54.100586</ele>
        <time>2025-03-30T12:19:15+00:00</time>
      </trkpt>
      <trkpt lat="43.56408" lon="7.13418">
        <ele>52.90039</ele>
        <time>2025-03-30T12:19:16+00:00</time>
      </trkpt>
      <trkpt lat="43.56414" lon="7.13421">
        <ele>53.200195</ele>
        <time>2025-03-30T12:19:17+00:00</time>
      </trkpt>
      <trkpt lat="43.5642" lon="7.13424">
        <ele>53.5</ele>
        <time>2025-03-30T12:19:18+00:00</time>
      </trkpt>
      <trkpt lat="43.56425" lon="7.13427">
        <ele>52.40039</ele>
        <time>2025-03-30T12:19:19+00:00</time>
      </trkpt>
      <trkpt lat="43.5643" lon="7.1343">
        <ele>52.799805</ele>
        <time>2025-03-30T12:19:20+00:00</time>
      </trkpt>
      <trkpt lat="43.56435" lon="7.13432">
        <ele>53.200195</ele>
        <time>2025-03-30T12:19:21+00:00</time>
      </trkpt>
      <trkpt lat="43.56439" lon="7.13435">
        <ele>51.90039</ele>
        <time>2025-03-30T12:19:22+00:00</time>
      </trkpt>
      <trkpt lat="43.56443" lon="7.13437">
        <ele>52.40039</ele>
        <time>2025-03-30T12:19:23+00:00</time>
      </trkpt>
      <trkpt lat="43.56447" lon="7.13437">
        <ele>52.40039</ele>
        <time>2025-03-30T12:19:24+00:00</time>
      </trkpt>
      <trkpt lat="43.5645" lon="7.13439">
        <ele>52.799805</ele>
        <time>2025-03-30T12:19:25+00:00</time>
      </trkpt>
      <trkpt lat="43.56457" lon="7.13442">
        <ele>53.299805</ele>
        <time>2025-03-30T12:19:27+00:00</time>
      </trkpt>
      <trkpt lat="43.5646" lon="7.13444">
        <ele>52.40039</ele>
        <time>2025-03-30T12:19:28+00:00</time>
      </trkpt>
      <trkpt lat="43.56464" lon="7.13445">
        <ele>52.40039</ele>
        <time>2025-03-30T12:19:29+00:00</time>
      </trkpt>
      <trkpt lat="43.56468" lon="7.13446">
        <ele>52.90039</ele>
        <time>2025-03-30T12:19:30+00:00</time>
      </trkpt>
      <trkpt lat="43.56472" lon="7.13448">
        <ele>53.40039</ele>
        <time>2025-03-30T12:19:31+00:00</time>
      </trkpt>
      <trkpt lat="43.56476" lon="7.13451">
        <ele>52.100586</ele>
        <time>2025-03-30T12:19:32+00:00</time>
      </trkpt>
      <trkpt lat="43.56479" lon="7.13452">
        <ele>52.5</ele>
        <time>2025-03-30T12:19:33+00:00</time>
      </trkpt>
      <trkpt lat="43.56482" lon="7.13452">
        <ele>52.5</ele>
        <time>2025-03-30T12:19:34+00:00</time>
      </trkpt>
      <trkpt lat="43.56486" lon="7.13451">
        <ele>53</ele>
        <time>2025-03-30T12:19:35+00:00</time>
      </trkpt>
      <trkpt lat="43.56488" lon="7.13452">
        <ele>53</ele>
        <time>2025-03-30T12:19:36+00:00</time>
      </trkpt>
      <trkpt lat="43.56491" lon="7.13454">
        <ele>53.5</ele>
        <time>2025-03-30T12:19:37+00:00</time>
      </trkpt>
      <trkpt lat="43.56493" lon="7.13456">
        <ele>53.5</ele>
        <time>2025-03-30T12:19:38+00:00</time>
      </trkpt>
      <trkpt lat="43.56498" lon="7.13456">
        <ele>53.90039</ele>
        <time>2025-03-30T12:19:40+00:00</time>
      </trkpt>
      <trkpt lat="43.56501" lon="7.13458">
        <ele>53.90039</ele>
        <time>2025-03-30T12:19:41+00:00</time>
      </trkpt>
      <trkpt lat="43.56505" lon="7.13459">
        <ele>53.200195</ele>
        <time>2025-03-30T12:19:42+00:00</time>
      </trkpt>
      <trkpt lat="43.5651" lon="7.13461">
        <ele>53.700195</ele>
        <time>2025-03-30T12:19:43+00:00</time>
      </trkpt>
      <trkpt lat="43.56515" lon="7.13463">
        <ele>53.700195</ele>
        <time>2025-03-30T12:19:44+00:00</time>
      </trkpt>
      <trkpt lat="43.56519" lon="7.13463">
        <ele>54.200195</ele>
        <time>2025-03-30T12:19:45+00:00</time>
      </trkpt>
      <trkpt lat="43.56523" lon="7.13464">
        <ele>54.5</ele>
        <time>2025-03-30T12:19:46+00:00</time>
      </trkpt>
      <trkpt lat="43.56525" lon="7.13467">
        <ele>54.5</ele>
        <time>2025-03-30T12:19:47+00:00</time>
      </trkpt>
      <trkpt lat="43.56528" lon="7.13469">
        <ele>53.299805</ele>
        <time>2025-03-30T12:19:48+00:00</time>
      </trkpt>
      <trkpt lat="43.56532" lon="7.13471">
        <ele>53.600586</ele>
        <time>2025-03-30T12:19:49+00:00</time>
      </trkpt>
      <trkpt lat="43.56536" lon="7.13472">
        <ele>53.799805</ele>
        <time>2025-03-30T12:19:50+00:00</time>
      </trkpt>
      <trkpt lat="43.56541" lon="7.13472">
        <ele>53.799805</ele>
        <time>2025-03-30T12:19:51+00:00</time>
      </trkpt>
      <trkpt lat="43.56544" lon="7.13474">
        <ele>53.799805</ele>
        <time>2025-03-30T12:19:52+00:00</time>
      </trkpt>
      <trkpt lat="43.56549" lon="7.13474">
        <ele>53.90039</ele>
        <time>2025-03-30T12:19:53+00:00</time>
      </trkpt>
      <trkpt lat="43.56553" lon="7.13472">
        <ele>53.799805</ele>
        <time>2025-03-30T12:19:54+00:00</time>
      </trkpt>
      <trkpt lat="43.56558" lon="7.13472">
        <ele>53.799805</ele>
        <time>2025-03-30T12:19:55+00:00</time>
      </trkpt>
      <trkpt lat="43.56564" lon="7.1347">
        <ele>53.700195</ele>
        <time>2025-03-30T12:19:56+00:00</time>
      </trkpt>
      <trkpt lat="43.56569" lon="7.13469">
        <ele>53.600586</ele>
        <time>2025-03-30T12:19:57+00:00</time>
      </trkpt>
      <trkpt lat="43.56574" lon="7.13469">
        <ele>53.299805</ele>
        <time>2025-03-30T12:19:58+00:00</time>
      </trkpt>
      <trkpt lat="43.56579" lon="7.13467">
        <ele>53.700195</ele>
        <time>2025-03-30T12:19:59+00:00</time>
      </trkpt>
      <trkpt lat="43.56583" lon="7.13465">
        <ele>53.700195</ele>
        <time>2025-03-30T12:20:00+00:00</time>
      </trkpt>
      <trkpt lat="43.56589" lon="7.13463">
        <ele>53.299805</ele>
        <time>2025-03-30T12:20:01+00:00</time>
      </trkpt>
      <trkpt lat="43.56595" lon="7.13462">
        <ele>52.700195</ele>
        <time>2025-03-30T12:20:02+00:00</time>
      </trkpt>
      <trkpt lat="43.56601" lon="7.13461">
        <ele>52.100586</ele>
        <time>2025-03-30T12:20:03+00:00</time>
      </trkpt>
      <trkpt lat="43.56607" lon="7.13459">
        <ele>52</ele>
        <time>2025-03-30T12:20:04+00:00</time>
      </trkpt>
      <trkpt lat="43.56613" lon="7.13457">
        <ele>51.299805</ele>
        <time>2025-03-30T12:20:05+00:00</time>
      </trkpt>
      <trkpt lat="43.56621" lon="7.13456">
        <ele>50.5</ele>
        <time>2025-03-30T12:20:06+00:00</time>
      </trkpt>
      <trkpt lat="43.56626" lon="7.13455">
        <ele>49.600586</ele>
        <time>2025-03-30T12:20:07+00:00</time>
      </trkpt>
      <trkpt lat="43.56633" lon="7.13453">
        <ele>48.700195</ele>
        <time>2025-03-30T12:20:08+00:00</time>
      </trkpt>
      <trkpt lat="43.5664" lon="7.1345">
        <ele>48.200195</ele>
        <time>2025-03-30T12:20:09+00:00</time>
      </trkpt>
      <trkpt lat="43.56645" lon="7.13449">
        <ele>47.40039</ele>
        <time>2025-03-30T12:20:10+00:00</time>
      </trkpt>
      <trkpt lat="43.56653" lon="7.13447">
        <ele>45.700195</ele>
        <time>2025-03-30T12:20:11+00:00</time>
      </trkpt>
      <trkpt lat="43.5666" lon="7.13446">
        <ele>44.90039</ele>
        <time>2025-03-30T12:20:12+00:00</time>
      </trkpt>
      <trkpt lat="43.56667" lon="7.13442">
        <ele>44.40039</ele>
        <time>2025-03-30T12:20:13+00:00</time>
      </trkpt>
      <trkpt lat="43.56671" lon="7.13442">
        <ele>43.600586</ele>
        <time>2025-03-30T12:20:14+00:00</time>
      </trkpt>
      <trkpt lat="43.56676" lon="7.13442">
        <ele>43.600586</ele>
        <time>2025-03-30T12:20:15+00:00</time>
      </trkpt>
      <trkpt lat="43.56683" lon="7.13441">
        <ele>43.100586</ele>
        <time>2025-03-30T12:20:16+00:00</time>
      </trkpt>
      <trkpt lat="43.56689" lon="7.13438">
        <ele>42.600586</ele>
        <time>2025-03-30T12:20:17+00:00</time>
      </trkpt>
      <trkpt lat="43.56696" lon="7.13434">
        <ele>41.600586</ele>
        <time>2025-03-30T12:20:18+00:00</time>
      </trkpt>
      <trkpt lat="43.56701" lon="7.13431">
        <ele>41.700195</ele>
        <time>2025-03-30T12:20:19+00:00</time>
      </trkpt>
      <trkpt lat="43.56706" lon="7.13426">
        <ele>41.100586</ele>
        <time>2025-03-30T12:20:20+00:00</time>
      </trkpt>
      <trkpt lat="43.56712" lon="7.13422">
        <ele>40.40039</ele>
        <time>2025-03-30T12:20:21+00:00</time>
      </trkpt>
      <trkpt lat="43.56717" lon="7.13418">
        <ele>39.700195</ele>
        <time>2025-03-30T12:20:22+00:00</time>
      </trkpt>
      <trkpt lat="43.5672" lon="7.13415">
        <ele>39.700195</ele>
        <time>2025-03-30T12:20:23+00:00</time>
      </trkpt>
      <trkpt lat="43.56726" lon="7.13412">
        <ele>39</ele>
        <time>2025-03-30T12:20:24+00:00</time>
      </trkpt>
      <trkpt lat="43.56732" lon="7.13406">
        <ele>38.200195</ele>
        <time>2025-03-30T12:20:25+00:00</time>
      </trkpt>
      <trkpt lat="43.56738" lon="7.13402">
        <ele>37.100586</ele>
        <time>2025-03-30T12:20:26+00:00</time>
      </trkpt>
      <trkpt lat="43.56744" lon="7.13397">
        <ele>36.200195</ele>
        <time>2025-03-30T12:20:27+00:00</time>
      </trkpt>
      <trkpt lat="43.56749" lon="7.13392">
        <ele>35.200195</ele>
        <time>2025-03-30T12:20:28+00:00</time>
      </trkpt>
      <trkpt lat="43.56754" lon="7.13388">
        <ele>34.5</ele>
        <time>2025-03-30T12:20:29+00:00</time>
      </trkpt>
      <trkpt lat="43.56759" lon="7.13384">
        <ele>33.700195</ele>
        <time>2025-03-30T12:20:30+00:00</time>
      </trkpt>
      <trkpt lat="43.56765" lon="7.1338">
        <ele>33</ele>
        <time>2025-03-30T12:20:31+00:00</time>
      </trkpt>
      <trkpt lat="43.56771" lon="7.13374">
        <ele>33</ele>
        <time>2025-03-30T12:20:32+00:00</time>
      </trkpt>
      <trkpt lat="43.56776" lon="7.13369">
        <ele>32.100586</ele>
        <time>2025-03-30T12:20:33+00:00</time>
      </trkpt>
      <trkpt lat="43.56781" lon="7.13364">
        <ele>31.100586</ele>
        <time>2025-03-30T12:20:34+00:00</time>
      </trkpt>
      <trkpt lat="43.56787" lon="7.13358">
        <ele>30.5</ele>
        <time>2025-03-30T12:20:35+00:00</time>
      </trkpt>
      <trkpt lat="43.56791" lon="7.13354">
        <ele>29.40039</ele>
        <time>2025-03-30T12:20:36+00:00</time>
      </trkpt>
      <trkpt lat="43.56796" lon="7.13351">
        <ele>28.700195</ele>
        <time>2025-03-30T12:20:37+00:00</time>
      </trkpt>
      <trkpt lat="43.568" lon="7.13349">
        <ele>28.700195</ele>
        <time>2025-03-30T12:20:38+00:00</time>
      </trkpt>
      <trkpt lat="43.56804" lon="7.13346">
        <ele>27.40039</ele>
        <time>2025-03-30T12:20:39+00:00</time>
      </trkpt>
      <trkpt lat="43.56811" lon="7.13347">
        <ele>26.700195</ele>
        <time>2025-03-30T12:20:40+00:00</time>
      </trkpt>
      <trkpt lat="43.56819" lon="7.13349">
        <ele>26.5</ele>
        <time>2025-03-30T12:20:41+00:00</time>
      </trkpt>
      <trkpt lat="43.56825" lon="7.1335">
        <ele>25.799805</ele>
        <time>2025-03-30T12:20:42+00:00</time>
      </trkpt>
      <trkpt lat="43.56831" lon="7.1335">
        <ele>25</ele>
        <time>2025-03-30T12:20:43+00:00</time>
      </trkpt>
      <trkpt lat="43.56838" lon="7.13351">
        <ele>24.200195</ele>
        <time>2025-03-30T12:20:44+00:00</time>
      </trkpt>
      <trkpt lat="43.56845" lon="7.13353">
        <ele>22.700195</ele>
        <time>2025-03-30T12:20:45+00:00</time>
      </trkpt>
      <trkpt lat="43.56853" lon="7.13353">
        <ele>21.90039</ele>
        <time>2025-03-30T12:20:46+00:00</time>
      </trkpt>
      <trkpt lat="43.5686" lon="7.13354">
        <ele>21.200195</ele>
        <time>2025-03-30T12:20:47+00:00</time>
      </trkpt>
      <trkpt lat="43.56864" lon="7.13355">
        <ele>20.40039</ele>
        <time>2025-03-30T12:20:48+00:00</time>
      </trkpt>
      <trkpt lat="43.56868" lon="7.13355">
        <ele>20.40039</ele>
        <time>2025-03-30T12:20:49+00:00</time>
      </trkpt>
      <trkpt lat="43.56872" lon="7.13355">
        <ele>19.600586</ele>
        <time>2025-03-30T12:20:50+00:00</time>
      </trkpt>
      <trkpt lat="43.56877" lon="7.13355">
        <ele>18.700195</ele>
        <time>2025-03-30T12:20:51+00:00</time>
      </trkpt>
      <trkpt lat="43.56883" lon="7.13354">
        <ele>17.799805</ele>
        <time>2025-03-30T12:20:52+00:00</time>
      </trkpt>
      <trkpt lat="43.56888" lon="7.13352">
        <ele>17.799805</ele>
        <time>2025-03-30T12:20:53+00:00</time>
      </trkpt>
      <trkpt lat="43.56892" lon="7.13349">
        <ele>16.799805</ele>
        <time>2025-03-30T12:20:54+00:00</time>
      </trkpt>
      <trkpt lat="43.56896" lon="7.13348">
        <ele>15.700195</ele>
        <time>2025-03-30T12:20:55+00:00</time>
      </trkpt>
      <trkpt lat="43.569" lon="7.13342">
        <ele>15.400391</ele>
        <time>2025-03-30T12:20:56+00:00</time>
      </trkpt>
      <trkpt lat="43.56902" lon="7.13336">
        <ele>14</ele>
        <time>2025-03-30T12:20:57+00:00</time>
      </trkpt>
      <trkpt lat="43.56904" lon="7.13328">
        <ele>13.5</ele>
        <time>2025-03-30T12:20:58+00:00</time>
      </trkpt>
      <trkpt lat="43.56906" lon="7.1332">
        <ele>13.100586</ele>
        <time>2025-03-30T12:20:59+00:00</time>
      </trkpt>
      <trkpt lat="43.56904" lon="7.13314">
        <ele>13.100586</ele>
        <time>2025-03-30T12:21:00+00:00</time>
      </trkpt>
      <trkpt lat="43.56901" lon="7.1331">
        <ele>13.5</ele>
        <time>2025-03-30T12:21:01+00:00</time>
      </trkpt>
      <trkpt lat="43.56898" lon="7.13304">
        <ele>13.100586</ele>
        <time>2025-03-30T12:21:03+00:00</time>
      </trkpt>
      <trkpt lat="43.56896" lon="7.133">
        <ele>13.100586</ele>
        <time>2025-03-30T12:21:04+00:00</time>
      </trkpt>
      <trkpt lat="43.56898" lon="7.13295">
        <ele>12.700195</ele>
        <time>2025-03-30T12:21:06+00:00</time>
      </trkpt>
      <trkpt lat="43.56904" lon="7.13297">
        <ele>12.400391</ele>
        <time>2025-03-30T12:21:08+00:00</time>
      </trkpt>
      <trkpt lat="43.56908" lon="7.133">
        <ele>11.600586</ele>
        <time>2025-03-30T12:21:09+00:00</time>
      </trkpt>
      <trkpt lat="43.56914" lon="7.13302">
        <ele>10.900391</ele>
        <time>2025-03-30T12:21:10+00:00</time>
      </trkpt>
      <trkpt lat="43.5692" lon="7.13305">
        <ele>11.299805</ele>
        <time>2025-03-30T12:21:11+00:00</time>
      </trkpt>
      <trkpt lat="43.56925" lon="7.13307">
        <ele>10.600586</ele>
        <time>2025-03-30T12:21:12+00:00</time>
      </trkpt>
      <trkpt lat="43.5693" lon="7.13311">
        <ele>10</ele>
        <time>2025-03-30T12:21:13+00:00</time>
      </trkpt>
      <trkpt lat="43.56936" lon="7.13316">
        <ele>9.700195</ele>
        <time>2025-03-30T12:21:14+00:00</time>
      </trkpt>
      <trkpt lat="43.56941" lon="7.13322">
        <ele>9.200195</ele>
        <time>2025-03-30T12:21:15+00:00</time>
      </trkpt>
      <trkpt lat="43.56943" lon="7.1333">
        <ele>9.200195</ele>
        <time>2025-03-30T12:21:16+00:00</time>
      </trkpt>
      <trkpt lat="43.56944" lon="7.13336">
        <ele>9.400391</ele>
        <time>2025-03-30T12:21:17+00:00</time>
      </trkpt>
      <trkpt lat="43.56945" lon="7.13346">
        <ele>9.600586</ele>
        <time>2025-03-30T12:21:18+00:00</time>
      </trkpt>
      <trkpt lat="43.56943" lon="7.13354">
        <ele>9.799805</ele>
        <time>2025-03-30T12:21:19+00:00</time>
      </trkpt>
      <trkpt lat="43.56942" lon="7.13363">
        <ele>10</ele>
        <time>2025-03-30T12:21:20+00:00</time>
      </trkpt>
      <trkpt lat="43.56942" lon="7.13369">
        <ele>10.200195</ele>
        <time>2025-03-30T12:21:21+00:00</time>
      </trkpt>
      <trkpt lat="43.56942" lon="7.13375">
        <ele>10.400391</ele>
        <time>2025-03-30T12:21:22+00:00</time>
      </trkpt>
      <trkpt lat="43.56941" lon="7.13379">
        <ele>10.400391</ele>
        <time>2025-03-30T12:21:23+00:00</time>
      </trkpt>
      <trkpt lat="43.56945" lon="7.13383">
        <ele>10.600586</ele>
        <time>2025-03-30T12:21:24+00:00</time>
      </trkpt>
      <trkpt lat="43.5695" lon="7.13388">
        <ele>10</ele>
        <time>2025-03-30T12:21:25+00:00</time>
      </trkpt>
      <trkpt lat="43.56954" lon="7.13391">
        <ele>9.5</ele>
        <time>2025-03-30T12:21:26+00:00</time>
      </trkpt>
      <trkpt lat="43.5696" lon="7.13391">
        <ele>8.799805</ele>
        <time>2025-03-30T12:21:27+00:00</time>
      </trkpt>
      <trkpt lat="43.56965" lon="7.13391">
        <ele>8.100586</ele>
        <time>2025-03-30T12:21:28+00:00</time>
      </trkpt>
      <trkpt lat="43.56969" lon="7.13393">
        <ele>8.100586</ele>
        <time>2025-03-30T12:21:29+00:00</time>
      </trkpt>
      <trkpt lat="43.56974" lon="7.13395">
        <ele>7.4003906</ele>
        <time>2025-03-30T12:21:30+00:00</time>
      </trkpt>
      <trkpt lat="43.56977" lon="7.13397">
        <ele>6.5</ele>
        <time>2025-03-30T12:21:31+00:00</time>
      </trkpt>
      <trkpt lat="43.5698" lon="7.13398">
        <ele>6.5</ele>
        <time>2025-03-30T12:21:32+00:00</time>
      </trkpt>
      <trkpt lat="43.56983" lon="7.134">
        <ele>5.4003906</ele>
        <time>2025-03-30T12:21:34+00:00</time>
      </trkpt>
      <trkpt lat="43.56986" lon="7.13402">
        <ele>5.4003906</ele>
        <time>2025-03-30T12:21:36+00:00</time>
      </trkpt>
      <trkpt lat="43.56989" lon="7.13393">
        <ele>4.600586</ele>
        <time>2025-03-30T12:21:38+00:00</time>
      </trkpt>
      <trkpt lat="43.56991" lon="7.13388">
        <ele>4.600586</ele>
        <time>2025-03-30T12:21:39+00:00</time>
      </trkpt>
      <trkpt lat="43.56994" lon="7.13383">
        <ele>4.600586</ele>
        <time>2025-03-30T12:21:40+00:00</time>
      </trkpt>
      <trkpt lat="43.56996" lon="7.13377">
        <ele>3.7998047</ele>
        <time>2025-03-30T12:21:41+00:00</time>
      </trkpt>
      <trkpt lat="43.56997" lon="7.13372">
        <ele>3.9003906</ele>
        <time>2025-03-30T12:21:42+00:00</time>
      </trkpt>
      <trkpt lat="43.56998" lon="7.13366">
        <ele>3.9003906</ele>
        <time>2025-03-30T12:21:43+00:00</time>
      </trkpt>
      <trkpt lat="43.56999" lon="7.13361">
        <ele>3.9003906</ele>
        <time>2025-03-30T12:21:44+00:00</time>
      </trkpt>
      <trkpt lat="43.56999" lon="7.13355">
        <ele>3.9003906</ele>
        <time>2025-03-30T12:21:45+00:00</time>
      </trkpt>
      <trkpt lat="43.56999" lon="7.13351">
        <ele>3.9003906</ele>
        <time>2025-03-30T12:21:46+00:00</time>
      </trkpt>
      <trkpt lat="43.56999" lon="7.13344">
        <ele>3.9003906</ele>
        <time>2025-03-30T12:21:47+00:00</time>
      </trkpt>
      <trkpt lat="43.56999" lon="7.13339">
        <ele>3.9003906</ele>
        <time>2025-03-30T12:21:48+00:00</time>
      </trkpt>
      <trkpt lat="43.56997" lon="7.13334">
        <ele>3.9003906</ele>
        <time>2025-03-30T12:21:49+00:00</time>
      </trkpt>
      <trkpt lat="43.56995" lon="7.13327">
        <ele>3.7998047</ele>
        <time>2025-03-30T12:21:50+00:00</time>
      </trkpt>
      <trkpt lat="43.56993" lon="7.13319">
        <ele>4.2998047</ele>
        <time>2025-03-30T12:21:51+00:00</time>
      </trkpt>
      <trkpt lat="43.56989" lon="7.13313">
        <ele>4.2998047</ele>
        <time>2025-03-30T12:21:52+00:00</time>
      </trkpt>
      <trkpt lat="43.56985" lon="7.13307">
        <ele>4.7998047</ele>
        <time>2025-03-30T12:21:53+00:00</time>
      </trkpt>
      <trkpt lat="43.56982" lon="7.13301">
        <ele>5.2001953</ele>
        <time>2025-03-30T12:21:54+00:00</time>
      </trkpt>
      <trkpt lat="43.56979" lon="7.13295">
        <ele>5</ele>
        <time>2025-03-30T12:21:55+00:00</time>
      </trkpt>
      <trkpt lat="43.56975" lon="7.13288">
        <ele>5.600586</ele>
        <time>2025-03-30T12:21:56+00:00</time>
      </trkpt>
      <trkpt lat="43.56972" lon="7.13281">
        <ele>5.4003906</ele>
        <time>2025-03-30T12:21:57+00:00</time>
      </trkpt>
      <trkpt lat="43.56968" lon="7.13275">
        <ele>5.7001953</ele>
        <time>2025-03-30T12:21:58+00:00</time>
      </trkpt>
      <trkpt lat="43.56965" lon="7.13269">
        <ele>5.5</ele>
        <time>2025-03-30T12:21:59+00:00</time>
      </trkpt>
      <trkpt lat="43.56962" lon="7.13261">
        <ele>5.7001953</ele>
        <time>2025-03-30T12:22:00+00:00</time>
      </trkpt>
      <trkpt lat="43.56958" lon="7.13253">
        <ele>5.7001953</ele>
        <time>2025-03-30T12:22:01+00:00</time>
      </trkpt>
      <trkpt lat="43.56954" lon="7.13245">
        <ele>5.7001953</ele>
        <time>2025-03-30T12:22:02+00:00</time>
      </trkpt>
      <trkpt lat="43.5695" lon="7.13238">
        <ele>5.7998047</ele>
        <time>2025-03-30T12:22:03+00:00</time>
      </trkpt>
      <trkpt lat="43.56945" lon="7.1323">
        <ele>5.5</ele>
        <time>2025-03-30T12:22:04+00:00</time>
      </trkpt>
      <trkpt lat="43.56941" lon="7.13222">
        <ele>5.7001953</ele>
        <time>2025-03-30T12:22:05+00:00</time>
      </trkpt>
      <trkpt lat="43.56936" lon="7.13213">
        <ele>5.9003906</ele>
        <time>2025-03-30T12:22:06+00:00</time>
      </trkpt>
      <trkpt lat="43.56931" lon="7.13206">
        <ele>6</ele>
        <time>2025-03-30T12:22:07+00:00</time>
      </trkpt>
      <trkpt lat="43.56925" lon="7.13199">
        <ele>6</ele>
        <time>2025-03-30T12:22:08+00:00</time>
      </trkpt>
      <trkpt lat="43.5692" lon="7.13193">
        <ele>6</ele>
        <time>2025-03-30T12:22:09+00:00</time>
      </trkpt>
      <trkpt lat="43.56916" lon="7.13188">
        <ele>6</ele>
        <time>2025-03-30T12:22:10+00:00</time>
      </trkpt>
      <trkpt lat="43.56911" lon="7.13182">
        <ele>6</ele>
        <time>2025-03-30T12:22:11+00:00</time>
      </trkpt>
      <trkpt lat="43.56907" lon="7.13175">
        <ele>5.9003906</ele>
        <time>2025-03-30T12:22:12+00:00</time>
      </trkpt>
      <trkpt lat="43.56903" lon="7.13168">
        <ele>5.9003906</ele>
        <time>2025-03-30T12:22:13+00:00</time>
      </trkpt>
      <trkpt lat="43.56901" lon="7.13161">
        <ele>5.7998047</ele>
        <time>2025-03-30T12:22:14+00:00</time>
      </trkpt>
      <trkpt lat="43.56898" lon="7.13154">
        <ele>5.2998047</ele>
        <time>2025-03-30T12:22:15+00:00</time>
      </trkpt>
      <trkpt lat="43.56897" lon="7.13146">
        <ele>4.7998047</ele>
        <time>2025-03-30T12:22:16+00:00</time>
      </trkpt>
      <trkpt lat="43.56896" lon="7.13138">
        <ele>4.4003906</ele>
        <time>2025-03-30T12:22:17+00:00</time>
      </trkpt>
      <trkpt lat="43.56895" lon="7.13132">
        <ele>4.100586</ele>
        <time>2025-03-30T12:22:18+00:00</time>
      </trkpt>
      <trkpt lat="43.56896" lon="7.13126">
        <ele>4.100586</ele>
        <time>2025-03-30T12:22:19+00:00</time>
      </trkpt>
      <trkpt lat="43.56898" lon="7.1312">
        <ele>3.7998047</ele>
        <time>2025-03-30T12:22:20+00:00</time>
      </trkpt>
      <trkpt lat="43.56899" lon="7.13113">
        <ele>3.600586</ele>
        <time>2025-03-30T12:22:21+00:00</time>
      </trkpt>
      <trkpt lat="43.56899" lon="7.13106">
        <ele>3.5</ele>
        <time>2025-03-30T12:22:22+00:00</time>
      </trkpt>
      <trkpt lat="43.56901" lon="7.131">
        <ele>3.5</ele>
        <time>2025-03-30T12:22:23+00:00</time>
      </trkpt>
      <trkpt lat="43.56902" lon="7.13094">
        <ele>3.100586</ele>
        <time>2025-03-30T12:22:24+00:00</time>
      </trkpt>
      <trkpt lat="43.56904" lon="7.13087">
        <ele>3.100586</ele>
        <time>2025-03-30T12:22:25+00:00</time>
      </trkpt>
      <trkpt lat="43.56906" lon="7.1308">
        <ele>3.2001953</ele>
        <time>2025-03-30T12:22:26+00:00</time>
      </trkpt>
      <trkpt lat="43.56908" lon="7.13073">
        <ele>2.9003906</ele>
        <time>2025-03-30T12:22:27+00:00</time>
      </trkpt>
      <trkpt lat="43.56909" lon="7.13067">
        <ele>3</ele>
        <time>2025-03-30T12:22:28+00:00</time>
      </trkpt>
      <trkpt lat="43.56911" lon="7.13062">
        <ele>3.2001953</ele>
        <time>2025-03-30T12:22:29+00:00</time>
      </trkpt>
      <trkpt lat="43.56912" lon="7.13058">
        <ele>3.2001953</ele>
        <time>2025-03-30T12:22:30+00:00</time>
      </trkpt>
      <trkpt lat="43.56912" lon="7.13054">
        <ele>3.4003906</ele>
        <time>2025-03-30T12:22:38+00:00</time>
      </trkpt>
      <trkpt lat="43.56912" lon="7.1305">
        <ele>3.4003906</ele>
        <time>2025-03-30T12:22:43+00:00</time>
      </trkpt>
      <trkpt lat="43.56907" lon="7.13045">
        <ele>4</ele>
        <time>2025-03-30T12:22:46+00:00</time>
      </trkpt>
      <trkpt lat="43.56903" lon="7.13044">
        <ele>4</ele>
        <time>2025-03-30T12:22:47+00:00</time>
      </trkpt>
      <trkpt lat="43.56901" lon="7.13041">
        <ele>4.2998047</ele>
        <time>2025-03-30T12:22:48+00:00</time>
      </trkpt>
      <trkpt lat="43.56897" lon="7.13038">
        <ele>4.5</ele>
        <time>2025-03-30T12:22:49+00:00</time>
      </trkpt>
      <trkpt lat="43.56894" lon="7.13034">
        <ele>4.7001953</ele>
        <time>2025-03-30T12:22:50+00:00</time>
      </trkpt>
      <trkpt lat="43.5689" lon="7.13031">
        <ele>4.7001953</ele>
        <time>2025-03-30T12:22:51+00:00</time>
      </trkpt>
      <trkpt lat="43.56887" lon="7.13028">
        <ele>5.2001953</ele>
        <time>2025-03-30T12:22:52+00:00</time>
      </trkpt>
      <trkpt lat="43.56883" lon="7.13024">
        <ele>5.2001953</ele>
        <time>2025-03-30T12:22:53+00:00</time>
      </trkpt>
      <trkpt lat="43.56878" lon="7.13021">
        <ele>5.7001953</ele>
        <time>2025-03-30T12:22:54+00:00</time>
      </trkpt>
      <trkpt lat="43.56874" lon="7.13018">
        <ele>5.9003906</ele>
        <time>2025-03-30T12:22:55+00:00</time>
      </trkpt>
      <trkpt lat="43.5687" lon="7.13013">
        <ele>6</ele>
        <time>2025-03-30T12:22:56+00:00</time>
      </trkpt>
      <trkpt lat="43.56866" lon="7.1301">
        <ele>6.4003906</ele>
        <time>2025-03-30T12:22:57+00:00</time>
      </trkpt>
      <trkpt lat="43.56862" lon="7.13005">
        <ele>6.5</ele>
        <time>2025-03-30T12:22:58+00:00</time>
      </trkpt>
      <trkpt lat="43.56857" lon="7.13002">
        <ele>6.9003906</ele>
        <time>2025-03-30T12:22:59+00:00</time>
      </trkpt>
      <trkpt lat="43.56852" lon="7.12998">
        <ele>6.9003906</ele>
        <time>2025-03-30T12:23:00+00:00</time>
      </trkpt>
      <trkpt lat="43.56847" lon="7.12995">
        <ele>7.2001953</ele>
        <time>2025-03-30T12:23:01+00:00</time>
      </trkpt>
      <trkpt lat="43.56842" lon="7.12992">
        <ele>7.2998047</ele>
        <time>2025-03-30T12:23:02+00:00</time>
      </trkpt>
      <trkpt lat="43.56837" lon="7.12987">
        <ele>7.5</ele>
        <time>2025-03-30T12:23:03+00:00</time>
      </trkpt>
      <trkpt lat="43.56833" lon="7.12983">
        <ele>7.600586</ele>
        <time>2025-03-30T12:23:04+00:00</time>
      </trkpt>
      <trkpt lat="43.56828" lon="7.12979">
        <ele>7.600586</ele>
        <time>2025-03-30T12:23:05+00:00</time>
      </trkpt>
      <trkpt lat="43.56823" lon="7.12976">
        <ele>7.7001953</ele>
        <time>2025-03-30T12:23:06+00:00</time>
      </trkpt>
      <trkpt lat="43.56818" lon="7.12972">
        <ele>7.7998047</ele>
        <time>2025-03-30T12:23:07+00:00</time>
      </trkpt>
      <trkpt lat="43.56814" lon="7.12968">
        <ele>7.9003906</ele>
        <time>2025-03-30T12:23:08+00:00</time>
      </trkpt>
      <trkpt lat="43.5681" lon="7.12964">
        <ele>7.9003906</ele>
        <time>2025-03-30T12:23:09+00:00</time>
      </trkpt>
      <trkpt lat="43.56805" lon="7.1296">
        <ele>8.100586</ele>
        <time>2025-03-30T12:23:10+00:00</time>
      </trkpt>
      <trkpt lat="43.56801" lon="7.12956">
        <ele>8.200195</ele>
        <time>2025-03-30T12:23:11+00:00</time>
      </trkpt>
      <trkpt lat="43.56797" lon="7.12953">
        <ele>8.200195</ele>
        <time>2025-03-30T12:23:12+00:00</time>
      </trkpt>
      <trkpt lat="43.56792" lon="7.12949">
        <ele>8.299805</ele>
        <time>2025-03-30T12:23:13+00:00</time>
      </trkpt>
      <trkpt lat="43.56787" lon="7.12945">
        <ele>8.400391</ele>
        <time>2025-03-30T12:23:14+00:00</time>
      </trkpt>
      <trkpt lat="43.56783" lon="7.12941">
        <ele>8.600586</ele>
        <time>2025-03-30T12:23:15+00:00</time>
      </trkpt>
      <trkpt lat="43.56778" lon="7.12938">
        <ele>8.600586</ele>
        <time>2025-03-30T12:23:16+00:00</time>
      </trkpt>
      <trkpt lat="43.56773" lon="7.12934">
        <ele>8.799805</ele>
        <time>2025-03-30T12:23:17+00:00</time>
      </trkpt>
      <trkpt lat="43.56768" lon="7.1293">
        <ele>8.900391</ele>
        <time>2025-03-30T12:23:18+00:00</time>
      </trkpt>
      <trkpt lat="43.56763" lon="7.12927">
        <ele>9.200195</ele>
        <time>2025-03-30T12:23:19+00:00</time>
      </trkpt>
      <trkpt lat="43.5676" lon="7.12923">
        <ele>9.200195</ele>
        <time>2025-03-30T12:23:20+00:00</time>
      </trkpt>
      <trkpt lat="43.56755" lon="7.12918">
        <ele>9.400391</ele>
        <time>2025-03-30T12:23:21+00:00</time>
      </trkpt>
      <trkpt lat="43.5675" lon="7.12914">
        <ele>9.5</ele>
        <time>2025-03-30T12:23:22+00:00</time>
      </trkpt>
      <trkpt lat="43.56746" lon="7.1291">
        <ele>9.5</ele>
        <time>2025-03-30T12:23:23+00:00</time>
      </trkpt>
      <trkpt lat="43.56742" lon="7.12905">
        <ele>9.799805</ele>
        <time>2025-03-30T12:23:24+00:00</time>
      </trkpt>
      <trkpt lat="43.56737" lon="7.12903">
        <ele>9.900391</ele>
        <time>2025-03-30T12:23:25+00:00</time>
      </trkpt>
      <trkpt lat="43.56733" lon="7.12898">
        <ele>10.100586</ele>
        <time>2025-03-30T12:23:26+00:00</time>
      </trkpt>
      <trkpt lat="43.56727" lon="7.12895">
        <ele>10.100586</ele>
        <time>2025-03-30T12:23:27+00:00</time>
      </trkpt>
      <trkpt lat="43.56724" lon="7.12892">
        <ele>10.400391</ele>
        <time>2025-03-30T12:23:28+00:00</time>
      </trkpt>
      <trkpt lat="43.56719" lon="7.12888">
        <ele>10.5</ele>
        <time>2025-03-30T12:23:29+00:00</time>
      </trkpt>
      <trkpt lat="43.56715" lon="7.12883">
        <ele>10.700195</ele>
        <time>2025-03-30T12:23:30+00:00</time>
      </trkpt>
      <trkpt lat="43.5671" lon="7.12879">
        <ele>10.799805</ele>
        <time>2025-03-30T12:23:31+00:00</time>
      </trkpt>
      <trkpt lat="43.56706" lon="7.12876">
        <ele>10.900391</ele>
        <time>2025-03-30T12:23:32+00:00</time>
      </trkpt>
      <trkpt lat="43.56701" lon="7.12873">
        <ele>11.200195</ele>
        <time>2025-03-30T12:23:33+00:00</time>
      </trkpt>
      <trkpt lat="43.56696" lon="7.12869">
        <ele>11.200195</ele>
        <time>2025-03-30T12:23:34+00:00</time>
      </trkpt>
      <trkpt lat="43.56692" lon="7.12864">
        <ele>11.5</ele>
        <time>2025-03-30T12:23:35+00:00</time>
      </trkpt>
      <trkpt lat="43.56688" lon="7.12861">
        <ele>11.600586</ele>
        <time>2025-03-30T12:23:36+00:00</time>
      </trkpt>
      <trkpt lat="43.56683" lon="7.12857">
        <ele>11.900391</ele>
        <time>2025-03-30T12:23:37+00:00</time>
      </trkpt>
      <trkpt lat="43.56678" lon="7.12853">
        <ele>11.900391</ele>
        <time>2025-03-30T12:23:38+00:00</time>
      </trkpt>
      <trkpt lat="43.56674" lon="7.12849">
        <ele>12.200195</ele>
        <time>2025-03-30T12:23:39+00:00</time>
      </trkpt>
      <trkpt lat="43.5667" lon="7.12844">
        <ele>12.400391</ele>
        <time>2025-03-30T12:23:40+00:00</time>
      </trkpt>
      <trkpt lat="43.56665" lon="7.12841">
        <ele>12.600586</ele>
        <time>2025-03-30T12:23:41+00:00</time>
      </trkpt>
      <trkpt lat="43.56661" lon="7.12837">
        <ele>12.799805</ele>
        <time>2025-03-30T12:23:42+00:00</time>
      </trkpt>
      <trkpt lat="43.56657" lon="7.12834">
        <ele>13</ele>
        <time>2025-03-30T12:23:43+00:00</time>
      </trkpt>
      <trkpt lat="43.56653" lon="7.12831">
        <ele>13.100586</ele>
        <time>2025-03-30T12:23:44+00:00</time>
      </trkpt>
      <trkpt lat="43.56649" lon="7.12827">
        <ele>13.299805</ele>
        <time>2025-03-30T12:23:45+00:00</time>
      </trkpt>
      <trkpt lat="43.56644" lon="7.12823">
        <ele>13.700195</ele>
        <time>2025-03-30T12:23:46+00:00</time>
      </trkpt>
      <trkpt lat="43.5664" lon="7.1282">
        <ele>13.900391</ele>
        <time>2025-03-30T12:23:47+00:00</time>
      </trkpt>
      <trkpt lat="43.56635" lon="7.12817">
        <ele>13.900391</ele>
        <time>2025-03-30T12:23:48+00:00</time>
      </trkpt>
      <trkpt lat="43.56632" lon="7.12814">
        <ele>14.200195</ele>
        <time>2025-03-30T12:23:49+00:00</time>
      </trkpt>
      <trkpt lat="43.56628" lon="7.1281">
        <ele>14.200195</ele>
        <time>2025-03-30T12:23:50+00:00</time>
      </trkpt>
      <trkpt lat="43.56624" lon="7.12806">
        <ele>14.600586</ele>
        <time>2025-03-30T12:23:51+00:00</time>
      </trkpt>
      <trkpt lat="43.56619" lon="7.12802">
        <ele>14.799805</ele>
        <time>2025-03-30T12:23:52+00:00</time>
      </trkpt>
      <trkpt lat="43.56616" lon="7.12798">
        <ele>15.100586</ele>
        <time>2025-03-30T12:23:53+00:00</time>
      </trkpt>
      <trkpt lat="43.56613" lon="7.12795">
        <ele>15.299805</ele>
        <time>2025-03-30T12:23:54+00:00</time>
      </trkpt>
      <trkpt lat="43.56609" lon="7.12791">
        <ele>15.299805</ele>
        <time>2025-03-30T12:23:55+00:00</time>
      </trkpt>
      <trkpt lat="43.56605" lon="7.12787">
        <ele>15.799805</ele>
        <time>2025-03-30T12:23:56+00:00</time>
      </trkpt>
      <trkpt lat="43.566" lon="7.12784">
        <ele>15.900391</ele>
        <time>2025-03-30T12:23:57+00:00</time>
      </trkpt>
      <trkpt lat="43.56597" lon="7.1278">
        <ele>16.200195</ele>
        <time>2025-03-30T12:23:58+00:00</time>
      </trkpt>
      <trkpt lat="43.56593" lon="7.12777">
        <ele>16.40039</ele>
        <time>2025-03-30T12:23:59+00:00</time>
      </trkpt>
      <trkpt lat="43.56589" lon="7.12774">
        <ele>16.600586</ele>
        <time>2025-03-30T12:24:00+00:00</time>
      </trkpt>
      <trkpt lat="43.56585" lon="7.1277">
        <ele>16.90039</ele>
        <time>2025-03-30T12:24:01+00:00</time>
      </trkpt>
      <trkpt lat="43.56583" lon="7.12767">
        <ele>17.100586</ele>
        <time>2025-03-30T12:24:02+00:00</time>
      </trkpt>
      <trkpt lat="43.56578" lon="7.12762">
        <ele>17.299805</ele>
        <time>2025-03-30T12:24:03+00:00</time>
      </trkpt>
      <trkpt lat="43.56575" lon="7.12757">
        <ele>17.600586</ele>
        <time>2025-03-30T12:24:04+00:00</time>
      </trkpt>
      <trkpt lat="43.56571" lon="7.12752">
        <ele>18.200195</ele>
        <time>2025-03-30T12:24:05+00:00</time>
      </trkpt>
      <trkpt lat="43.56569" lon="7.12747">
        <ele>18.200195</ele>
        <time>2025-03-30T12:24:06+00:00</time>
      </trkpt>
      <trkpt lat="43.56567" lon="7.12742">
        <ele>18.40039</ele>
        <time>2025-03-30T12:24:07+00:00</time>
      </trkpt>
      <trkpt lat="43.56563" lon="7.12736">
        <ele>19</ele>
        <time>2025-03-30T12:24:08+00:00</time>
      </trkpt>
      <trkpt lat="43.56561" lon="7.12731">
        <ele>19</ele>
        <time>2025-03-30T12:24:09+00:00</time>
      </trkpt>
      <trkpt lat="43.56559" lon="7.12725">
        <ele>19.600586</ele>
        <time>2025-03-30T12:24:10+00:00</time>
      </trkpt>
      <trkpt lat="43.56556" lon="7.12719">
        <ele>19.799805</ele>
        <time>2025-03-30T12:24:11+00:00</time>
      </trkpt>
      <trkpt lat="43.56554" lon="7.12713">
        <ele>19.799805</ele>
        <time>2025-03-30T12:24:12+00:00</time>
      </trkpt>
      <trkpt lat="43.56552" lon="7.12707">
        <ele>20.40039</ele>
        <time>2025-03-30T12:24:13+00:00</time>
      </trkpt>
      <trkpt lat="43.56551" lon="7.12702">
        <ele>20.600586</ele>
        <time>2025-03-30T12:24:14+00:00</time>
      </trkpt>
      <trkpt lat="43.56551" lon="7.12695">
        <ele>20.799805</ele>
        <time>2025-03-30T12:24:15+00:00</time>
      </trkpt>
      <trkpt lat="43.56552" lon="7.12688">
        <ele>20.799805</ele>
        <time>2025-03-30T12:24:16+00:00</time>
      </trkpt>
      <trkpt lat="43.56553" lon="7.12681">
        <ele>20.90039</ele>
        <time>2025-03-30T12:24:17+00:00</time>
      </trkpt>
      <trkpt lat="43.56553" lon="7.12674">
        <ele>20.700195</ele>
        <time>2025-03-30T12:24:18+00:00</time>
      </trkpt>
      <trkpt lat="43.56553" lon="7.12666">
        <ele>20.799805</ele>
        <time>2025-03-30T12:24:19+00:00</time>
      </trkpt>
      <trkpt lat="43.56554" lon="7.12658">
        <ele>20.90039</ele>
        <time>2025-03-30T12:24:20+00:00</time>
      </trkpt>
      <trkpt lat="43.56554" lon="7.1265">
        <ele>21.100586</ele>
        <time>2025-03-30T12:24:21+00:00</time>
      </trkpt>
      <trkpt lat="43.56554" lon="7.12643">
        <ele>21.40039</ele>
        <time>2025-03-30T12:24:22+00:00</time>
      </trkpt>
      <trkpt lat="43.56554" lon="7.12635">
        <ele>21.40039</ele>
        <time>2025-03-30T12:24:23+00:00</time>
      </trkpt>
      <trkpt lat="43.56555" lon="7.12629">
        <ele>21.700195</ele>
        <time>2025-03-30T12:24:24+00:00</time>
      </trkpt>
      <trkpt lat="43.56556" lon="7.12622">
        <ele>22</ele>
        <time>2025-03-30T12:24:25+00:00</time>
      </trkpt>
      <trkpt lat="43.56556" lon="7.12615">
        <ele>22.299805</ele>
        <time>2025-03-30T12:24:26+00:00</time>
      </trkpt>
      <trkpt lat="43.56557" lon="7.12609">
        <ele>22.700195</ele>
        <time>2025-03-30T12:24:27+00:00</time>
      </trkpt>
      <trkpt lat="43.56557" lon="7.12603">
        <ele>22.700195</ele>
        <time>2025-03-30T12:24:28+00:00</time>
      </trkpt>
      <trkpt lat="43.56558" lon="7.12596">
        <ele>23.100586</ele>
        <time>2025-03-30T12:24:29+00:00</time>
      </trkpt>
      <trkpt lat="43.56559" lon="7.12589">
        <ele>23.40039</ele>
        <time>2025-03-30T12:24:30+00:00</time>
      </trkpt>
      <trkpt lat="43.56561" lon="7.12584">
        <ele>23.100586</ele>
        <time>2025-03-30T12:24:31+00:00</time>
      </trkpt>
      <trkpt lat="43.56563" lon="7.1258">
        <ele>23.40039</ele>
        <time>2025-03-30T12:24:32+00:00</time>
      </trkpt>
      <trkpt lat="43.56566" lon="7.12574">
        <ele>23.40039</ele>
        <time>2025-03-30T12:24:33+00:00</time>
      </trkpt>
      <trkpt lat="43.56569" lon="7.12569">
        <ele>23.40039</ele>
        <time>2025-03-30T12:24:34+00:00</time>
      </trkpt>
      <trkpt lat="43.56572" lon="7.12564">
        <ele>23.5</ele>
        <time>2025-03-30T12:24:35+00:00</time>
      </trkpt>
      <trkpt lat="43.56575" lon="7.12559">
        <ele>23.5</ele>
        <time>2025-03-30T12:24:36+00:00</time>
      </trkpt>
      <trkpt lat="43.56577" lon="7.12555">
        <ele>23.799805</ele>
        <time>2025-03-30T12:24:37+00:00</time>
      </trkpt>
      <trkpt lat="43.5658" lon="7.12551">
        <ele>23.700195</ele>
        <time>2025-03-30T12:24:38+00:00</time>
      </trkpt>
      <trkpt lat="43.56583" lon="7.12547">
        <ele>24</ele>
        <time>2025-03-30T12:24:39+00:00</time>
      </trkpt>
      <trkpt lat="43.56585" lon="7.12543">
        <ele>23.799805</ele>
        <time>2025-03-30T12:24:40+00:00</time>
      </trkpt>
      <trkpt lat="43.56589" lon="7.12538">
        <ele>24.100586</ele>
        <time>2025-03-30T12:24:41+00:00</time>
      </trkpt>
      <trkpt lat="43.56591" lon="7.12534">
        <ele>24</ele>
        <time>2025-03-30T12:24:42+00:00</time>
      </trkpt>
      <trkpt lat="43.56593" lon="7.1253">
        <ele>24.299805</ele>
        <time>2025-03-30T12:24:43+00:00</time>
      </trkpt>
      <trkpt lat="43.56596" lon="7.12528">
        <ele>24.299805</ele>
        <time>2025-03-30T12:24:44+00:00</time>
      </trkpt>
      <trkpt lat="43.56598" lon="7.12524">
        <ele>24.200195</ele>
        <time>2025-03-30T12:24:45+00:00</time>
      </trkpt>
      <trkpt lat="43.566" lon="7.12519">
        <ele>24.40039</ele>
        <time>2025-03-30T12:24:46+00:00</time>
      </trkpt>
      <trkpt lat="43.56602" lon="7.12515">
        <ele>24.40039</ele>
        <time>2025-03-30T12:24:47+00:00</time>
      </trkpt>
      <trkpt lat="43.56603" lon="7.1251">
        <ele>24.600586</ele>
        <time>2025-03-30T12:24:48+00:00</time>
      </trkpt>
      <trkpt lat="43.56604" lon="7.12505">
        <ele>24.799805</ele>
        <time>2025-03-30T12:24:49+00:00</time>
      </trkpt>
      <trkpt lat="43.56604" lon="7.12501">
        <ele>24.799805</ele>
        <time>2025-03-30T12:25:00+00:00</time>
      </trkpt>
      <trkpt lat="43.56604" lon="7.12497">
        <ele>25.100586</ele>
        <time>2025-03-30T12:25:02+00:00</time>
      </trkpt>
      <trkpt lat="43.566" lon="7.12494">
        <ele>25.299805</ele>
        <time>2025-03-30T12:25:04+00:00</time>
      </trkpt>
      <trkpt lat="43.56596" lon="7.12494">
        <ele>25.5</ele>
        <time>2025-03-30T12:25:05+00:00</time>
      </trkpt>
      <trkpt lat="43.56592" lon="7.12493">
        <ele>25.5</ele>
        <time>2025-03-30T12:25:06+00:00</time>
      </trkpt>
      <trkpt lat="43.56588" lon="7.12492">
        <ele>25.700195</ele>
        <time>2025-03-30T12:25:07+00:00</time>
      </trkpt>
      <trkpt lat="43.56584" lon="7.12491">
        <ele>25.90039</ele>
        <time>2025-03-30T12:25:08+00:00</time>
      </trkpt>
      <trkpt lat="43.5658" lon="7.12489">
        <ele>25.90039</ele>
        <time>2025-03-30T12:25:09+00:00</time>
      </trkpt>
      <trkpt lat="43.56576" lon="7.12488">
        <ele>26.5</ele>
        <time>2025-03-30T12:25:10+00:00</time>
      </trkpt>
      <trkpt lat="43.56572" lon="7.12486">
        <ele>26.5</ele>
        <time>2025-03-30T12:25:11+00:00</time>
      </trkpt>
      <trkpt lat="43.56567" lon="7.12483">
        <ele>26.700195</ele>
        <time>2025-03-30T12:25:12+00:00</time>
      </trkpt>
      <trkpt lat="43.56563" lon="7.12479">
        <ele>27.40039</ele>
        <time>2025-03-30T12:25:13+00:00</time>
      </trkpt>
      <trkpt lat="43.56558" lon="7.12476">
        <ele>27.600586</ele>
        <time>2025-03-30T12:25:14+00:00</time>
      </trkpt>
      <trkpt lat="43.56553" lon="7.12472">
        <ele>27.90039</ele>
        <time>2025-03-30T12:25:15+00:00</time>
      </trkpt>
      <trkpt lat="43.56548" lon="7.12468">
        <ele>28.40039</ele>
        <time>2025-03-30T12:25:16+00:00</time>
      </trkpt>
      <trkpt lat="43.56543" lon="7.12465">
        <ele>28.700195</ele>
        <time>2025-03-30T12:25:17+00:00</time>
      </trkpt>
      <trkpt lat="43.56537" lon="7.12463">
        <ele>29.5</ele>
        <time>2025-03-30T12:25:18+00:00</time>
      </trkpt>
      <trkpt lat="43.56532" lon="7.12462">
        <ele>29.90039</ele>
        <time>2025-03-30T12:25:19+00:00</time>
      </trkpt>
      <trkpt lat="43.56525" lon="7.12462">
        <ele>30.299805</ele>
        <time>2025-03-30T12:25:20+00:00</time>
      </trkpt>
      <trkpt lat="43.5652" lon="7.12461">
        <ele>30.600586</ele>
        <time>2025-03-30T12:25:21+00:00</time>
      </trkpt>
      <trkpt lat="43.56514" lon="7.12463">
        <ele>30.90039</ele>
        <time>2025-03-30T12:25:22+00:00</time>
      </trkpt>
      <trkpt lat="43.5651" lon="7.12465">
        <ele>30.5</ele>
        <time>2025-03-30T12:25:23+00:00</time>
      </trkpt>
      <trkpt lat="43.56504" lon="7.1247">
        <ele>30.799805</ele>
        <time>2025-03-30T12:25:24+00:00</time>
      </trkpt>
      <trkpt lat="43.56499" lon="7.12474">
        <ele>30.700195</ele>
        <time>2025-03-30T12:25:25+00:00</time>
      </trkpt>
      <trkpt lat="43.56494" lon="7.12477">
        <ele>31.200195</ele>
        <time>2025-03-30T12:25:26+00:00</time>
      </trkpt>
      <trkpt lat="43.56488" lon="7.1248">
        <ele>31.600586</ele>
        <time>2025-03-30T12:25:27+00:00</time>
      </trkpt>
      <trkpt lat="43.56483" lon="7.12484">
        <ele>31.90039</ele>
        <time>2025-03-30T12:25:28+00:00</time>
      </trkpt>
      <trkpt lat="43.56478" lon="7.12487">
        <ele>31.90039</ele>
        <time>2025-03-30T12:25:29+00:00</time>
      </trkpt>
      <trkpt lat="43.56473" lon="7.1249">
        <ele>32.299805</ele>
        <time>2025-03-30T12:25:30+00:00</time>
      </trkpt>
      <trkpt lat="43.56467" lon="7.12493">
        <ele>33</ele>
        <time>2025-03-30T12:25:31+00:00</time>
      </trkpt>
      <trkpt lat="43.56462" lon="7.12497">
        <ele>33.600586</ele>
        <time>2025-03-30T12:25:32+00:00</time>
      </trkpt>
      <trkpt lat="43.56457" lon="7.12502">
        <ele>34.200195</ele>
        <time>2025-03-30T12:25:33+00:00</time>
      </trkpt>
      <trkpt lat="43.56453" lon="7.12507">
        <ele>34.90039</ele>
        <time>2025-03-30T12:25:34+00:00</time>
      </trkpt>
      <trkpt lat="43.56448" lon="7.12511">
        <ele>34.90039</ele>
        <time>2025-03-30T12:25:35+00:00</time>
      </trkpt>
      <trkpt lat="43.56442" lon="7.12516">
        <ele>35.5</ele>
        <time>2025-03-30T12:25:36+00:00</time>
      </trkpt>
      <trkpt lat="43.56437" lon="7.1252">
        <ele>36.200195</ele>
        <time>2025-03-30T12:25:37+00:00</time>
      </trkpt>
      <trkpt lat="43.56434" lon="7.12525">
        <ele>36.90039</ele>
        <time>2025-03-30T12:25:38+00:00</time>
      </trkpt>
      <trkpt lat="43.5643" lon="7.12529">
        <ele>36.90039</ele>
        <time>2025-03-30T12:25:39+00:00</time>
      </trkpt>
      <trkpt lat="43.56426" lon="7.12532">
        <ele>37.5</ele>
        <time>2025-03-30T12:25:40+00:00</time>
      </trkpt>
      <trkpt lat="43.56423" lon="7.12536">
        <ele>37.5</ele>
        <time>2025-03-30T12:25:41+00:00</time>
      </trkpt>
      <trkpt lat="43.5642" lon="7.12539">
        <ele>38.200195</ele>
        <time>2025-03-30T12:25:42+00:00</time>
      </trkpt>
      <trkpt lat="43.56417" lon="7.12542">
        <ele>38.200195</ele>
        <time>2025-03-30T12:25:43+00:00</time>
      </trkpt>
      <trkpt lat="43.56413" lon="7.12544">
        <ele>38.799805</ele>
        <time>2025-03-30T12:25:44+00:00</time>
      </trkpt>
      <trkpt lat="43.5641" lon="7.12547">
        <ele>39.40039</ele>
        <time>2025-03-30T12:25:45+00:00</time>
      </trkpt>
      <trkpt lat="43.56406" lon="7.12549">
        <ele>39.40039</ele>
        <time>2025-03-30T12:25:46+00:00</time>
      </trkpt>
      <trkpt lat="43.56403" lon="7.12551">
        <ele>40</ele>
        <time>2025-03-30T12:25:47+00:00</time>
      </trkpt>
      <trkpt lat="43.56399" lon="7.12554">
        <ele>40</ele>
        <time>2025-03-30T12:25:48+00:00</time>
      </trkpt>
      <trkpt lat="43.56396" lon="7.12556">
        <ele>40.600586</ele>
        <time>2025-03-30T12:25:49+00:00</time>
      </trkpt>
      <trkpt lat="43.56394" lon="7.12557">
        <ele>40.600586</ele>
        <time>2025-03-30T12:25:50+00:00</time>
      </trkpt>
      <trkpt lat="43.5639" lon="7.1256">
        <ele>41.200195</ele>
        <time>2025-03-30T12:25:51+00:00</time>
      </trkpt>
      <trkpt lat="43.56387" lon="7.12561">
        <ele>41.200195</ele>
        <time>2025-03-30T12:25:52+00:00</time>
      </trkpt>
      <trkpt lat="43.56383" lon="7.12564">
        <ele>41.90039</ele>
        <time>2025-03-30T12:25:54+00:00</time>
      </trkpt>
      <trkpt lat="43.5638" lon="7.12567">
        <ele>41.90039</ele>
        <time>2025-03-30T12:25:55+00:00</time>
      </trkpt>
      <trkpt lat="43.56377" lon="7.12568">
        <ele>42.40039</ele>
        <time>2025-03-30T12:25:56+00:00</time>
      </trkpt>
      <trkpt lat="43.56374" lon="7.12571">
        <ele>42.40039</ele>
        <time>2025-03-30T12:25:57+00:00</time>
      </trkpt>
      <trkpt lat="43.56369" lon="7.12577">
        <ele>42.90039</ele>
        <time>2025-03-30T12:25:59+00:00</time>
      </trkpt>
      <trkpt lat="43.56366" lon="7.1258">
        <ele>43.299805</ele>
        <time>2025-03-30T12:26:00+00:00</time>
      </trkpt>
      <trkpt lat="43.56364" lon="7.12584">
        <ele>43.200195</ele>
        <time>2025-03-30T12:26:01+00:00</time>
      </trkpt>
      <trkpt lat="43.56359" lon="7.1259">
        <ele>43.40039</ele>
        <time>2025-03-30T12:26:03+00:00</time>
      </trkpt>
      <trkpt lat="43.56357" lon="7.12595">
        <ele>43.40039</ele>
        <time>2025-03-30T12:26:04+00:00</time>
      </trkpt>
      <trkpt lat="43.56356" lon="7.12601">
        <ele>43.40039</ele>
        <time>2025-03-30T12:26:06+00:00</time>
      </trkpt>
      <trkpt lat="43.56351" lon="7.12602">
        <ele>43.40039</ele>
        <time>2025-03-30T12:26:07+00:00</time>
      </trkpt>
      <trkpt lat="43.56349" lon="7.12604">
        <ele>43.40039</ele>
        <time>2025-03-30T12:26:08+00:00</time>
      </trkpt>
      <trkpt lat="43.56347" lon="7.12607">
        <ele>43.5</ele>
        <time>2025-03-30T12:26:09+00:00</time>
      </trkpt>
      <trkpt lat="43.56344" lon="7.1261">
        <ele>43.40039</ele>
        <time>2025-03-30T12:26:10+00:00</time>
      </trkpt>
      <trkpt lat="43.56342" lon="7.12613">
        <ele>43.40039</ele>
        <time>2025-03-30T12:26:11+00:00</time>
      </trkpt>
      <trkpt lat="43.5634" lon="7.12617">
        <ele>43.40039</ele>
        <time>2025-03-30T12:26:12+00:00</time>
      </trkpt>
      <trkpt lat="43.56338" lon="7.1262">
        <ele>43.299805</ele>
        <time>2025-03-30T12:26:13+00:00</time>
      </trkpt>
      <trkpt lat="43.56335" lon="7.12624">
        <ele>43.299805</ele>
        <time>2025-03-30T12:26:14+00:00</time>
      </trkpt>
      <trkpt lat="43.56331" lon="7.12628">
        <ele>43.200195</ele>
        <time>2025-03-30T12:26:16+00:00</time>
      </trkpt>
      <trkpt lat="43.56326" lon="7.12631">
        <ele>43.200195</ele>
        <time>2025-03-30T12:26:17+00:00</time>
      </trkpt>
      <trkpt lat="43.56322" lon="7.12633">
        <ele>43.200195</ele>
        <time>2025-03-30T12:26:18+00:00</time>
      </trkpt>
      <trkpt lat="43.56318" lon="7.12636">
        <ele>43.100586</ele>
        <time>2025-03-30T12:26:19+00:00</time>
      </trkpt>
      <trkpt lat="43.56315" lon="7.12641">
        <ele>43</ele>
        <time>2025-03-30T12:26:20+00:00</time>
      </trkpt>
      <trkpt lat="43.56312" lon="7.12645">
        <ele>42.90039</ele>
        <time>2025-03-30T12:26:21+00:00</time>
      </trkpt>
      <trkpt lat="43.56307" lon="7.12647">
        <ele>42.90039</ele>
        <time>2025-03-30T12:26:22+00:00</time>
      </trkpt>
      <trkpt lat="43.56305" lon="7.12651">
        <ele>42.90039</ele>
        <time>2025-03-30T12:26:23+00:00</time>
      </trkpt>
      <trkpt lat="43.56302" lon="7.12655">
        <ele>42.799805</ele>
        <time>2025-03-30T12:26:24+00:00</time>
      </trkpt>
      <trkpt lat="43.56295" lon="7.12659">
        <ele>42.799805</ele>
        <time>2025-03-30T12:26:25+00:00</time>
      </trkpt>
      <trkpt lat="43.5629" lon="7.12663">
        <ele>42.799805</ele>
        <time>2025-03-30T12:26:26+00:00</time>
      </trkpt>
      <trkpt lat="43.56286" lon="7.12668">
        <ele>42.799805</ele>
        <time>2025-03-30T12:26:27+00:00</time>
      </trkpt>
      <trkpt lat="43.56282" lon="7.12672">
        <ele>42.90039</ele>
        <time>2025-03-30T12:26:28+00:00</time>
      </trkpt>
      <trkpt lat="43.56279" lon="7.12675">
        <ele>43</ele>
        <time>2025-03-30T12:26:29+00:00</time>
      </trkpt>
      <trkpt lat="43.56275" lon="7.1268">
        <ele>43</ele>
        <time>2025-03-30T12:26:30+00:00</time>
      </trkpt>
      <trkpt lat="43.56272" lon="7.12685">
        <ele>43.100586</ele>
        <time>2025-03-30T12:26:31+00:00</time>
      </trkpt>
      <trkpt lat="43.56268" lon="7.1269">
        <ele>43.100586</ele>
        <time>2025-03-30T12:26:32+00:00</time>
      </trkpt>
      <trkpt lat="43.56264" lon="7.12696">
        <ele>43.200195</ele>
        <time>2025-03-30T12:26:33+00:00</time>
      </trkpt>
      <trkpt lat="43.56258" lon="7.12703">
        <ele>43.299805</ele>
        <time>2025-03-30T12:26:34+00:00</time>
      </trkpt>
      <trkpt lat="43.56254" lon="7.1271">
        <ele>43.5</ele>
        <time>2025-03-30T12:26:35+00:00</time>
      </trkpt>
      <trkpt lat="43.5625" lon="7.12719">
        <ele>43.5</ele>
        <time>2025-03-30T12:26:36+00:00</time>
      </trkpt>
      <trkpt lat="43.56246" lon="7.12726">
        <ele>43.700195</ele>
        <time>2025-03-30T12:26:37+00:00</time>
      </trkpt>
      <trkpt lat="43.56242" lon="7.12733">
        <ele>43.700195</ele>
        <time>2025-03-30T12:26:38+00:00</time>
      </trkpt>
      <trkpt lat="43.56238" lon="7.12739">
        <ele>43.90039</ele>
        <time>2025-03-30T12:26:39+00:00</time>
      </trkpt>
      <trkpt lat="43.56236" lon="7.12748">
        <ele>44.100586</ele>
        <time>2025-03-30T12:26:40+00:00</time>
      </trkpt>
      <trkpt lat="43.56232" lon="7.12755">
        <ele>44.200195</ele>
        <time>2025-03-30T12:26:41+00:00</time>
      </trkpt>
      <trkpt lat="43.56228" lon="7.12762">
        <ele>44.200195</ele>
        <time>2025-03-30T12:26:42+00:00</time>
      </trkpt>
      <trkpt lat="43.56225" lon="7.12767">
        <ele>44.200195</ele>
        <time>2025-03-30T12:26:43+00:00</time>
      </trkpt>
      <trkpt lat="43.56221" lon="7.12772">
        <ele>44.299805</ele>
        <time>2025-03-30T12:26:44+00:00</time>
      </trkpt>
      <trkpt lat="43.56216" lon="7.12777">
        <ele>44.299805</ele>
        <time>2025-03-30T12:26:45+00:00</time>
      </trkpt>
      <trkpt lat="43.56211" lon="7.12782">
        <ele>44.299805</ele>
        <time>2025-03-30T12:26:46+00:00</time>
      </trkpt>
      <trkpt lat="43.56206" lon="7.12787">
        <ele>44.200195</ele>
        <time>2025-03-30T12:26:47+00:00</time>
      </trkpt>
      <trkpt lat="43.562" lon="7.12792">
        <ele>44</ele>
        <time>2025-03-30T12:26:48+00:00</time>
      </trkpt>
      <trkpt lat="43.56196" lon="7.12799">
        <ele>43.700195</ele>
        <time>2025-03-30T12:26:49+00:00</time>
      </trkpt>
      <trkpt lat="43.56191" lon="7.12803">
        <ele>43.5</ele>
        <time>2025-03-30T12:26:50+00:00</time>
      </trkpt>
      <trkpt lat="43.56186" lon="7.12808">
        <ele>43.40039</ele>
        <time>2025-03-30T12:26:51+00:00</time>
      </trkpt>
      <trkpt lat="43.56181" lon="7.12812">
        <ele>43.200195</ele>
        <time>2025-03-30T12:26:52+00:00</time>
      </trkpt>
      <trkpt lat="43.56175" lon="7.12818">
        <ele>42.90039</ele>
        <time>2025-03-30T12:26:53+00:00</time>
      </trkpt>
      <trkpt lat="43.56168" lon="7.12823">
        <ele>42.700195</ele>
        <time>2025-03-30T12:26:54+00:00</time>
      </trkpt>
      <trkpt lat="43.56161" lon="7.12825">
        <ele>42.5</ele>
        <time>2025-03-30T12:26:55+00:00</time>
      </trkpt>
      <trkpt lat="43.56155" lon="7.12826">
        <ele>42.200195</ele>
        <time>2025-03-30T12:26:56+00:00</time>
      </trkpt>
      <trkpt lat="43.56149" lon="7.12826">
        <ele>42.200195</ele>
        <time>2025-03-30T12:26:57+00:00</time>
      </trkpt>
      <trkpt lat="43.56142" lon="7.12827">
        <ele>41.90039</ele>
        <time>2025-03-30T12:26:58+00:00</time>
      </trkpt>
      <trkpt lat="43.56135" lon="7.12828">
        <ele>41.799805</ele>
        <time>2025-03-30T12:26:59+00:00</time>
      </trkpt>
      <trkpt lat="43.56127" lon="7.12829">
        <ele>41.700195</ele>
        <time>2025-03-30T12:27:00+00:00</time>
      </trkpt>
      <trkpt lat="43.56121" lon="7.1283">
        <ele>41.5</ele>
        <time>2025-03-30T12:27:01+00:00</time>
      </trkpt>
      <trkpt lat="43.56114" lon="7.12832">
        <ele>41.40039</ele>
        <time>2025-03-30T12:27:02+00:00</time>
      </trkpt>
      <trkpt lat="43.56107" lon="7.12832">
        <ele>41.299805</ele>
        <time>2025-03-30T12:27:03+00:00</time>
      </trkpt>
      <trkpt lat="43.56101" lon="7.12833">
        <ele>41.5</ele>
        <time>2025-03-30T12:27:04+00:00</time>
      </trkpt>
      <trkpt lat="43.56095" lon="7.12833">
        <ele>41.40039</ele>
        <time>2025-03-30T12:27:05+00:00</time>
      </trkpt>
      <trkpt lat="43.56088" lon="7.12833">
        <ele>41.299805</ele>
        <time>2025-03-30T12:27:06+00:00</time>
      </trkpt>
      <trkpt lat="43.56083" lon="7.12831">
        <ele>40.799805</ele>
        <time>2025-03-30T12:27:07+00:00</time>
      </trkpt>
      <trkpt lat="43.56076" lon="7.1283">
        <ele>40.700195</ele>
        <time>2025-03-30T12:27:08+00:00</time>
      </trkpt>
      <trkpt lat="43.56069" lon="7.12828">
        <ele>40.600586</ele>
        <time>2025-03-30T12:27:09+00:00</time>
      </trkpt>
      <trkpt lat="43.56063" lon="7.12828">
        <ele>40.5</ele>
        <time>2025-03-30T12:27:10+00:00</time>
      </trkpt>
      <trkpt lat="43.56056" lon="7.12828">
        <ele>40.5</ele>
        <time>2025-03-30T12:27:11+00:00</time>
      </trkpt>
      <trkpt lat="43.5605" lon="7.12827">
        <ele>40.40039</ele>
        <time>2025-03-30T12:27:12+00:00</time>
      </trkpt>
      <trkpt lat="43.56044" lon="7.12826">
        <ele>40.40039</ele>
        <time>2025-03-30T12:27:13+00:00</time>
      </trkpt>
      <trkpt lat="43.56039" lon="7.12826">
        <ele>40.299805</ele>
        <time>2025-03-30T12:27:14+00:00</time>
      </trkpt>
      <trkpt lat="43.56033" lon="7.12826">
        <ele>40.299805</ele>
        <time>2025-03-30T12:27:15+00:00</time>
      </trkpt>
      <trkpt lat="43.56026" lon="7.12826">
        <ele>40.200195</ele>
        <time>2025-03-30T12:27:16+00:00</time>
      </trkpt>
      <trkpt lat="43.56019" lon="7.12826">
        <ele>40.100586</ele>
        <time>2025-03-30T12:27:17+00:00</time>
      </trkpt>
      <trkpt lat="43.56013" lon="7.12828">
        <ele>40.100586</ele>
        <time>2025-03-30T12:27:18+00:00</time>
      </trkpt>
      <trkpt lat="43.56008" lon="7.12829">
        <ele>40</ele>
        <time>2025-03-30T12:27:19+00:00</time>
      </trkpt>
      <trkpt lat="43.56003" lon="7.12829">
        <ele>40</ele>
        <time>2025-03-30T12:27:20+00:00</time>
      </trkpt>
      <trkpt lat="43.55999" lon="7.12831">
        <ele>39.90039</ele>
        <time>2025-03-30T12:27:21+00:00</time>
      </trkpt>
      <trkpt lat="43.55995" lon="7.1283">
        <ele>39.90039</ele>
        <time>2025-03-30T12:27:22+00:00</time>
      </trkpt>
      <trkpt lat="43.55989" lon="7.1283">
        <ele>39.90039</ele>
        <time>2025-03-30T12:27:24+00:00</time>
      </trkpt>
      <trkpt lat="43.55985" lon="7.12829">
        <ele>39.90039</ele>
        <time>2025-03-30T12:27:25+00:00</time>
      </trkpt>
      <trkpt lat="43.55982" lon="7.12829">
        <ele>39.90039</ele>
        <time>2025-03-30T12:27:26+00:00</time>
      </trkpt>
      <trkpt lat="43.55977" lon="7.12831">
        <ele>39.90039</ele>
        <time>2025-03-30T12:27:27+00:00</time>
      </trkpt>
      <trkpt lat="43.55972" lon="7.12832">
        <ele>39.799805</ele>
        <time>2025-03-30T12:27:28+00:00</time>
      </trkpt>
      <trkpt lat="43.55967" lon="7.12832">
        <ele>39.799805</ele>
        <time>2025-03-30T12:27:29+00:00</time>
      </trkpt>
      <trkpt lat="43.55963" lon="7.12833">
        <ele>40.200195</ele>
        <time>2025-03-30T12:27:30+00:00</time>
      </trkpt>
      <trkpt lat="43.55958" lon="7.12833">
        <ele>40.100586</ele>
        <time>2025-03-30T12:27:31+00:00</time>
      </trkpt>
      <trkpt lat="43.55952" lon="7.12834">
        <ele>40.100586</ele>
        <time>2025-03-30T12:27:32+00:00</time>
      </trkpt>
      <trkpt lat="43.55945" lon="7.12835">
        <ele>40.100586</ele>
        <time>2025-03-30T12:27:33+00:00</time>
      </trkpt>
      <trkpt lat="43.55937" lon="7.12833">
        <ele>39.90039</ele>
        <time>2025-03-30T12:27:34+00:00</time>
      </trkpt>
      <trkpt lat="43.55931" lon="7.12833">
        <ele>39.90039</ele>
        <time>2025-03-30T12:27:35+00:00</time>
      </trkpt>
      <trkpt lat="43.55923" lon="7.12832">
        <ele>39.5</ele>
        <time>2025-03-30T12:27:36+00:00</time>
      </trkpt>
      <trkpt lat="43.55918" lon="7.12832">
        <ele>39.40039</ele>
        <time>2025-03-30T12:27:37+00:00</time>
      </trkpt>
      <trkpt lat="43.55911" lon="7.1283">
        <ele>39.299805</ele>
        <time>2025-03-30T12:27:38+00:00</time>
      </trkpt>
      <trkpt lat="43.55905" lon="7.12829">
        <ele>39.100586</ele>
        <time>2025-03-30T12:27:39+00:00</time>
      </trkpt>
      <trkpt lat="43.55899" lon="7.12829">
        <ele>39</ele>
        <time>2025-03-30T12:27:40+00:00</time>
      </trkpt>
      <trkpt lat="43.55894" lon="7.12827">
        <ele>38.799805</ele>
        <time>2025-03-30T12:27:41+00:00</time>
      </trkpt>
      <trkpt lat="43.55888" lon="7.12825">
        <ele>38.799805</ele>
        <time>2025-03-30T12:27:42+00:00</time>
      </trkpt>
      <trkpt lat="43.55884" lon="7.12822">
        <ele>38.40039</ele>
        <time>2025-03-30T12:27:43+00:00</time>
      </trkpt>
      <trkpt lat="43.55877" lon="7.12822">
        <ele>38.299805</ele>
        <time>2025-03-30T12:27:44+00:00</time>
      </trkpt>
      <trkpt lat="43.5587" lon="7.12821">
        <ele>38.100586</ele>
        <time>2025-03-30T12:27:45+00:00</time>
      </trkpt>
      <trkpt lat="43.55864" lon="7.1282">
        <ele>38</ele>
        <time>2025-03-30T12:27:46+00:00</time>
      </trkpt>
      <trkpt lat="43.55857" lon="7.12822">
        <ele>37.799805</ele>
        <time>2025-03-30T12:27:47+00:00</time>
      </trkpt>
      <trkpt lat="43.55852" lon="7.12823">
        <ele>37.600586</ele>
        <time>2025-03-30T12:27:48+00:00</time>
      </trkpt>
      <trkpt lat="43.55846" lon="7.12823">
        <ele>37.40039</ele>
        <time>2025-03-30T12:27:49+00:00</time>
      </trkpt>
      <trkpt lat="43.55839" lon="7.12825">
        <ele>37.40039</ele>
        <time>2025-03-30T12:27:50+00:00</time>
      </trkpt>
      <trkpt lat="43.55831" lon="7.12828">
        <ele>36.90039</ele>
        <time>2025-03-30T12:27:51+00:00</time>
      </trkpt>
      <trkpt lat="43.55824" lon="7.1283">
        <ele>36.700195</ele>
        <time>2025-03-30T12:27:52+00:00</time>
      </trkpt>
      <trkpt lat="43.55818" lon="7.12835">
        <ele>36.600586</ele>
        <time>2025-03-30T12:27:53+00:00</time>
      </trkpt>
      <trkpt lat="43.55812" lon="7.12838">
        <ele>36.40039</ele>
        <time>2025-03-30T12:27:54+00:00</time>
      </trkpt>
      <trkpt lat="43.55805" lon="7.12842">
        <ele>36.299805</ele>
        <time>2025-03-30T12:27:55+00:00</time>
      </trkpt>
      <trkpt lat="43.55798" lon="7.12844">
        <ele>36</ele>
        <time>2025-03-30T12:27:56+00:00</time>
      </trkpt>
      <trkpt lat="43.55792" lon="7.12848">
        <ele>35.799805</ele>
        <time>2025-03-30T12:27:57+00:00</time>
      </trkpt>
      <trkpt lat="43.55785" lon="7.1285">
        <ele>35.600586</ele>
        <time>2025-03-30T12:27:58+00:00</time>
      </trkpt>
      <trkpt lat="43.5578" lon="7.12851">
        <ele>35.40039</ele>
        <time>2025-03-30T12:27:59+00:00</time>
      </trkpt>
      <trkpt lat="43.55773" lon="7.12853">
        <ele>35.100586</ele>
        <time>2025-03-30T12:28:00+00:00</time>
      </trkpt>
      <trkpt lat="43.55766" lon="7.12854">
        <ele>34.799805</ele>
        <time>2025-03-30T12:28:01+00:00</time>
      </trkpt>
      <trkpt lat="43.5576" lon="7.12855">
        <ele>34.600586</ele>
        <time>2025-03-30T12:28:02+00:00</time>
      </trkpt>
      <trkpt lat="43.55755" lon="7.12855">
        <ele>34.299805</ele>
        <time>2025-03-30T12:28:03+00:00</time>
      </trkpt>
      <trkpt lat="43.55749" lon="7.12855">
        <ele>34</ele>
        <time>2025-03-30T12:28:04+00:00</time>
      </trkpt>
      <trkpt lat="43.55743" lon="7.12855">
        <ele>33.700195</ele>
        <time>2025-03-30T12:28:05+00:00</time>
      </trkpt>
      <trkpt lat="43.55737" lon="7.12856">
        <ele>33.5</ele>
        <time>2025-03-30T12:28:06+00:00</time>
      </trkpt>
      <trkpt lat="43.5573" lon="7.12855">
        <ele>33.200195</ele>
        <time>2025-03-30T12:28:07+00:00</time>
      </trkpt>
      <trkpt lat="43.55724" lon="7.12856">
        <ele>32.90039</ele>
        <time>2025-03-30T12:28:08+00:00</time>
      </trkpt>
      <trkpt lat="43.55719" lon="7.12856">
        <ele>32.700195</ele>
        <time>2025-03-30T12:28:09+00:00</time>
      </trkpt>
      <trkpt lat="43.55714" lon="7.12857">
        <ele>32.700195</ele>
        <time>2025-03-30T12:28:10+00:00</time>
      </trkpt>
      <trkpt lat="43.55709" lon="7.12857">
        <ele>32.600586</ele>
        <time>2025-03-30T12:28:11+00:00</time>
      </trkpt>
      <trkpt lat="43.55704" lon="7.12857">
        <ele>32.5</ele>
        <time>2025-03-30T12:28:12+00:00</time>
      </trkpt>
      <trkpt lat="43.557" lon="7.12856">
        <ele>32.5</ele>
        <time>2025-03-30T12:28:13+00:00</time>
      </trkpt>
      <trkpt lat="43.55695" lon="7.12857">
        <ele>32.5</ele>
        <time>2025-03-30T12:28:14+00:00</time>
      </trkpt>
      <trkpt lat="43.5569" lon="7.12857">
        <ele>32.5</ele>
        <time>2025-03-30T12:28:15+00:00</time>
      </trkpt>
      <trkpt lat="43.55684" lon="7.12857">
        <ele>32.5</ele>
        <time>2025-03-30T12:28:16+00:00</time>
      </trkpt>
      <trkpt lat="43.55678" lon="7.12858">
        <ele>32.5</ele>
        <time>2025-03-30T12:28:17+00:00</time>
      </trkpt>
      <trkpt lat="43.55672" lon="7.12859">
        <ele>32.5</ele>
        <time>2025-03-30T12:28:18+00:00</time>
      </trkpt>
      <trkpt lat="43.55666" lon="7.1286">
        <ele>32.5</ele>
        <time>2025-03-30T12:28:19+00:00</time>
      </trkpt>
      <trkpt lat="43.55661" lon="7.1286">
        <ele>32.600586</ele>
        <time>2025-03-30T12:28:20+00:00</time>
      </trkpt>
      <trkpt lat="43.55656" lon="7.1286">
        <ele>32.600586</ele>
        <time>2025-03-30T12:28:21+00:00</time>
      </trkpt>
      <trkpt lat="43.5565" lon="7.12861">
        <ele>32.700195</ele>
        <time>2025-03-30T12:28:22+00:00</time>
      </trkpt>
      <trkpt lat="43.55644" lon="7.12863">
        <ele>32.799805</ele>
        <time>2025-03-30T12:28:23+00:00</time>
      </trkpt>
      <trkpt lat="43.55638" lon="7.12863">
        <ele>32.90039</ele>
        <time>2025-03-30T12:28:24+00:00</time>
      </trkpt>
      <trkpt lat="43.55632" lon="7.12864">
        <ele>33.100586</ele>
        <time>2025-03-30T12:28:25+00:00</time>
      </trkpt>
      <trkpt lat="43.55628" lon="7.12864">
        <ele>33.100586</ele>
        <time>2025-03-30T12:28:26+00:00</time>
      </trkpt>
      <trkpt lat="43.55622" lon="7.12864">
        <ele>33.200195</ele>
        <time>2025-03-30T12:28:27+00:00</time>
      </trkpt>
      <trkpt lat="43.55618" lon="7.12865">
        <ele>33.299805</ele>
        <time>2025-03-30T12:28:28+00:00</time>
      </trkpt>
      <trkpt lat="43.55612" lon="7.12866">
        <ele>33.5</ele>
        <time>2025-03-30T12:28:29+00:00</time>
      </trkpt>
      <trkpt lat="43.55606" lon="7.12867">
        <ele>33.40039</ele>
        <time>2025-03-30T12:28:30+00:00</time>
      </trkpt>
      <trkpt lat="43.556" lon="7.12866">
        <ele>33.799805</ele>
        <time>2025-03-30T12:28:31+00:00</time>
      </trkpt>
      <trkpt lat="43.55595" lon="7.12866">
        <ele>33.90039</ele>
        <time>2025-03-30T12:28:32+00:00</time>
      </trkpt>
      <trkpt lat="43.5559" lon="7.12867">
        <ele>33.700195</ele>
        <time>2025-03-30T12:28:33+00:00</time>
      </trkpt>
      <trkpt lat="43.55584" lon="7.12866">
        <ele>34</ele>
        <time>2025-03-30T12:28:34+00:00</time>
      </trkpt>
      <trkpt lat="43.55578" lon="7.12865">
        <ele>34</ele>
        <time>2025-03-30T12:28:35+00:00</time>
      </trkpt>
      <trkpt lat="43.55573" lon="7.12864">
        <ele>34</ele>
        <time>2025-03-30T12:28:36+00:00</time>
      </trkpt>
      <trkpt lat="43.55567" lon="7.12864">
        <ele>34</ele>
        <time>2025-03-30T12:28:37+00:00</time>
      </trkpt>
      <trkpt lat="43.55561" lon="7.12863">
        <ele>34</ele>
        <time>2025-03-30T12:28:38+00:00</time>
      </trkpt>
      <trkpt lat="43.55555" lon="7.12862">
        <ele>34</ele>
        <time>2025-03-30T12:28:39+00:00</time>
      </trkpt>
      <trkpt lat="43.55549" lon="7.1286">
        <ele>34</ele>
        <time>2025-03-30T12:28:40+00:00</time>
      </trkpt>
      <trkpt lat="43.55543" lon="7.12859">
        <ele>34</ele>
        <time>2025-03-30T12:28:41+00:00</time>
      </trkpt>
      <trkpt lat="43.55536" lon="7.12857">
        <ele>34.200195</ele>
        <time>2025-03-30T12:28:42+00:00</time>
      </trkpt>
      <trkpt lat="43.55529" lon="7.12855">
        <ele>34.200195</ele>
        <time>2025-03-30T12:28:43+00:00</time>
      </trkpt>
      <trkpt lat="43.55524" lon="7.12853">
        <ele>34.100586</ele>
        <time>2025-03-30T12:28:44+00:00</time>
      </trkpt>
      <trkpt lat="43.55519" lon="7.12852">
        <ele>34</ele>
        <time>2025-03-30T12:28:45+00:00</time>
      </trkpt>
      <trkpt lat="43.55514" lon="7.12852">
        <ele>34</ele>
        <time>2025-03-30T12:28:46+00:00</time>
      </trkpt>
      <trkpt lat="43.55509" lon="7.1285">
        <ele>34</ele>
        <time>2025-03-30T12:28:47+00:00</time>
      </trkpt>
      <trkpt lat="43.55504" lon="7.1285">
        <ele>33.90039</ele>
        <time>2025-03-30T12:28:48+00:00</time>
      </trkpt>
      <trkpt lat="43.55499" lon="7.12849">
        <ele>34.200195</ele>
        <time>2025-03-30T12:28:49+00:00</time>
      </trkpt>
      <trkpt lat="43.55493" lon="7.1285">
        <ele>34.100586</ele>
        <time>2025-03-30T12:28:50+00:00</time>
      </trkpt>
      <trkpt lat="43.55488" lon="7.1285">
        <ele>34.100586</ele>
        <time>2025-03-30T12:28:51+00:00</time>
      </trkpt>
      <trkpt lat="43.55482" lon="7.1285">
        <ele>33.700195</ele>
        <time>2025-03-30T12:28:52+00:00</time>
      </trkpt>
      <trkpt lat="43.55476" lon="7.1285">
        <ele>33.90039</ele>
        <time>2025-03-30T12:28:53+00:00</time>
      </trkpt>
      <trkpt lat="43.5547" lon="7.12849">
        <ele>33.90039</ele>
        <time>2025-03-30T12:28:54+00:00</time>
      </trkpt>
      <trkpt lat="43.55464" lon="7.12848">
        <ele>33.799805</ele>
        <time>2025-03-30T12:28:55+00:00</time>
      </trkpt>
      <trkpt lat="43.55457" lon="7.12848">
        <ele>33.700195</ele>
        <time>2025-03-30T12:28:56+00:00</time>
      </trkpt>
      <trkpt lat="43.55451" lon="7.12847">
        <ele>33.600586</ele>
        <time>2025-03-30T12:28:57+00:00</time>
      </trkpt>
      <trkpt lat="43.55444" lon="7.12848">
        <ele>33.5</ele>
        <time>2025-03-30T12:28:58+00:00</time>
      </trkpt>
      <trkpt lat="43.55439" lon="7.12847">
        <ele>33.5</ele>
        <time>2025-03-30T12:28:59+00:00</time>
      </trkpt>
      <trkpt lat="43.55433" lon="7.12847">
        <ele>33.5</ele>
        <time>2025-03-30T12:29:00+00:00</time>
      </trkpt>
      <trkpt lat="43.55428" lon="7.12849">
        <ele>33.5</ele>
        <time>2025-03-30T12:29:01+00:00</time>
      </trkpt>
      <trkpt lat="43.55422" lon="7.1285">
        <ele>33.100586</ele>
        <time>2025-03-30T12:29:02+00:00</time>
      </trkpt>
      <trkpt lat="43.55415" lon="7.12852">
        <ele>33.100586</ele>
        <time>2025-03-30T12:29:03+00:00</time>
      </trkpt>
      <trkpt lat="43.55408" lon="7.12854">
        <ele>33.200195</ele>
        <time>2025-03-30T12:29:04+00:00</time>
      </trkpt>
      <trkpt lat="43.55402" lon="7.12855">
        <ele>33.200195</ele>
        <time>2025-03-30T12:29:05+00:00</time>
      </trkpt>
      <trkpt lat="43.55395" lon="7.12859">
        <ele>32.90039</ele>
        <time>2025-03-30T12:29:06+00:00</time>
      </trkpt>
      <trkpt lat="43.55388" lon="7.12863">
        <ele>32.90039</ele>
        <time>2025-03-30T12:29:07+00:00</time>
      </trkpt>
      <trkpt lat="43.55382" lon="7.12865">
        <ele>32.90039</ele>
        <time>2025-03-30T12:29:08+00:00</time>
      </trkpt>
      <trkpt lat="43.55378" lon="7.12866">
        <ele>32.90039</ele>
        <time>2025-03-30T12:29:09+00:00</time>
      </trkpt>
      <trkpt lat="43.55371" lon="7.12868">
        <ele>32.700195</ele>
        <time>2025-03-30T12:29:10+00:00</time>
      </trkpt>
      <trkpt lat="43.55366" lon="7.12869">
        <ele>32.799805</ele>
        <time>2025-03-30T12:29:11+00:00</time>
      </trkpt>
      <trkpt lat="43.5536" lon="7.12871">
        <ele>32.799805</ele>
        <time>2025-03-30T12:29:12+00:00</time>
      </trkpt>
      <trkpt lat="43.55354" lon="7.12875">
        <ele>32.799805</ele>
        <time>2025-03-30T12:29:13+00:00</time>
      </trkpt>
      <trkpt lat="43.55347" lon="7.12876">
        <ele>32.700195</ele>
        <time>2025-03-30T12:29:14+00:00</time>
      </trkpt>
      <trkpt lat="43.5534" lon="7.12878">
        <ele>32.799805</ele>
        <time>2025-03-30T12:29:15+00:00</time>
      </trkpt>
      <trkpt lat="43.55333" lon="7.12879">
        <ele>32.799805</ele>
        <time>2025-03-30T12:29:16+00:00</time>
      </trkpt>
      <trkpt lat="43.55327" lon="7.1288">
        <ele>32.799805</ele>
        <time>2025-03-30T12:29:17+00:00</time>
      </trkpt>
      <trkpt lat="43.55321" lon="7.12881">
        <ele>32.799805</ele>
        <time>2025-03-30T12:29:18+00:00</time>
      </trkpt>
      <trkpt lat="43.55315" lon="7.12883">
        <ele>32.799805</ele>
        <time>2025-03-30T12:29:19+00:00</time>
      </trkpt>
      <trkpt lat="43.55308" lon="7.12882">
        <ele>32.799805</ele>
        <time>2025-03-30T12:29:20+00:00</time>
      </trkpt>
      <trkpt lat="43.55302" lon="7.12884">
        <ele>32.90039</ele>
        <time>2025-03-30T12:29:21+00:00</time>
      </trkpt>
      <trkpt lat="43.55296" lon="7.12885">
        <ele>32.90039</ele>
        <time>2025-03-30T12:29:22+00:00</time>
      </trkpt>
      <trkpt lat="43.5529" lon="7.12886">
        <ele>33</ele>
        <time>2025-03-30T12:29:23+00:00</time>
      </trkpt>
      <trkpt lat="43.55284" lon="7.12886">
        <ele>33</ele>
        <time>2025-03-30T12:29:24+00:00</time>
      </trkpt>
      <trkpt lat="43.55278" lon="7.12887">
        <ele>33</ele>
        <time>2025-03-30T12:29:25+00:00</time>
      </trkpt>
      <trkpt lat="43.55272" lon="7.12886">
        <ele>33.100586</ele>
        <time>2025-03-30T12:29:26+00:00</time>
      </trkpt>
      <trkpt lat="43.55267" lon="7.12882">
        <ele>33.100586</ele>
        <time>2025-03-30T12:29:27+00:00</time>
      </trkpt>
      <trkpt lat="43.55261" lon="7.12882">
        <ele>33.100586</ele>
        <time>2025-03-30T12:29:28+00:00</time>
      </trkpt>
      <trkpt lat="43.55255" lon="7.12883">
        <ele>33.200195</ele>
        <time>2025-03-30T12:29:29+00:00</time>
      </trkpt>
      <trkpt lat="43.55249" lon="7.12883">
        <ele>33.299805</ele>
        <time>2025-03-30T12:29:30+00:00</time>
      </trkpt>
      <trkpt lat="43.55242" lon="7.12883">
        <ele>33.40039</ele>
        <time>2025-03-30T12:29:31+00:00</time>
      </trkpt>
      <trkpt lat="43.55236" lon="7.12882">
        <ele>33.600586</ele>
        <time>2025-03-30T12:29:32+00:00</time>
      </trkpt>
      <trkpt lat="43.5523" lon="7.12881">
        <ele>33.799805</ele>
        <time>2025-03-30T12:29:33+00:00</time>
      </trkpt>
      <trkpt lat="43.55223" lon="7.12883">
        <ele>34</ele>
        <time>2025-03-30T12:29:34+00:00</time>
      </trkpt>
      <trkpt lat="43.55218" lon="7.12881">
        <ele>34.100586</ele>
        <time>2025-03-30T12:29:35+00:00</time>
      </trkpt>
      <trkpt lat="43.55212" lon="7.12881">
        <ele>34.299805</ele>
        <time>2025-03-30T12:29:36+00:00</time>
      </trkpt>
      <trkpt lat="43.55206" lon="7.1288">
        <ele>34.5</ele>
        <time>2025-03-30T12:29:37+00:00</time>
      </trkpt>
      <trkpt lat="43.552" lon="7.12878">
        <ele>34.700195</ele>
        <time>2025-03-30T12:29:38+00:00</time>
      </trkpt>
      <trkpt lat="43.55194" lon="7.12874">
        <ele>34.700195</ele>
        <time>2025-03-30T12:29:39+00:00</time>
      </trkpt>
      <trkpt lat="43.5519" lon="7.12873">
        <ele>34.799805</ele>
        <time>2025-03-30T12:29:40+00:00</time>
      </trkpt>
      <trkpt lat="43.55185" lon="7.12869">
        <ele>34.799805</ele>
        <time>2025-03-30T12:29:41+00:00</time>
      </trkpt>
      <trkpt lat="43.5518" lon="7.12864">
        <ele>34.799805</ele>
        <time>2025-03-30T12:29:42+00:00</time>
      </trkpt>
      <trkpt lat="43.55175" lon="7.12858">
        <ele>34.700195</ele>
        <time>2025-03-30T12:29:43+00:00</time>
      </trkpt>
      <trkpt lat="43.55171" lon="7.12854">
        <ele>34.799805</ele>
        <time>2025-03-30T12:29:44+00:00</time>
      </trkpt>
      <trkpt lat="43.55169" lon="7.12848">
        <ele>34.5</ele>
        <time>2025-03-30T12:29:45+00:00</time>
      </trkpt>
      <trkpt lat="43.55164" lon="7.12841">
        <ele>34.40039</ele>
        <time>2025-03-30T12:29:46+00:00</time>
      </trkpt>
      <trkpt lat="43.55161" lon="7.12835">
        <ele>34.40039</ele>
        <time>2025-03-30T12:29:47+00:00</time>
      </trkpt>
      <trkpt lat="43.55157" lon="7.12829">
        <ele>34.299805</ele>
        <time>2025-03-30T12:29:48+00:00</time>
      </trkpt>
      <trkpt lat="43.55153" lon="7.12822">
        <ele>34.100586</ele>
        <time>2025-03-30T12:29:49+00:00</time>
      </trkpt>
      <trkpt lat="43.5515" lon="7.12814">
        <ele>33.600586</ele>
        <time>2025-03-30T12:29:50+00:00</time>
      </trkpt>
      <trkpt lat="43.55146" lon="7.12807">
        <ele>33.799805</ele>
        <time>2025-03-30T12:29:51+00:00</time>
      </trkpt>
      <trkpt lat="43.55144" lon="7.128">
        <ele>33.299805</ele>
        <time>2025-03-30T12:29:52+00:00</time>
      </trkpt>
      <trkpt lat="43.55141" lon="7.12792">
        <ele>32.90039</ele>
        <time>2025-03-30T12:29:53+00:00</time>
      </trkpt>
      <trkpt lat="43.55137" lon="7.12785">
        <ele>32.200195</ele>
        <time>2025-03-30T12:29:54+00:00</time>
      </trkpt>
      <trkpt lat="43.55134" lon="7.12777">
        <ele>31.600586</ele>
        <time>2025-03-30T12:29:55+00:00</time>
      </trkpt>
      <trkpt lat="43.5513" lon="7.1277">
        <ele>30.700195</ele>
        <time>2025-03-30T12:29:56+00:00</time>
      </trkpt>
      <trkpt lat="43.55126" lon="7.12763">
        <ele>30.100586</ele>
        <time>2025-03-30T12:29:57+00:00</time>
      </trkpt>
      <trkpt lat="43.55123" lon="7.12756">
        <ele>30.100586</ele>
        <time>2025-03-30T12:29:58+00:00</time>
      </trkpt>
      <trkpt lat="43.55121" lon="7.12748">
        <ele>29.600586</ele>
        <time>2025-03-30T12:29:59+00:00</time>
      </trkpt>
      <trkpt lat="43.55118" lon="7.1274">
        <ele>28.799805</ele>
        <time>2025-03-30T12:30:00+00:00</time>
      </trkpt>
      <trkpt lat="43.55114" lon="7.12733">
        <ele>28.5</ele>
        <time>2025-03-30T12:30:01+00:00</time>
      </trkpt>
      <trkpt lat="43.5511" lon="7.12726">
        <ele>27.799805</ele>
        <time>2025-03-30T12:30:02+00:00</time>
      </trkpt>
      <trkpt lat="43.55107" lon="7.12719">
        <ele>27.700195</ele>
        <time>2025-03-30T12:30:03+00:00</time>
      </trkpt>
      <trkpt lat="43.55103" lon="7.12712">
        <ele>27.600586</ele>
        <time>2025-03-30T12:30:04+00:00</time>
      </trkpt>
      <trkpt lat="43.55101" lon="7.12705">
        <ele>27.600586</ele>
        <time>2025-03-30T12:30:05+00:00</time>
      </trkpt>
      <trkpt lat="43.55099" lon="7.12698">
        <ele>27.200195</ele>
        <time>2025-03-30T12:30:06+00:00</time>
      </trkpt>
      <trkpt lat="43.55097" lon="7.12691">
        <ele>27.5</ele>
        <time>2025-03-30T12:30:07+00:00</time>
      </trkpt>
      <trkpt lat="43.55096" lon="7.12685">
        <ele>27.299805</ele>
        <time>2025-03-30T12:30:08+00:00</time>
      </trkpt>
      <trkpt lat="43.55098" lon="7.12678">
        <ele>26.600586</ele>
        <time>2025-03-30T12:30:09+00:00</time>
      </trkpt>
      <trkpt lat="43.55099" lon="7.12671">
        <ele>26.40039</ele>
        <time>2025-03-30T12:30:10+00:00</time>
      </trkpt>
      <trkpt lat="43.55101" lon="7.12664">
        <ele>26.299805</ele>
        <time>2025-03-30T12:30:11+00:00</time>
      </trkpt>
      <trkpt lat="43.55103" lon="7.12656">
        <ele>26.200195</ele>
        <time>2025-03-30T12:30:12+00:00</time>
      </trkpt>
      <trkpt lat="43.55104" lon="7.12647">
        <ele>25.40039</ele>
        <time>2025-03-30T12:30:13+00:00</time>
      </trkpt>
      <trkpt lat="43.55106" lon="7.12639">
        <ele>25.299805</ele>
        <time>2025-03-30T12:30:14+00:00</time>
      </trkpt>
      <trkpt lat="43.55107" lon="7.12632">
        <ele>25.200195</ele>
        <time>2025-03-30T12:30:15+00:00</time>
      </trkpt>
      <trkpt lat="43.55109" lon="7.12626">
        <ele>25</ele>
        <time>2025-03-30T12:30:16+00:00</time>
      </trkpt>
      <trkpt lat="43.55111" lon="7.12622">
        <ele>24.200195</ele>
        <time>2025-03-30T12:30:17+00:00</time>
      </trkpt>
      <trkpt lat="43.55115" lon="7.12619">
        <ele>24.200195</ele>
        <time>2025-03-30T12:30:18+00:00</time>
      </trkpt>
      <trkpt lat="43.5512" lon="7.12612">
        <ele>23.299805</ele>
        <time>2025-03-30T12:30:19+00:00</time>
      </trkpt>
      <trkpt lat="43.55128" lon="7.12609">
        <ele>22.5</ele>
        <time>2025-03-30T12:30:20+00:00</time>
      </trkpt>
      <trkpt lat="43.55138" lon="7.12608">
        <ele>21.299805</ele>
        <time>2025-03-30T12:30:21+00:00</time>
      </trkpt>
      <trkpt lat="43.55147" lon="7.12605">
        <ele>20.700195</ele>
        <time>2025-03-30T12:30:22+00:00</time>
      </trkpt>
      <trkpt lat="43.55156" lon="7.12601">
        <ele>19.40039</ele>
        <time>2025-03-30T12:30:23+00:00</time>
      </trkpt>
      <trkpt lat="43.55164" lon="7.12598">
        <ele>18.799805</ele>
        <time>2025-03-30T12:30:24+00:00</time>
      </trkpt>
      <trkpt lat="43.55173" lon="7.12594">
        <ele>17.700195</ele>
        <time>2025-03-30T12:30:25+00:00</time>
      </trkpt>
      <trkpt lat="43.5518" lon="7.12592">
        <ele>16.90039</ele>
        <time>2025-03-30T12:30:26+00:00</time>
      </trkpt>
      <trkpt lat="43.55187" lon="7.12589">
        <ele>16.5</ele>
        <time>2025-03-30T12:30:27+00:00</time>
      </trkpt>
      <trkpt lat="43.55193" lon="7.12586">
        <ele>16.200195</ele>
        <time>2025-03-30T12:30:28+00:00</time>
      </trkpt>
      <trkpt lat="43.55201" lon="7.12583">
        <ele>15.5</ele>
        <time>2025-03-30T12:30:29+00:00</time>
      </trkpt>
      <trkpt lat="43.55208" lon="7.1258">
        <ele>15.299805</ele>
        <time>2025-03-30T12:30:30+00:00</time>
      </trkpt>
      <trkpt lat="43.55215" lon="7.12577">
        <ele>15.100586</ele>
        <time>2025-03-30T12:30:31+00:00</time>
      </trkpt>
      <trkpt lat="43.55223" lon="7.12573">
        <ele>14.299805</ele>
        <time>2025-03-30T12:30:32+00:00</time>
      </trkpt>
      <trkpt lat="43.5523" lon="7.12569">
        <ele>14.200195</ele>
        <time>2025-03-30T12:30:33+00:00</time>
      </trkpt>
      <trkpt lat="43.55237" lon="7.12566">
        <ele>13.700195</ele>
        <time>2025-03-30T12:30:34+00:00</time>
      </trkpt>
      <trkpt lat="43.55243" lon="7.12562">
        <ele>13.700195</ele>
        <time>2025-03-30T12:30:35+00:00</time>
      </trkpt>
      <trkpt lat="43.55248" lon="7.1256">
        <ele>13.700195</ele>
        <time>2025-03-30T12:30:36+00:00</time>
      </trkpt>
      <trkpt lat="43.55253" lon="7.12557">
        <ele>13.5</ele>
        <time>2025-03-30T12:30:38+00:00</time>
      </trkpt>
      <trkpt lat="43.55252" lon="7.1255">
        <ele>13.5</ele>
        <time>2025-03-30T12:30:39+00:00</time>
      </trkpt>
      <trkpt lat="43.5525" lon="7.12546">
        <ele>13.400391</ele>
        <time>2025-03-30T12:30:40+00:00</time>
      </trkpt>
      <trkpt lat="43.55249" lon="7.12539">
        <ele>13.299805</ele>
        <time>2025-03-30T12:30:41+00:00</time>
      </trkpt>
      <trkpt lat="43.55247" lon="7.12533">
        <ele>13.299805</ele>
        <time>2025-03-30T12:30:42+00:00</time>
      </trkpt>
      <trkpt lat="43.55247" lon="7.12525">
        <ele>13.299805</ele>
        <time>2025-03-30T12:30:43+00:00</time>
      </trkpt>
      <trkpt lat="43.55246" lon="7.12518">
        <ele>13.200195</ele>
        <time>2025-03-30T12:30:44+00:00</time>
      </trkpt>
      <trkpt lat="43.55244" lon="7.1251">
        <ele>13.100586</ele>
        <time>2025-03-30T12:30:45+00:00</time>
      </trkpt>
      <trkpt lat="43.55243" lon="7.125">
        <ele>13.100586</ele>
        <time>2025-03-30T12:30:46+00:00</time>
      </trkpt>
      <trkpt lat="43.55242" lon="7.1249">
        <ele>12.900391</ele>
        <time>2025-03-30T12:30:47+00:00</time>
      </trkpt>
      <trkpt lat="43.55241" lon="7.12482">
        <ele>12.799805</ele>
        <time>2025-03-30T12:30:48+00:00</time>
      </trkpt>
      <trkpt lat="43.55239" lon="7.12473">
        <ele>12.700195</ele>
        <time>2025-03-30T12:30:49+00:00</time>
      </trkpt>
      <trkpt lat="43.55238" lon="7.12466">
        <ele>12.5</ele>
        <time>2025-03-30T12:30:50+00:00</time>
      </trkpt>
      <trkpt lat="43.55237" lon="7.12459">
        <ele>12.299805</ele>
        <time>2025-03-30T12:30:51+00:00</time>
      </trkpt>
      <trkpt lat="43.55235" lon="7.12453">
        <ele>12.200195</ele>
        <time>2025-03-30T12:30:52+00:00</time>
      </trkpt>
      <trkpt lat="43.55233" lon="7.12449">
        <ele>12.200195</ele>
        <time>2025-03-30T12:30:53+00:00</time>
      </trkpt>
      <trkpt lat="43.55232" lon="7.12443">
        <ele>12</ele>
        <time>2025-03-30T12:30:54+00:00</time>
      </trkpt>
      <trkpt lat="43.55231" lon="7.12436">
        <ele>11.799805</ele>
        <time>2025-03-30T12:30:55+00:00</time>
      </trkpt>
      <trkpt lat="43.5523" lon="7.12429">
        <ele>11.799805</ele>
        <time>2025-03-30T12:30:56+00:00</time>
      </trkpt>
      <trkpt lat="43.55229" lon="7.12421">
        <ele>11.700195</ele>
        <time>2025-03-30T12:30:57+00:00</time>
      </trkpt>
      <trkpt lat="43.55227" lon="7.12412">
        <ele>11.5</ele>
        <time>2025-03-30T12:30:58+00:00</time>
      </trkpt>
      <trkpt lat="43.55226" lon="7.12405">
        <ele>11.299805</ele>
        <time>2025-03-30T12:30:59+00:00</time>
      </trkpt>
      <trkpt lat="43.55225" lon="7.12397">
        <ele>11.100586</ele>
        <time>2025-03-30T12:31:00+00:00</time>
      </trkpt>
      <trkpt lat="43.55225" lon="7.12389">
        <ele>10.900391</ele>
        <time>2025-03-30T12:31:01+00:00</time>
      </trkpt>
      <trkpt lat="43.55222" lon="7.12378">
        <ele>10.700195</ele>
        <time>2025-03-30T12:31:02+00:00</time>
      </trkpt>
      <trkpt lat="43.55221" lon="7.1237">
        <ele>10.5</ele>
        <time>2025-03-30T12:31:03+00:00</time>
      </trkpt>
      <trkpt lat="43.55219" lon="7.12361">
        <ele>10.299805</ele>
        <time>2025-03-30T12:31:04+00:00</time>
      </trkpt>
      <trkpt lat="43.55219" lon="7.12353">
        <ele>10</ele>
        <time>2025-03-30T12:31:05+00:00</time>
      </trkpt>
      <trkpt lat="43.55219" lon="7.12345">
        <ele>9.799805</ele>
        <time>2025-03-30T12:31:06+00:00</time>
      </trkpt>
      <trkpt lat="43.55219" lon="7.12338">
        <ele>9.5</ele>
        <time>2025-03-30T12:31:07+00:00</time>
      </trkpt>
      <trkpt lat="43.55218" lon="7.12334">
        <ele>9.299805</ele>
        <time>2025-03-30T12:31:08+00:00</time>
      </trkpt>
      <trkpt lat="43.55218" lon="7.12331">
        <ele>9.299805</ele>
        <time>2025-03-30T12:31:09+00:00</time>
      </trkpt>
      <trkpt lat="43.55216" lon="7.12324">
        <ele>9</ele>
        <time>2025-03-30T12:31:11+00:00</time>
      </trkpt>
      <trkpt lat="43.55216" lon="7.1232">
        <ele>9</ele>
        <time>2025-03-30T12:31:13+00:00</time>
      </trkpt>
      <trkpt lat="43.55216" lon="7.12316">
        <ele>8.900391</ele>
        <time>2025-03-30T12:31:15+00:00</time>
      </trkpt>
      <trkpt lat="43.55215" lon="7.1231">
        <ele>8.900391</ele>
        <time>2025-03-30T12:31:17+00:00</time>
      </trkpt>
      <trkpt lat="43.55215" lon="7.12304">
        <ele>8.700195</ele>
        <time>2025-03-30T12:31:19+00:00</time>
      </trkpt>
      <trkpt lat="43.55214" lon="7.12298">
        <ele>8.5</ele>
        <time>2025-03-30T12:31:21+00:00</time>
      </trkpt>
      <trkpt lat="43.55214" lon="7.12294">
        <ele>8.5</ele>
        <time>2025-03-30T12:31:23+00:00</time>
      </trkpt>
      <trkpt lat="43.55215" lon="7.12291">
        <ele>8.400391</ele>
        <time>2025-03-30T12:31:25+00:00</time>
      </trkpt>
      <trkpt lat="43.55214" lon="7.12285">
        <ele>8.400391</ele>
        <time>2025-03-30T12:31:29+00:00</time>
      </trkpt>
      <trkpt lat="43.55213" lon="7.12279">
        <ele>8.299805</ele>
        <time>2025-03-30T12:31:31+00:00</time>
      </trkpt>
      <trkpt lat="43.55213" lon="7.12274">
        <ele>8.200195</ele>
        <time>2025-03-30T12:31:33+00:00</time>
      </trkpt>
      <trkpt lat="43.55212" lon="7.12269">
        <ele>8.200195</ele>
        <time>2025-03-30T12:31:35+00:00</time>
      </trkpt>
      <trkpt lat="43.55213" lon="7.12264">
        <ele>8.200195</ele>
        <time>2025-03-30T12:31:37+00:00</time>
      </trkpt>
      <trkpt lat="43.55214" lon="7.12259">
        <ele>8.200195</ele>
        <time>2025-03-30T12:31:39+00:00</time>
      </trkpt>
      <trkpt lat="43.55215" lon="7.12254">
        <ele>8</ele>
        <time>2025-03-30T12:31:41+00:00</time>
      </trkpt>
      <trkpt lat="43.55213" lon="7.12249">
        <ele>7.9003906</ele>
        <time>2025-03-30T12:31:43+00:00</time>
      </trkpt>
      <trkpt lat="43.55214" lon="7.12243">
        <ele>7.9003906</ele>
        <time>2025-03-30T12:31:45+00:00</time>
      </trkpt>
      <trkpt lat="43.55214" lon="7.12239">
        <ele>7.600586</ele>
        <time>2025-03-30T12:31:46+00:00</time>
      </trkpt>
      <trkpt lat="43.55214" lon="7.12233">
        <ele>7.600586</ele>
        <time>2025-03-30T12:31:48+00:00</time>
      </trkpt>
      <trkpt lat="43.55215" lon="7.12229">
        <ele>7.2001953</ele>
        <time>2025-03-30T12:31:49+00:00</time>
      </trkpt>
      <trkpt lat="43.55217" lon="7.12224">
        <ele>6.5</ele>
        <time>2025-03-30T12:31:51+00:00</time>
      </trkpt>
      <trkpt lat="43.55217" lon="7.12218">
        <ele>5.600586</ele>
        <time>2025-03-30T12:31:53+00:00</time>
      </trkpt>
      <trkpt lat="43.55217" lon="7.12214">
        <ele>4.100586</ele>
        <time>2025-03-30T12:31:55+00:00</time>
      </trkpt>
      <trkpt lat="43.55218" lon="7.1221">
        <ele>4.100586</ele>
        <time>2025-03-30T12:31:57+00:00</time>
      </trkpt>
      <trkpt lat="43.55221" lon="7.12211">
        <ele>4.100586</ele>
        <time>2025-03-30T12:31:59+00:00</time>
      </trkpt>
      <trkpt lat="43.55224" lon="7.12215">
        <ele>4.9003906</ele>
        <time>2025-03-30T12:32:00+00:00</time>
      </trkpt>
      <trkpt lat="43.55227" lon="7.12218">
        <ele>4.9003906</ele>
        <time>2025-03-30T12:32:01+00:00</time>
      </trkpt>
      <trkpt lat="43.55229" lon="7.1222">
        <ele>4.600586</ele>
        <time>2025-03-30T12:32:02+00:00</time>
      </trkpt>
      <trkpt lat="43.55231" lon="7.12222">
        <ele>4.600586</ele>
        <time>2025-03-30T12:32:03+00:00</time>
      </trkpt>
      <trkpt lat="43.55235" lon="7.12224">
        <ele>5.4003906</ele>
        <time>2025-03-30T12:32:04+00:00</time>
      </trkpt>
      <trkpt lat="43.55239" lon="7.12228">
        <ele>5.4003906</ele>
        <time>2025-03-30T12:32:05+00:00</time>
      </trkpt>
      <trkpt lat="43.55244" lon="7.12231">
        <ele>5.2001953</ele>
        <time>2025-03-30T12:32:06+00:00</time>
      </trkpt>
      <trkpt lat="43.55248" lon="7.12234">
        <ele>5.7998047</ele>
        <time>2025-03-30T12:32:07+00:00</time>
      </trkpt>
      <trkpt lat="43.55254" lon="7.12235">
        <ele>5.7001953</ele>
        <time>2025-03-30T12:32:08+00:00</time>
      </trkpt>
      <trkpt lat="43.55259" lon="7.12238">
        <ele>5.7001953</ele>
        <time>2025-03-30T12:32:09+00:00</time>
      </trkpt>
      <trkpt lat="43.55264" lon="7.12239">
        <ele>5.5</ele>
        <time>2025-03-30T12:32:10+00:00</time>
      </trkpt>
      <trkpt lat="43.55269" lon="7.12239">
        <ele>5.4003906</ele>
        <time>2025-03-30T12:32:11+00:00</time>
      </trkpt>
      <trkpt lat="43.55274" lon="7.12239">
        <ele>5.4003906</ele>
        <time>2025-03-30T12:32:12+00:00</time>
      </trkpt>
      <trkpt lat="43.5528" lon="7.12237">
        <ele>5.4003906</ele>
        <time>2025-03-30T12:32:13+00:00</time>
      </trkpt>
      <trkpt lat="43.55285" lon="7.12235">
        <ele>5.2998047</ele>
        <time>2025-03-30T12:32:14+00:00</time>
      </trkpt>
      <trkpt lat="43.5529" lon="7.12234">
        <ele>5.2998047</ele>
        <time>2025-03-30T12:32:15+00:00</time>
      </trkpt>
      <trkpt lat="43.55295" lon="7.12232">
        <ele>4.7001953</ele>
        <time>2025-03-30T12:32:16+00:00</time>
      </trkpt>
      <trkpt lat="43.553" lon="7.12229">
        <ele>4.7001953</ele>
        <time>2025-03-30T12:32:17+00:00</time>
      </trkpt>
      <trkpt lat="43.55306" lon="7.12228">
        <ele>4.7001953</ele>
        <time>2025-03-30T12:32:18+00:00</time>
      </trkpt>
      <trkpt lat="43.55311" lon="7.12226">
        <ele>4.7998047</ele>
        <time>2025-03-30T12:32:19+00:00</time>
      </trkpt>
      <trkpt lat="43.55318" lon="7.12222">
        <ele>4</ele>
        <time>2025-03-30T12:32:20+00:00</time>
      </trkpt>
      <trkpt lat="43.55325" lon="7.1222">
        <ele>4.100586</ele>
        <time>2025-03-30T12:32:21+00:00</time>
      </trkpt>
      <trkpt lat="43.55331" lon="7.12217">
        <ele>4.100586</ele>
        <time>2025-03-30T12:32:22+00:00</time>
      </trkpt>
      <trkpt lat="43.55337" lon="7.12216">
        <ele>4.100586</ele>
        <time>2025-03-30T12:32:23+00:00</time>
      </trkpt>
      <trkpt lat="43.55343" lon="7.12216">
        <ele>4</ele>
        <time>2025-03-30T12:32:24+00:00</time>
      </trkpt>
      <trkpt lat="43.5535" lon="7.1222">
        <ele>3.9003906</ele>
        <time>2025-03-30T12:32:25+00:00</time>
      </trkpt>
      <trkpt lat="43.55357" lon="7.12224">
        <ele>4.5</ele>
        <time>2025-03-30T12:32:26+00:00</time>
      </trkpt>
      <trkpt lat="43.55364" lon="7.12228">
        <ele>4.2998047</ele>
        <time>2025-03-30T12:32:27+00:00</time>
      </trkpt>
      <trkpt lat="43.5537" lon="7.12232">
        <ele>4.7001953</ele>
        <time>2025-03-30T12:32:28+00:00</time>
      </trkpt>
      <trkpt lat="43.55375" lon="7.12237">
        <ele>4.4003906</ele>
        <time>2025-03-30T12:32:29+00:00</time>
      </trkpt>
      <trkpt lat="43.5538" lon="7.12243">
        <ele>4.4003906</ele>
        <time>2025-03-30T12:32:30+00:00</time>
      </trkpt>
      <trkpt lat="43.55385" lon="7.12247">
        <ele>4.2001953</ele>
        <time>2025-03-30T12:32:31+00:00</time>
      </trkpt>
      <trkpt lat="43.55391" lon="7.12251">
        <ele>4.4003906</ele>
        <time>2025-03-30T12:32:32+00:00</time>
      </trkpt>
      <trkpt lat="43.55399" lon="7.12253">
        <ele>4.2998047</ele>
        <time>2025-03-30T12:32:33+00:00</time>
      </trkpt>
      <trkpt lat="43.55406" lon="7.12254">
        <ele>4.2001953</ele>
        <time>2025-03-30T12:32:34+00:00</time>
      </trkpt>
      <trkpt lat="43.55414" lon="7.12254">
        <ele>4.100586</ele>
        <time>2025-03-30T12:32:35+00:00</time>
      </trkpt>
      <trkpt lat="43.5542" lon="7.12254">
        <ele>4.100586</ele>
        <time>2025-03-30T12:32:36+00:00</time>
      </trkpt>
      <trkpt lat="43.55428" lon="7.12253">
        <ele>4.100586</ele>
        <time>2025-03-30T12:32:37+00:00</time>
      </trkpt>
      <trkpt lat="43.55435" lon="7.1225">
        <ele>4.100586</ele>
        <time>2025-03-30T12:32:38+00:00</time>
      </trkpt>
      <trkpt lat="43.55442" lon="7.12248">
        <ele>3.600586</ele>
        <time>2025-03-30T12:32:39+00:00</time>
      </trkpt>
      <trkpt lat="43.55448" lon="7.12247">
        <ele>3.7001953</ele>
        <time>2025-03-30T12:32:40+00:00</time>
      </trkpt>
      <trkpt lat="43.55453" lon="7.12244">
        <ele>3.7998047</ele>
        <time>2025-03-30T12:32:41+00:00</time>
      </trkpt>
      <trkpt lat="43.55459" lon="7.12242">
        <ele>4</ele>
        <time>2025-03-30T12:32:42+00:00</time>
      </trkpt>
      <trkpt lat="43.55467" lon="7.12239">
        <ele>3.5</ele>
        <time>2025-03-30T12:32:43+00:00</time>
      </trkpt>
      <trkpt lat="43.55471" lon="7.12234">
        <ele>3.7998047</ele>
        <time>2025-03-30T12:32:44+00:00</time>
      </trkpt>
      <trkpt lat="43.55477" lon="7.12228">
        <ele>3</ele>
        <time>2025-03-30T12:32:45+00:00</time>
      </trkpt>
      <trkpt lat="43.55483" lon="7.12223">
        <ele>1.7001953</ele>
        <time>2025-03-30T12:32:46+00:00</time>
      </trkpt>
      <trkpt lat="43.55488" lon="7.12216">
        <ele>2.9003906</ele>
        <time>2025-03-30T12:32:47+00:00</time>
      </trkpt>
      <trkpt lat="43.55492" lon="7.1221">
        <ele>3.5</ele>
        <time>2025-03-30T12:32:48+00:00</time>
      </trkpt>
      <trkpt lat="43.55497" lon="7.12204">
        <ele>3.600586</ele>
        <time>2025-03-30T12:32:49+00:00</time>
      </trkpt>
      <trkpt lat="43.555" lon="7.12195">
        <ele>2.4003906</ele>
        <time>2025-03-30T12:32:50+00:00</time>
      </trkpt>
      <trkpt lat="43.55503" lon="7.12188">
        <ele>2.100586</ele>
        <time>2025-03-30T12:32:51+00:00</time>
      </trkpt>
      <trkpt lat="43.55506" lon="7.12181">
        <ele>2.100586</ele>
        <time>2025-03-30T12:32:52+00:00</time>
      </trkpt>
      <trkpt lat="43.5551" lon="7.12173">
        <ele>2.7998047</ele>
        <time>2025-03-30T12:32:53+00:00</time>
      </trkpt>
      <trkpt lat="43.55512" lon="7.12166">
        <ele>2</ele>
        <time>2025-03-30T12:32:54+00:00</time>
      </trkpt>
      <trkpt lat="43.55516" lon="7.12158">
        <ele>1.6005859</ele>
        <time>2025-03-30T12:32:55+00:00</time>
      </trkpt>
      <trkpt lat="43.55519" lon="7.1215">
        <ele>0.2998047</ele>
        <time>2025-03-30T12:32:56+00:00</time>
      </trkpt>
      <trkpt lat="43.55524" lon="7.12143">
        <ele>0.60058594</ele>
        <time>2025-03-30T12:32:57+00:00</time>
      </trkpt>
      <trkpt lat="43.55528" lon="7.12136">
        <ele>1.1005859</ele>
        <time>2025-03-30T12:32:58+00:00</time>
      </trkpt>
      <trkpt lat="43.55533" lon="7.12129">
        <ele>1.1005859</ele>
        <time>2025-03-30T12:32:59+00:00</time>
      </trkpt>
      <trkpt lat="43.55537" lon="7.12125">
        <ele>0.7998047</ele>
        <time>2025-03-30T12:33:00+00:00</time>
      </trkpt>
      <trkpt lat="43.55545" lon="7.12125">
        <ele>1.2998047</ele>
        <time>2025-03-30T12:33:01+00:00</time>
      </trkpt>
      <trkpt lat="43.55552" lon="7.12126">
        <ele>2</ele>
        <time>2025-03-30T12:33:02+00:00</time>
      </trkpt>
      <trkpt lat="43.55559" lon="7.12127">
        <ele>3.100586</ele>
        <time>2025-03-30T12:33:03+00:00</time>
      </trkpt>
      <trkpt lat="43.55565" lon="7.12129">
        <ele>3</ele>
        <time>2025-03-30T12:33:04+00:00</time>
      </trkpt>
      <trkpt lat="43.55572" lon="7.1213">
        <ele>3.2998047</ele>
        <time>2025-03-30T12:33:05+00:00</time>
      </trkpt>
      <trkpt lat="43.55579" lon="7.12131">
        <ele>3.100586</ele>
        <time>2025-03-30T12:33:06+00:00</time>
      </trkpt>
      <trkpt lat="43.55585" lon="7.12132">
        <ele>2.9003906</ele>
        <time>2025-03-30T12:33:07+00:00</time>
      </trkpt>
      <trkpt lat="43.55592" lon="7.12133">
        <ele>2.9003906</ele>
        <time>2025-03-30T12:33:08+00:00</time>
      </trkpt>
      <trkpt lat="43.55599" lon="7.12136">
        <ele>2.9003906</ele>
        <time>2025-03-30T12:33:09+00:00</time>
      </trkpt>
      <trkpt lat="43.55604" lon="7.12139">
        <ele>3.9003906</ele>
        <time>2025-03-30T12:33:10+00:00</time>
      </trkpt>
      <trkpt lat="43.55611" lon="7.12142">
        <ele>3.7998047</ele>
        <time>2025-03-30T12:33:11+00:00</time>
      </trkpt>
      <trkpt lat="43.55616" lon="7.12146">
        <ele>3.7001953</ele>
        <time>2025-03-30T12:33:12+00:00</time>
      </trkpt>
      <trkpt lat="43.55622" lon="7.12152">
        <ele>4.4003906</ele>
        <time>2025-03-30T12:33:13+00:00</time>
      </trkpt>
      <trkpt lat="43.55628" lon="7.12156">
        <ele>4.7001953</ele>
        <time>2025-03-30T12:33:14+00:00</time>
      </trkpt>
      <trkpt lat="43.55634" lon="7.12161">
        <ele>4.4003906</ele>
        <time>2025-03-30T12:33:15+00:00</time>
      </trkpt>
      <trkpt lat="43.5564" lon="7.12166">
        <ele>4.600586</ele>
        <time>2025-03-30T12:33:16+00:00</time>
      </trkpt>
      <trkpt lat="43.55645" lon="7.1217">
        <ele>4.2998047</ele>
        <time>2025-03-30T12:33:17+00:00</time>
      </trkpt>
      <trkpt lat="43.5565" lon="7.12175">
        <ele>4.9003906</ele>
        <time>2025-03-30T12:33:18+00:00</time>
      </trkpt>
      <trkpt lat="43.55657" lon="7.12178">
        <ele>4.7001953</ele>
        <time>2025-03-30T12:33:19+00:00</time>
      </trkpt>
      <trkpt lat="43.55662" lon="7.12182">
        <ele>5.100586</ele>
        <time>2025-03-30T12:33:20+00:00</time>
      </trkpt>
      <trkpt lat="43.55669" lon="7.12187">
        <ele>5.100586</ele>
        <time>2025-03-30T12:33:21+00:00</time>
      </trkpt>
      <trkpt lat="43.55674" lon="7.1219">
        <ele>5.7998047</ele>
        <time>2025-03-30T12:33:22+00:00</time>
      </trkpt>
      <trkpt lat="43.5568" lon="7.12194">
        <ele>5.7001953</ele>
        <time>2025-03-30T12:33:23+00:00</time>
      </trkpt>
      <trkpt lat="43.55686" lon="7.12198">
        <ele>6</ele>
        <time>2025-03-30T12:33:24+00:00</time>
      </trkpt>
      <trkpt lat="43.55693" lon="7.12201">
        <ele>5.5</ele>
        <time>2025-03-30T12:33:25+00:00</time>
      </trkpt>
      <trkpt lat="43.55698" lon="7.12204">
        <ele>5.100586</ele>
        <time>2025-03-30T12:33:26+00:00</time>
      </trkpt>
      <trkpt lat="43.55704" lon="7.12207">
        <ele>5.9003906</ele>
        <time>2025-03-30T12:33:27+00:00</time>
      </trkpt>
      <trkpt lat="43.5571" lon="7.12209">
        <ele>5.9003906</ele>
        <time>2025-03-30T12:33:28+00:00</time>
      </trkpt>
      <trkpt lat="43.55716" lon="7.12212">
        <ele>5.9003906</ele>
        <time>2025-03-30T12:33:29+00:00</time>
      </trkpt>
      <trkpt lat="43.55723" lon="7.12214">
        <ele>6</ele>
        <time>2025-03-30T12:33:30+00:00</time>
      </trkpt>
      <trkpt lat="43.5573" lon="7.12214">
        <ele>6</ele>
        <time>2025-03-30T12:33:31+00:00</time>
      </trkpt>
      <trkpt lat="43.55736" lon="7.12216">
        <ele>7.4003906</ele>
        <time>2025-03-30T12:33:32+00:00</time>
      </trkpt>
      <trkpt lat="43.55742" lon="7.12216">
        <ele>7.5</ele>
        <time>2025-03-30T12:33:33+00:00</time>
      </trkpt>
      <trkpt lat="43.5575" lon="7.12216">
        <ele>7.600586</ele>
        <time>2025-03-30T12:33:34+00:00</time>
      </trkpt>
      <trkpt lat="43.55756" lon="7.12216">
        <ele>7.7998047</ele>
        <time>2025-03-30T12:33:35+00:00</time>
      </trkpt>
      <trkpt lat="43.55763" lon="7.12214">
        <ele>6.7998047</ele>
        <time>2025-03-30T12:33:36+00:00</time>
      </trkpt>
      <trkpt lat="43.5577" lon="7.12212">
        <ele>6.5</ele>
        <time>2025-03-30T12:33:37+00:00</time>
      </trkpt>
      <trkpt lat="43.55776" lon="7.1221">
        <ele>5.9003906</ele>
        <time>2025-03-30T12:33:38+00:00</time>
      </trkpt>
      <trkpt lat="43.55782" lon="7.12207">
        <ele>5.2001953</ele>
        <time>2025-03-30T12:33:39+00:00</time>
      </trkpt>
      <trkpt lat="43.55788" lon="7.12204">
        <ele>1.7998047</ele>
        <time>2025-03-30T12:33:40+00:00</time>
      </trkpt>
      <trkpt lat="43.55795" lon="7.12202">
        <ele>1.9003906</ele>
        <time>2025-03-30T12:33:41+00:00</time>
      </trkpt>
      <trkpt lat="43.55802" lon="7.12198">
        <ele>2</ele>
        <time>2025-03-30T12:33:42+00:00</time>
      </trkpt>
      <trkpt lat="43.55808" lon="7.12195">
        <ele>2.3</ele>
        <time>2025-03-30T12:33:43+00:00</time>
      </trkpt>
      <trkpt lat="43.55813" lon="7.12192">
        <ele>-0.099609375</ele>
        <time>2025-03-30T12:33:44+00:00</time>
      </trkpt>
      <trkpt lat="43.5582" lon="7.1219">
        <ele>-0.39941406</ele>
        <time>2025-03-30T12:33:45+00:00</time>
      </trkpt>
      <trkpt lat="43.55827" lon="7.12188">
        <ele>-0.5</ele>
        <time>2025-03-30T12:33:46+00:00</time>
      </trkpt>
      <trkpt lat="43.55834" lon="7.12186">
        <ele>5.02</ele>
        <time>2025-03-30T12:33:47+00:00</time>
      </trkpt>
      <trkpt lat="43.5584" lon="7.12185">
        <ele>1.2998047</ele>
        <time>2025-03-30T12:33:48+00:00</time>
      </trkpt>
      <trkpt lat="43.55846" lon="7.12185">
        <ele>4</ele>
        <time>2025-03-30T12:33:49+00:00</time>
      </trkpt>
      <trkpt lat="43.55854" lon="7.12185">
        <ele>6.7001953</ele>
        <time>2025-03-30T12:33:50+00:00</time>
      </trkpt>
      <trkpt lat="43.55861" lon="7.12185">
        <ele>7.600586</ele>
        <time>2025-03-30T12:33:51+00:00</time>
      </trkpt>
      <trkpt lat="43.55868" lon="7.12186">
        <ele>7.600586</ele>
        <time>2025-03-30T12:33:52+00:00</time>
      </trkpt>
      <trkpt lat="43.55874" lon="7.12185">
        <ele>7.600586</ele>
        <time>2025-03-30T12:33:53+00:00</time>
      </trkpt>
      <trkpt lat="43.5588" lon="7.12186">
        <ele>7.600586</ele>
        <time>2025-03-30T12:33:54+00:00</time>
      </trkpt>
      <trkpt lat="43.55886" lon="7.12188">
        <ele>7.600586</ele>
        <time>2025-03-30T12:33:55+00:00</time>
      </trkpt>
      <trkpt lat="43.55892" lon="7.1219">
        <ele>8.700195</ele>
        <time>2025-03-30T12:33:56+00:00</time>
      </trkpt>
      <trkpt lat="43.55901" lon="7.12188">
        <ele>7.600586</ele>
        <time>2025-03-30T12:33:57+00:00</time>
      </trkpt>
      <trkpt lat="43.55907" lon="7.12189">
        <ele>8.600586</ele>
        <time>2025-03-30T12:33:58+00:00</time>
      </trkpt>
      <trkpt lat="43.55914" lon="7.12188">
        <ele>7.7001953</ele>
        <time>2025-03-30T12:33:59+00:00</time>
      </trkpt>
      <trkpt lat="43.5592" lon="7.12189">
        <ele>7.7001953</ele>
        <time>2025-03-30T12:34:00+00:00</time>
      </trkpt>
      <trkpt lat="43.55926" lon="7.12189">
        <ele>8.700195</ele>
        <time>2025-03-30T12:34:01+00:00</time>
      </trkpt>
      <trkpt lat="43.55933" lon="7.12188">
        <ele>7.7001953</ele>
        <time>2025-03-30T12:34:02+00:00</time>
      </trkpt>
      <trkpt lat="43.55939" lon="7.12187">
        <ele>7.7998047</ele>
        <time>2025-03-30T12:34:03+00:00</time>
      </trkpt>
      <trkpt lat="43.55945" lon="7.12186">
        <ele>7.7998047</ele>
        <time>2025-03-30T12:34:04+00:00</time>
      </trkpt>
      <trkpt lat="43.55951" lon="7.12183">
        <ele>7.7998047</ele>
        <time>2025-03-30T12:34:05+00:00</time>
      </trkpt>
      <trkpt lat="43.55957" lon="7.1218">
        <ele>6.5</ele>
        <time>2025-03-30T12:34:06+00:00</time>
      </trkpt>
      <trkpt lat="43.55963" lon="7.12176">
        <ele>6.9003906</ele>
        <time>2025-03-30T12:34:07+00:00</time>
      </trkpt>
      <trkpt lat="43.55969" lon="7.12172">
        <ele>7.100586</ele>
        <time>2025-03-30T12:34:08+00:00</time>
      </trkpt>
      <trkpt lat="43.55975" lon="7.12168">
        <ele>6.2001953</ele>
        <time>2025-03-30T12:34:09+00:00</time>
      </trkpt>
      <trkpt lat="43.5598" lon="7.12163">
        <ele>6.2001953</ele>
        <time>2025-03-30T12:34:10+00:00</time>
      </trkpt>
      <trkpt lat="43.55986" lon="7.12158">
        <ele>5.2001953</ele>
        <time>2025-03-30T12:34:11+00:00</time>
      </trkpt>
      <trkpt lat="43.5599" lon="7.12151">
        <ele>4.2998047</ele>
        <time>2025-03-30T12:34:12+00:00</time>
      </trkpt>
      <trkpt lat="43.55995" lon="7.12144">
        <ele>3</ele>
        <time>2025-03-30T12:34:13+00:00</time>
      </trkpt>
      <trkpt lat="43.56" lon="7.12137">
        <ele>1.2998047</ele>
        <time>2025-03-30T12:34:14+00:00</time>
      </trkpt>
      <trkpt lat="43.56004" lon="7.12131">
        <ele>1.2998047</ele>
        <time>2025-03-30T12:34:15+00:00</time>
      </trkpt>
      <trkpt lat="43.56009" lon="7.12125">
        <ele>-0.099609375</ele>
        <time>2025-03-30T12:34:16+00:00</time>
      </trkpt>
      <trkpt lat="43.56013" lon="7.12118">
        <ele>0.10058594</ele>
        <time>2025-03-30T12:34:17+00:00</time>
      </trkpt>
      <trkpt lat="43.56017" lon="7.12112">
        <ele>0.10058594</ele>
        <time>2025-03-30T12:34:18+00:00</time>
      </trkpt>
      <trkpt lat="43.56022" lon="7.12106">
        <ele>1.1005859</ele>
        <time>2025-03-30T12:34:19+00:00</time>
      </trkpt>
      <trkpt lat="43.56026" lon="7.12099">
        <ele>0.9003906</ele>
        <time>2025-03-30T12:34:20+00:00</time>
      </trkpt>
      <trkpt lat="43.5603" lon="7.12094">
        <ele>-0.39941406</ele>
        <time>2025-03-30T12:34:21+00:00</time>
      </trkpt>
      <trkpt lat="43.56034" lon="7.12086">
        <ele>3.3</ele>
        <time>2025-03-30T12:34:22+00:00</time>
      </trkpt>
      <trkpt lat="43.56039" lon="7.1208">
        <ele>0.5</ele>
        <time>2025-03-30T12:34:23+00:00</time>
      </trkpt>
      <trkpt lat="43.56043" lon="7.12074">
        <ele>1</ele>
        <time>2025-03-30T12:34:24+00:00</time>
      </trkpt>
      <trkpt lat="43.56047" lon="7.12066">
        <ele>4.6</ele>
        <time>2025-03-30T12:34:25+00:00</time>
      </trkpt>
      <trkpt lat="43.56051" lon="7.12058">
        <ele>-0.2998047</ele>
        <time>2025-03-30T12:34:26+00:00</time>
      </trkpt>
      <trkpt lat="43.56056" lon="7.12051">
        <ele>0.10058594</ele>
        <time>2025-03-30T12:34:27+00:00</time>
      </trkpt>
      <trkpt lat="43.5606" lon="7.12045">
        <ele>0.10058594</ele>
        <time>2025-03-30T12:34:28+00:00</time>
      </trkpt>
      <trkpt lat="43.56064" lon="7.12037">
        <ele>0.40039062</ele>
        <time>2025-03-30T12:34:29+00:00</time>
      </trkpt>
      <trkpt lat="43.56068" lon="7.12031">
        <ele>-0.099609375</ele>
        <time>2025-03-30T12:34:30+00:00</time>
      </trkpt>
      <trkpt lat="43.56072" lon="7.12025">
        <ele>-0.39941406</ele>
        <time>2025-03-30T12:34:31+00:00</time>
      </trkpt>
      <trkpt lat="43.56076" lon="7.12017">
        <ele>4.3</ele>
        <time>2025-03-30T12:34:32+00:00</time>
      </trkpt>
      <trkpt lat="43.56081" lon="7.12011">
        <ele>0.7998047</ele>
        <time>2025-03-30T12:34:33+00:00</time>
      </trkpt>
      <trkpt lat="43.56085" lon="7.12004">
        <ele>0.7998047</ele>
        <time>2025-03-30T12:34:34+00:00</time>
      </trkpt>
      <trkpt lat="43.56088" lon="7.11997">
        <ele>2.4003906</ele>
        <time>2025-03-30T12:34:35+00:00</time>
      </trkpt>
      <trkpt lat="43.56092" lon="7.11991">
        <ele>2.4003906</ele>
        <time>2025-03-30T12:34:36+00:00</time>
      </trkpt>
      <trkpt lat="43.56097" lon="7.11985">
        <ele>3.2998047</ele>
        <time>2025-03-30T12:34:37+00:00</time>
      </trkpt>
      <trkpt lat="43.56101" lon="7.11978">
        <ele>2.9003906</ele>
        <time>2025-03-30T12:34:38+00:00</time>
      </trkpt>
      <trkpt lat="43.56105" lon="7.11971">
        <ele>1.2001953</ele>
        <time>2025-03-30T12:34:39+00:00</time>
      </trkpt>
      <trkpt lat="43.56109" lon="7.11964">
        <ele>1.5</ele>
        <time>2025-03-30T12:34:40+00:00</time>
      </trkpt>
      <trkpt lat="43.56113" lon="7.1196">
        <ele>3.2001953</ele>
        <time>2025-03-30T12:34:41+00:00</time>
      </trkpt>
      <trkpt lat="43.56117" lon="7.11953">
        <ele>2.2998047</ele>
        <time>2025-03-30T12:34:42+00:00</time>
      </trkpt>
      <trkpt lat="43.56121" lon="7.11945">
        <ele>1.9003906</ele>
        <time>2025-03-30T12:34:43+00:00</time>
      </trkpt>
      <trkpt lat="43.56125" lon="7.11938">
        <ele>1.4003906</ele>
        <time>2025-03-30T12:34:44+00:00</time>
      </trkpt>
      <trkpt lat="43.56128" lon="7.11932">
        <ele>1.4003906</ele>
        <time>2025-03-30T12:34:45+00:00</time>
      </trkpt>
      <trkpt lat="43.56132" lon="7.11925">
        <ele>2.2001953</ele>
        <time>2025-03-30T12:34:46+00:00</time>
      </trkpt>
      <trkpt lat="43.56136" lon="7.11919">
        <ele>1.4003906</ele>
        <time>2025-03-30T12:34:47+00:00</time>
      </trkpt>
      <trkpt lat="43.5614" lon="7.11913">
        <ele>1.1005859</ele>
        <time>2025-03-30T12:34:48+00:00</time>
      </trkpt>
      <trkpt lat="43.56143" lon="7.11906">
        <ele>2</ele>
        <time>2025-03-30T12:34:49+00:00</time>
      </trkpt>
      <trkpt lat="43.56146" lon="7.11898">
        <ele>0.5</ele>
        <time>2025-03-30T12:34:50+00:00</time>
      </trkpt>
      <trkpt lat="43.56149" lon="7.1189">
        <ele>0.20019531</ele>
        <time>2025-03-30T12:34:51+00:00</time>
      </trkpt>
      <trkpt lat="43.56152" lon="7.11883">
        <ele>0.7001953</ele>
        <time>2025-03-30T12:34:52+00:00</time>
      </trkpt>
      <trkpt lat="43.56152" lon="7.11873">
        <ele>3.7</ele>
        <time>2025-03-30T12:34:53+00:00</time>
      </trkpt>
      <trkpt lat="43.56154" lon="7.11864">
        <ele>-0.2998047</ele>
        <time>2025-03-30T12:34:54+00:00</time>
      </trkpt>
      <trkpt lat="43.56156" lon="7.11854">
        <ele>3.8</ele>
        <time>2025-03-30T12:34:55+00:00</time>
      </trkpt>
      <trkpt lat="43.56157" lon="7.11845">
        <ele>2.2001953</ele>
        <time>2025-03-30T12:34:56+00:00</time>
      </trkpt>
      <trkpt lat="43.5616" lon="7.11837">
        <ele>2.2001953</ele>
        <time>2025-03-30T12:34:57+00:00</time>
      </trkpt>
      <trkpt lat="43.56164" lon="7.11831">
        <ele>3.4003906</ele>
        <time>2025-03-30T12:34:58+00:00</time>
      </trkpt>
      <trkpt lat="43.56168" lon="7.11825">
        <ele>3.9003906</ele>
        <time>2025-03-30T12:34:59+00:00</time>
      </trkpt>
      <trkpt lat="43.56173" lon="7.11817">
        <ele>3.7998047</ele>
        <time>2025-03-30T12:35:00+00:00</time>
      </trkpt>
      <trkpt lat="43.56178" lon="7.11811">
        <ele>4.2001953</ele>
        <time>2025-03-30T12:35:01+00:00</time>
      </trkpt>
      <trkpt lat="43.56184" lon="7.11806">
        <ele>4.5</ele>
        <time>2025-03-30T12:35:02+00:00</time>
      </trkpt>
      <trkpt lat="43.5619" lon="7.11801">
        <ele>4.7001953</ele>
        <time>2025-03-30T12:35:03+00:00</time>
      </trkpt>
      <trkpt lat="43.56196" lon="7.11795">
        <ele>5.100586</ele>
        <time>2025-03-30T12:35:04+00:00</time>
      </trkpt>
      <trkpt lat="43.56202" lon="7.11789">
        <ele>5.100586</ele>
        <time>2025-03-30T12:35:05+00:00</time>
      </trkpt>
      <trkpt lat="43.56207" lon="7.11784">
        <ele>5.100586</ele>
        <time>2025-03-30T12:35:06+00:00</time>
      </trkpt>
      <trkpt lat="43.56213" lon="7.1178">
        <ele>5.5</ele>
        <time>2025-03-30T12:35:07+00:00</time>
      </trkpt>
      <trkpt lat="43.56219" lon="7.11775">
        <ele>5.4003906</ele>
        <time>2025-03-30T12:35:08+00:00</time>
      </trkpt>
      <trkpt lat="43.56225" lon="7.11772">
        <ele>5.600586</ele>
        <time>2025-03-30T12:35:09+00:00</time>
      </trkpt>
      <trkpt lat="43.56231" lon="7.11768">
        <ele>5.5</ele>
        <time>2025-03-30T12:35:10+00:00</time>
      </trkpt>
      <trkpt lat="43.56238" lon="7.11767">
        <ele>5.7001953</ele>
        <time>2025-03-30T12:35:11+00:00</time>
      </trkpt>
      <trkpt lat="43.56244" lon="7.11766">
        <ele>5.9003906</ele>
        <time>2025-03-30T12:35:12+00:00</time>
      </trkpt>
      <trkpt lat="43.56251" lon="7.11766">
        <ele>6.100586</ele>
        <time>2025-03-30T12:35:13+00:00</time>
      </trkpt>
      <trkpt lat="43.56257" lon="7.11765">
        <ele>6.2998047</ele>
        <time>2025-03-30T12:35:14+00:00</time>
      </trkpt>
      <trkpt lat="43.56263" lon="7.11765">
        <ele>6.5</ele>
        <time>2025-03-30T12:35:15+00:00</time>
      </trkpt>
      <trkpt lat="43.56269" lon="7.11765">
        <ele>6.7001953</ele>
        <time>2025-03-30T12:35:16+00:00</time>
      </trkpt>
      <trkpt lat="43.56274" lon="7.11766">
        <ele>6.9003906</ele>
        <time>2025-03-30T12:35:17+00:00</time>
      </trkpt>
      <trkpt lat="43.5628" lon="7.11766">
        <ele>7</ele>
        <time>2025-03-30T12:35:18+00:00</time>
      </trkpt>
      <trkpt lat="43.56287" lon="7.11763">
        <ele>7.2001953</ele>
        <time>2025-03-30T12:35:19+00:00</time>
      </trkpt>
      <trkpt lat="43.56293" lon="7.11761">
        <ele>7.4003906</ele>
        <time>2025-03-30T12:35:20+00:00</time>
      </trkpt>
      <trkpt lat="43.56299" lon="7.11758">
        <ele>7.2001953</ele>
        <time>2025-03-30T12:35:21+00:00</time>
      </trkpt>
      <trkpt lat="43.56304" lon="7.11754">
        <ele>7.5</ele>
        <time>2025-03-30T12:35:22+00:00</time>
      </trkpt>
      <trkpt lat="43.56309" lon="7.11747">
        <ele>7.100586</ele>
        <time>2025-03-30T12:35:23+00:00</time>
      </trkpt>
      <trkpt lat="43.56314" lon="7.11743">
        <ele>7.4003906</ele>
        <time>2025-03-30T12:35:24+00:00</time>
      </trkpt>
      <trkpt lat="43.56319" lon="7.11739">
        <ele>7.4003906</ele>
        <time>2025-03-30T12:35:25+00:00</time>
      </trkpt>
      <trkpt lat="43.56324" lon="7.11733">
        <ele>7.4003906</ele>
        <time>2025-03-30T12:35:26+00:00</time>
      </trkpt>
      <trkpt lat="43.56328" lon="7.11726">
        <ele>7.4003906</ele>
        <time>2025-03-30T12:35:27+00:00</time>
      </trkpt>
      <trkpt lat="43.56334" lon="7.1172">
        <ele>7.5</ele>
        <time>2025-03-30T12:35:28+00:00</time>
      </trkpt>
      <trkpt lat="43.56338" lon="7.11713">
        <ele>7.7001953</ele>
        <time>2025-03-30T12:35:29+00:00</time>
      </trkpt>
      <trkpt lat="43.56342" lon="7.11707">
        <ele>7.9003906</ele>
        <time>2025-03-30T12:35:30+00:00</time>
      </trkpt>
      <trkpt lat="43.56347" lon="7.117">
        <ele>7.9003906</ele>
        <time>2025-03-30T12:35:31+00:00</time>
      </trkpt>
      <trkpt lat="43.5635" lon="7.11694">
        <ele>8.100586</ele>
        <time>2025-03-30T12:35:32+00:00</time>
      </trkpt>
      <trkpt lat="43.56354" lon="7.11687">
        <ele>8</ele>
        <time>2025-03-30T12:35:33+00:00</time>
      </trkpt>
      <trkpt lat="43.56358" lon="7.11681">
        <ele>8.299805</ele>
        <time>2025-03-30T12:35:34+00:00</time>
      </trkpt>
      <trkpt lat="43.56361" lon="7.11673">
        <ele>8.600586</ele>
        <time>2025-03-30T12:35:35+00:00</time>
      </trkpt>
      <trkpt lat="43.56365" lon="7.11666">
        <ele>8.600586</ele>
        <time>2025-03-30T12:35:36+00:00</time>
      </trkpt>
      <trkpt lat="43.56368" lon="7.11661">
        <ele>9</ele>
        <time>2025-03-30T12:35:37+00:00</time>
      </trkpt>
      <trkpt lat="43.56371" lon="7.11654">
        <ele>9</ele>
        <time>2025-03-30T12:35:38+00:00</time>
      </trkpt>
      <trkpt lat="43.56375" lon="7.11648">
        <ele>9.299805</ele>
        <time>2025-03-30T12:35:39+00:00</time>
      </trkpt>
      <trkpt lat="43.56378" lon="7.11643">
        <ele>9.299805</ele>
        <time>2025-03-30T12:35:40+00:00</time>
      </trkpt>
      <trkpt lat="43.56382" lon="7.11637">
        <ele>9.299805</ele>
        <time>2025-03-30T12:35:41+00:00</time>
      </trkpt>
      <trkpt lat="43.56385" lon="7.11631">
        <ele>9.200195</ele>
        <time>2025-03-30T12:35:42+00:00</time>
      </trkpt>
      <trkpt lat="43.5639" lon="7.11626">
        <ele>9.200195</ele>
        <time>2025-03-30T12:35:43+00:00</time>
      </trkpt>
      <trkpt lat="43.56394" lon="7.11621">
        <ele>8.900391</ele>
        <time>2025-03-30T12:35:44+00:00</time>
      </trkpt>
      <trkpt lat="43.56398" lon="7.11616">
        <ele>9.100586</ele>
        <time>2025-03-30T12:35:45+00:00</time>
      </trkpt>
      <trkpt lat="43.56403" lon="7.11612">
        <ele>8.600586</ele>
        <time>2025-03-30T12:35:46+00:00</time>
      </trkpt>
      <trkpt lat="43.56408" lon="7.11608">
        <ele>8.799805</ele>
        <time>2025-03-30T12:35:47+00:00</time>
      </trkpt>
      <trkpt lat="43.56413" lon="7.11603">
        <ele>8.5</ele>
        <time>2025-03-30T12:35:48+00:00</time>
      </trkpt>
      <trkpt lat="43.56419" lon="7.116">
        <ele>8.700195</ele>
        <time>2025-03-30T12:35:49+00:00</time>
      </trkpt>
      <trkpt lat="43.56424" lon="7.11597">
        <ele>9</ele>
        <time>2025-03-30T12:35:50+00:00</time>
      </trkpt>
      <trkpt lat="43.56429" lon="7.11595">
        <ele>8.700195</ele>
        <time>2025-03-30T12:35:51+00:00</time>
      </trkpt>
      <trkpt lat="43.56436" lon="7.11591">
        <ele>9</ele>
        <time>2025-03-30T12:35:52+00:00</time>
      </trkpt>
      <trkpt lat="43.56442" lon="7.11588">
        <ele>9.299805</ele>
        <time>2025-03-30T12:35:53+00:00</time>
      </trkpt>
      <trkpt lat="43.56448" lon="7.11584">
        <ele>9.200195</ele>
        <time>2025-03-30T12:35:54+00:00</time>
      </trkpt>
      <trkpt lat="43.56453" lon="7.11581">
        <ele>9.200195</ele>
        <time>2025-03-30T12:35:55+00:00</time>
      </trkpt>
      <trkpt lat="43.56459" lon="7.11579">
        <ele>9.600586</ele>
        <time>2025-03-30T12:35:56+00:00</time>
      </trkpt>
      <trkpt lat="43.56465" lon="7.11575">
        <ele>9.700195</ele>
        <time>2025-03-30T12:35:57+00:00</time>
      </trkpt>
      <trkpt lat="43.56471" lon="7.11573">
        <ele>10.200195</ele>
        <time>2025-03-30T12:35:58+00:00</time>
      </trkpt>
      <trkpt lat="43.56477" lon="7.1157">
        <ele>10.100586</ele>
        <time>2025-03-30T12:35:59+00:00</time>
      </trkpt>
      <trkpt lat="43.56483" lon="7.1157">
        <ele>10.5</ele>
        <time>2025-03-30T12:36:00+00:00</time>
      </trkpt>
      <trkpt lat="43.56488" lon="7.1157">
        <ele>10.799805</ele>
        <time>2025-03-30T12:36:01+00:00</time>
      </trkpt>
      <trkpt lat="43.56494" lon="7.11569">
        <ele>11.100586</ele>
        <time>2025-03-30T12:36:02+00:00</time>
      </trkpt>
      <trkpt lat="43.565" lon="7.11566">
        <ele>11.400391</ele>
        <time>2025-03-30T12:36:03+00:00</time>
      </trkpt>
      <trkpt lat="43.56506" lon="7.11565">
        <ele>11.700195</ele>
        <time>2025-03-30T12:36:04+00:00</time>
      </trkpt>
      <trkpt lat="43.56513" lon="7.11565">
        <ele>12</ele>
        <time>2025-03-30T12:36:05+00:00</time>
      </trkpt>
      <trkpt lat="43.56519" lon="7.11565">
        <ele>12.299805</ele>
        <time>2025-03-30T12:36:06+00:00</time>
      </trkpt>
      <trkpt lat="43.56526" lon="7.11567">
        <ele>12.600586</ele>
        <time>2025-03-30T12:36:07+00:00</time>
      </trkpt>
      <trkpt lat="43.56532" lon="7.11565">
        <ele>12.900391</ele>
        <time>2025-03-30T12:36:08+00:00</time>
      </trkpt>
      <trkpt lat="43.56537" lon="7.11566">
        <ele>13.100586</ele>
        <time>2025-03-30T12:36:09+00:00</time>
      </trkpt>
      <trkpt lat="43.56543" lon="7.11566">
        <ele>13.299805</ele>
        <time>2025-03-30T12:36:10+00:00</time>
      </trkpt>
      <trkpt lat="43.5655" lon="7.11567">
        <ele>13.400391</ele>
        <time>2025-03-30T12:36:11+00:00</time>
      </trkpt>
      <trkpt lat="43.56556" lon="7.11569">
        <ele>13.400391</ele>
        <time>2025-03-30T12:36:12+00:00</time>
      </trkpt>
      <trkpt lat="43.56563" lon="7.11571">
        <ele>14</ele>
        <time>2025-03-30T12:36:13+00:00</time>
      </trkpt>
      <trkpt lat="43.56569" lon="7.11572">
        <ele>13.799805</ele>
        <time>2025-03-30T12:36:14+00:00</time>
      </trkpt>
      <trkpt lat="43.56574" lon="7.11576">
        <ele>13.600586</ele>
        <time>2025-03-30T12:36:15+00:00</time>
      </trkpt>
      <trkpt lat="43.56579" lon="7.11576">
        <ele>13.299805</ele>
        <time>2025-03-30T12:36:16+00:00</time>
      </trkpt>
      <trkpt lat="43.56586" lon="7.11577">
        <ele>13.100586</ele>
        <time>2025-03-30T12:36:17+00:00</time>
      </trkpt>
      <trkpt lat="43.56592" lon="7.11579">
        <ele>12.900391</ele>
        <time>2025-03-30T12:36:18+00:00</time>
      </trkpt>
      <trkpt lat="43.56597" lon="7.11582">
        <ele>13.400391</ele>
        <time>2025-03-30T12:36:19+00:00</time>
      </trkpt>
      <trkpt lat="43.56602" lon="7.11586">
        <ele>13.400391</ele>
        <time>2025-03-30T12:36:20+00:00</time>
      </trkpt>
      <trkpt lat="43.56607" lon="7.11588">
        <ele>13.799805</ele>
        <time>2025-03-30T12:36:21+00:00</time>
      </trkpt>
      <trkpt lat="43.56612" lon="7.11592">
        <ele>13.600586</ele>
        <time>2025-03-30T12:36:22+00:00</time>
      </trkpt>
      <trkpt lat="43.56616" lon="7.11594">
        <ele>13.200195</ele>
        <time>2025-03-30T12:36:23+00:00</time>
      </trkpt>
      <trkpt lat="43.56619" lon="7.11595">
        <ele>13.200195</ele>
        <time>2025-03-30T12:36:24+00:00</time>
      </trkpt>
      <trkpt lat="43.56624" lon="7.11594">
        <ele>12.900391</ele>
        <time>2025-03-30T12:36:25+00:00</time>
      </trkpt>
      <trkpt lat="43.56629" lon="7.11589">
        <ele>12.600586</ele>
        <time>2025-03-30T12:36:26+00:00</time>
      </trkpt>
      <trkpt lat="43.56631" lon="7.11586">
        <ele>12.100586</ele>
        <time>2025-03-30T12:36:27+00:00</time>
      </trkpt>
      <trkpt lat="43.56633" lon="7.11583">
        <ele>12.100586</ele>
        <time>2025-03-30T12:36:30+00:00</time>
      </trkpt>
      <trkpt lat="43.56635" lon="7.11578">
        <ele>11.5</ele>
        <time>2025-03-30T12:36:32+00:00</time>
      </trkpt>
      <trkpt lat="43.56638" lon="7.11577">
        <ele>11.5</ele>
        <time>2025-03-30T12:36:34+00:00</time>
      </trkpt>
      <trkpt lat="43.5664" lon="7.11574">
        <ele>11.299805</ele>
        <time>2025-03-30T12:36:38+00:00</time>
      </trkpt>
      <trkpt lat="43.56643" lon="7.11573">
        <ele>11.299805</ele>
        <time>2025-03-30T12:36:47+00:00</time>
      </trkpt>
    </trkseg>
  </trk>
</gpx>